[[{"header":{"parameterUnit":"m.s-1","parameterCategory":1,"la1":30.6,"la2":28.766,"lo1":-90.7593,"lo2":-88.6598,"dy":0.0162,"dx":0.0183,"nx":116,"ny":114,"refTime":"2023-08-13T06:00:00:Z","depth":0,"parameterNumber":2,"parameterNumberName":"U-component_of_WINDS"},"data":[0.0,0.0,0.0,0.0,0.0,0.0,0.0,0.0,0.0,0.0,0.0,0.0,0.0,0.0,0.0,0.0,0.0,0.0,0.0,0.0,0.0,0.0,0.0,0.0,0.0,0.0,0.0,0.0,0.0,0.0,0.0,0.0,0.0,0.0,0.0,0.0,0.0,0.0,0.0,0.0,0.0,0.0,0.0,0.0,0.0,0.0,0.0,0.0,0.0,0.0,0.0,0.0,0.0,0.0,0.0,0.0,0.0,0.0,0.0,0.0,0.0,0.0,0.0,0.0,0.0,0.0,0.0,0.0,0.0,0.0,0.0,0.0,0.0,0.0,0.0,0.0,0.0,0.0,0.0,0.0,0.0,0.0,0.0,0.0,0.0,0.0,0.0,0.0,0.0,0.0,0.0,0.0,0.0,0.0,0.0,0.0,0.0,0.0,0.0,0.0,0.0,0.0,0.0,0.0,0.0,0.0,0.0,0.0,0.0,0.0,0.0,0.0,0.0,0.0,0.0,0.0,0.0,0.0,0.0,0.0,0.0,0.0,0.0,0.0,0.0,0.0,0.0,0.0,0.0,0.0,0.0,0.0,0.0,0.0,0.0,0.0,0.0,0.0,0.0,0.0,0.0,0.0,0.0,0.0,0.0,0.0,0.0,0.0,0.0,0.0,0.0,0.0,0.0,0.0,0.0,0.0,0.0,0.0,0.0,0.0,0.0,0.0,0.0,0.0,0.0,0.0,0.0,0.0,0.0,0.0,0.0,0.0,0.0,0.0,0.0,0.0,0.0,0.0,0.0,0.0,0.0,0.0,0.0,0.0,0.0,0.0,0.0,0.0,0.0,0.0,0.0,0.0,0.0,0.0,0.0,0.0,0.0,0.0,0.0,0.0,0.0,0.0,0.0,0.0,0.0,0.0,0.0,0.0,0.0,0.0,0.0,0.0,0.0,0.0,0.0,0.0,0.0,0.0,0.0,0.0,0.0,0.0,0.0,0.0,0.0,0.0,0.0,0.0,0.0,0.0,0.0,0.0,0.0,0.0,0.0,0.0,0.0,0.0,0.0,0.0,0.0,0.0,0.0,0.0,0.0,0.0,0.0,0.0,0.0,0.0,0.0,0.0,0.0,0.0,0.0,0.0,0.0,0.0,0.0,0.0,0.0,0.0,0.0,0.0,0.0,0.0,0.0,0.0,0.0,0.0,0.0,0.0,0.0,0.0,0.0,0.0,0.0,0.0,0.0,0.0,0.0,0.0,0.0,0.0,0.0,0.0,0.0,0.0,0.0,0.0,0.0,0.0,0.0,0.0,0.0,0.0,0.0,0.0,0.0,0.0,0.0,0.0,0.0,0.0,0.0,0.0,0.0,0.0,0.0,0.0,0.0,0.0,0.0,0.0,0.0,0.0,0.0,0.0,0.0,0.0,0.0,0.0,0.0,0.0,0.0,0.0,0.0,0.0,0.0,0.0,0.0,0.0,0.0,0.0,0.0,0.0,0.0,0.0,0.0,0.0,0.0,0.0,0.0,0.0,0.0,0.0,0.0,0.0,0.0,0.0,0.0,0.0,0.0,0.0,0.0,0.0,0.0,0.0,0.0,0.0,0.0,0.0,0.0,0.0,0.0,0.0,0.0,0.0,0.0,0.0,0.0,0.0,0.0,0.0,0.0,0.0,0.0,0.0,0.0,0.0,0.0,0.0,0.0,0.0,0.0,0.0,0.0,0.0,0.0,0.0,0.0,0.0,0.0,0.0,0.0,0.0,0.0,0.0,0.0,0.0,0.0,0.0,0.0,0.0,0.0,0.0,0.0,0.0,0.0,0.0,0.0,0.0,0.0,0.0,0.0,0.0,0.0,0.0,0.0,0.0,0.0,0.0,0.0,0.0,0.0,0.0,0.0,0.0,0.0,0.0,0.0,0.0,0.0,0.0,0.0,0.0,0.0,0.0,0.0,0.0,0.0,0.0,0.0,0.0,0.0,0.0,0.0,0.0,0.0,0.0,0.0,0.0,0.0,0.0,0.0,0.0,0.0,0.0,0.0,0.0,0.0,0.0,0.0,0.0,0.0,0.0,0.0,0.0,0.0,0.0,0.0,0.0,0.0,0.0,0.0,0.0,0.0,0.0,0.0,0.0,0.0,0.0,0.0,0.0,0.0,0.0,0.0,0.0,0.0,0.0,0.0,0.0,0.0,0.0,0.0,0.0,0.0,0.0,0.0,0.0,0.0,0.0,0.0,0.0,0.0,0.0,0.0,0.0,0.0,0.0,0.0,0.0,0.0,0.0,0.0,0.0,0.0,0.0,0.0,0.0,0.0,0.0,0.0,0.0,0.0,0.0,0.0,0.0,0.0,0.0,0.0,0.0,0.0,0.0,0.0,0.0,0.0,0.0,0.0,0.0,0.0,0.0,0.0,0.0,0.0,0.0,0.0,0.0,0.0,0.0,0.0,0.0,0.0,0.0,0.0,0.0,0.0,0.0,0.0,0.0,0.0,0.0,0.0,0.0,0.0,0.0,0.0,0.0,0.0,0.0,0.0,0.0,0.0,0.0,0.0,0.0,0.0,0.0,0.0,0.0,0.0,0.0,0.0,0.0,0.0,0.0,0.0,0.0,0.0,0.0,0.0,0.0,0.0,0.0,0.0,0.0,0.0,0.0,0.0,0.0,0.0,0.0,0.0,0.0,0.0,0.0,0.0,0.0,0.0,0.0,0.0,0.0,0.0,0.0,0.0,0.0,0.0,0.0,0.0,0.0,0.0,0.0,0.0,0.0,0.0,0.0,0.0,0.0,0.0,0.0,0.0,0.0,0.0,0.0,0.0,0.0,0.0,0.0,0.0,0.0,0.0,0.0,0.0,0.0,0.0,0.0,0.0,0.0,0.0,0.0,0.0,0.0,0.0,0.0,0.0,0.0,0.0,0.0,0.0,0.0,0.0,0.0,0.0,0.0,0.0,0.0,0.0,0.0,0.0,0.0,0.0,0.0,0.0,0.0,0.0,0.0,0.0,0.0,0.0,0.0,0.0,0.0,0.0,0.0,0.0,0.0,0.0,0.0,0.0,0.0,0.0,0.0,0.0,0.0,0.0,0.0,0.0,0.0,0.0,0.0,0.0,0.0,0.0,0.0,0.0,0.0,0.0,0.0,0.0,0.0,0.0,0.0,0.0,0.0,0.0,0.0,0.0,0.0,0.0,0.0,0.0,0.0,0.0,0.0,0.0,0.0,0.0,0.0,0.0,0.0,0.0,0.0,0.0,0.0,0.0,0.0,0.0,0.0,0.0,0.0,0.0,0.0,0.0,0.0,0.0,0.0,0.0,0.0,0.0,0.0,0.0,0.0,0.0,0.0,0.0,0.0,0.0,0.0,0.0,0.0,0.0,0.0,0.0,0.0,0.0,0.0,0.0,0.0,0.0,0.0,0.0,0.0,0.0,0.0,0.0,0.0,0.0,0.0,0.0,0.0,0.0,0.0,0.0,0.0,0.0,0.0,0.0,0.0,0.0,0.0,0.0,0.0,0.0,0.0,0.0,0.0,0.0,0.0,0.0,0.0,0.0,0.0,0.0,0.0,0.0,0.0,0.0,0.0,0.0,0.0,0.0,0.0,0.0,0.0,0.0,0.0,0.0,0.0,0.0,0.0,0.0,0.0,0.0,0.0,0.0,0.0,0.0,0.0,0.0,0.0,0.0,0.0,0.0,0.0,0.0,0.0,0.0,0.0,0.0,0.0,0.0,0.0,0.0,0.0,0.0,0.0,0.0,0.0,0.0,0.0,0.0,0.0,0.0,0.0,0.0,0.0,0.0,0.0,0.0,0.0,0.0,0.0,0.0,0.0,0.0,0.0,0.0,0.0,0.0,0.0,0.0,0.0,0.0,0.0,0.0,0.0,0.0,0.0,0.0,0.0,0.0,0.0,0.0,0.0,0.0,0.0,0.0,0.0,0.0,0.0,0.0,0.0,0.0,0.0,0.0,0.0,0.0,0.0,0.0,0.0,0.0,0.0,0.0,0.0,0.0,0.0,0.0,0.0,0.0,0.0,0.0,0.0,0.0,0.0,0.0,0.0,0.0,0.0,0.0,0.0,0.0,0.0,0.0,0.0,0.0,0.0,0.0,0.0,0.0,0.0,0.0,0.0,0.0,0.0,0.0,0.0,0.0,0.0,0.0,0.0,0.0,0.0,0.0,0.0,0.0,0.0,0.0,0.0,0.0,0.0,0.0,0.0,0.0,0.0,0.0,0.0,0.0,0.0,0.0,0.0,0.0,0.0,0.0,0.0,0.0,0.0,0.0,0.0,0.0,0.0,0.0,0.0,0.0,0.0,0.0,0.0,0.0,0.0,0.0,0.0,0.0,0.0,0.0,0.0,0.0,0.0,0.0,0.0,0.0,0.0,0.0,0.0,0.0,0.0,0.0,0.0,0.0,0.0,0.0,0.0,0.0,0.0,0.0,0.0,0.0,0.0,0.0,0.0,0.0,0.0,0.0,0.0,0.0,0.0,0.0,0.0,0.0,0.0,0.0,0.0,0.0,0.0,0.0,0.0,0.0,0.0,0.0,0.0,0.0,0.0,0.0,0.0,0.0,0.0,0.0,0.0,0.0,0.0,0.0,0.0,0.0,0.0,0.0,0.0,0.0,0.0,0.0,0.0,0.0,0.0,0.0,0.0,0.0,0.0,0.0,0.0,0.0,0.0,0.0,0.0,0.0,0.0,0.0,0.0,0.0,0.0,0.0,0.0,0.0,0.0,0.0,0.0,0.0,0.0,0.0,0.0,0.0,0.0,0.0,0.0,0.0,0.0,0.0,0.0,0.0,0.0,0.0,0.0,0.0,0.0,0.0,0.0,0.0,0.0,0.0,0.0,0.0,0.0,0.0,0.0,0.0,0.0,0.0,0.0,0.0,0.0,0.0,0.0,0.0,0.0,0.0,0.0,0.0,0.0,0.0,0.0,0.0,0.0,0.0,0.0,0.0,0.0,0.0,0.0,0.0,0.0,0.0,0.0,0.0,0.0,0.0,0.0,0.0,0.0,0.0,0.0,0.0,0.0,0.0,0.0,0.0,0.0,0.0,0.0,0.0,0.0,0.0,0.0,0.0,0.0,0.0,0.0,0.0,0.0,0.0,0.0,0.0,0.0,0.0,0.0,0.0,0.0,0.0,0.0,0.0,0.0,0.0,0.0,0.0,0.0,0.0,0.0,0.0,0.0,0.0,0.0,0.0,0.0,0.0,0.0,0.0,0.0,0.0,0.0,0.0,0.0,0.0,0.0,0.0,0.0,0.0,0.0,0.0,0.0,0.0,0.0,0.0,0.0,0.0,0.0,0.0,0.0,0.0,0.0,0.0,0.0,0.0,0.0,0.0,0.0,0.0,0.0,0.0,0.0,0.0,0.0,0.0,0.0,0.0,0.0,0.0,0.0,0.0,0.0,0.0,0.0,0.0,0.0,0.0,0.0,0.0,0.0,0.0,0.0,0.0,0.0,0.0,0.0,0.0,0.0,0.0,0.0,0.0,0.0,0.0,0.0,0.0,0.0,0.0,0.0,0.0,0.0,0.0,0.0,0.0,0.0,0.0,0.0,0.0,0.0,0.0,0.0,0.0,0.0,0.0,0.0,0.0,0.0,0.0,0.0,0.0,0.0,0.0,0.0,0.0,0.0,0.0,0.0,0.0,0.0,0.0,0.0,0.0,0.0,0.0,0.0,0.0,0.0,0.0,0.0,0.0,0.0,0.0,0.0,0.0,0.0,0.0,0.0,0.0,0.0,0.0,0.0,0.0,0.0,0.0,0.0,0.0,0.0,0.0,0.0,0.0,0.0,0.0,0.0,0.0,0.0,0.0,0.0,0.0,0.0,0.0,0.0,0.0,0.0,0.0,0.0,0.0,0.0,0.0,0.0,0.0,0.0,0.0,0.0,0.0,0.0,0.0,0.0,0.0,0.0,0.0,0.0,0.0,0.0,0.0,0.0,0.0,0.0,0.0,0.0,0.0,0.0,0.0,0.0,0.0,0.0,0.0,0.0,0.0,0.0,0.0,0.0,0.0,0.0,0.0,0.0,0.0,0.0,0.0,0.0,0.0,0.0,0.0,0.0,0.0,0.0,0.0,0.0,0.0,0.0,-1.3914,0.0,0.0,0.0,0.0,0.0,0.0,0.0,0.0,0.0,0.0,0.0,0.0,0.0,0.0,0.0,0.0,0.0,0.0,0.0,0.0,0.0,0.0,0.0,0.0,0.0,0.0,0.0,0.0,0.0,0.0,0.0,0.0,0.0,0.0,0.0,0.0,0.0,0.0,0.0,0.0,0.0,0.0,0.0,0.0,0.0,0.0,0.0,0.0,0.0,0.0,0.0,0.0,0.0,0.0,0.0,0.0,0.0,0.0,0.0,0.0,0.0,0.0,0.0,0.0,0.0,0.0,0.0,0.0,0.0,0.0,0.0,0.0,0.0,0.0,0.0,0.0,0.0,0.0,0.0,0.0,0.0,0.0,0.0,0.0,0.0,0.0,0.0,0.0,0.0,0.0,0.0,0.0,0.0,0.0,0.0,0.0,0.0,0.0,0.0,0.0,0.0,0.0,0.0,0.0,0.0,0.0,0.0,0.0,0.0,0.0,0.0,0.0,0.0,0.0,0.0,0.0,-1.5046,0.0,0.0,0.0,0.0,0.0,0.0,0.0,0.0,0.0,0.0,0.0,0.0,0.0,0.0,0.0,0.0,0.0,0.0,0.0,0.0,0.0,0.0,0.0,0.0,0.0,0.0,0.0,0.0,0.0,0.0,0.0,0.0,0.0,0.0,0.0,0.0,0.0,0.0,0.0,0.0,0.0,0.0,0.0,0.0,0.0,0.0,0.0,0.0,0.0,0.0,0.0,0.0,0.0,0.0,0.0,0.0,0.0,0.0,0.0,0.0,0.0,0.0,0.0,0.0,0.0,0.0,0.0,0.0,0.0,0.0,0.0,0.0,0.0,0.0,0.0,0.0,0.0,0.0,0.0,0.0,0.0,0.0,0.0,0.0,0.0,0.0,0.0,0.0,0.0,0.0,0.0,0.0,0.0,0.0,0.0,0.0,0.0,0.0,0.0,0.0,0.0,0.0,0.0,0.0,0.0,0.0,0.0,0.0,-1.5713,-1.6498,-1.6963,-1.7492,-1.7867,-1.8098,-1.8428,-1.7834,-1.6643,-1.6182,0.0,0.0,0.0,0.0,0.0,0.0,0.0,0.0,0.0,0.0,0.0,0.0,0.0,0.0,0.0,0.0,0.0,0.0,0.0,0.0,0.0,0.0,0.0,0.0,0.0,0.0,0.0,0.0,0.0,0.0,0.0,0.0,0.0,0.0,0.0,0.0,0.0,0.0,-1.1526,-1.2637,-1.3564,-1.4209,0.0,0.0,0.0,0.0,0.0,0.0,0.0,0.0,0.0,0.0,0.0,0.0,0.0,0.0,0.0,0.0,0.0,0.0,0.0,0.0,0.0,0.0,0.0,0.0,0.0,0.0,0.0,0.0,0.0,0.0,0.0,0.0,0.0,0.0,0.0,0.0,0.0,0.0,0.0,0.0,0.0,0.0,0.0,0.0,-1.0303,-1.0303,0.0,0.0,0.0,0.0,0.0,0.0,0.0,0.0,0.0,0.0,0.0,0.0,0.0,-1.4065,-1.4893,-1.6162,-1.6724,-1.6629,-1.8402,-1.952,-2.0041,-2.0761,-2.1718,-2.2822,-2.3022,0.0,-1.7361,-1.723,0.0,0.0,0.0,0.0,0.0,0.0,0.0,0.0,0.0,0.0,0.0,0.0,0.0,0.0,0.0,0.0,0.0,0.0,0.0,0.0,0.0,0.0,0.0,0.0,0.0,0.0,0.0,0.0,0.0,0.0,0.0,0.0,0.0,0.0,0.0,0.0,-1.1631,-1.2305,-1.3027,-1.3848,-1.4705,-1.5498,-1.4717,-1.4561,-1.4786,-1.4231,0.0,0.0,0.0,0.0,0.0,0.0,0.0,0.0,0.0,0.0,0.0,0.0,0.0,0.0,0.0,0.0,0.0,0.0,0.0,0.0,0.0,0.0,0.0,0.0,0.0,0.0,0.0,0.0,0.0,0.0,0.0,0.0,0.0,0.0,0.0,0.0,0.0,0.0,0.0,-1.0714,-1.0841,-1.0361,-1.0723,-1.0909,0.0,0.0,0.0,0.0,0.0,0.0,0.0,0.0,0.0,-1.4551,-1.499,-1.5635,-1.6514,-1.7559,-1.839,-1.9049,-2.0079,-2.0852,-2.1342,-2.1988,-2.2579,-2.3173,-2.4161,-2.3304,-2.1167,-2.0138,-1.9033,-1.7847,0.0,0.0,0.0,0.0,-1.7543,-1.8479,0.0,0.0,0.0,0.0,0.0,0.0,0.0,0.0,0.0,0.0,0.0,0.0,0.0,0.0,0.0,-1.0528,0.0,0.0,0.0,0.0,0.0,0.0,0.0,0.0,0.0,0.0,0.0,0.0,-1.25,-1.3451,-1.4611,-1.5195,-1.5908,-1.675,-1.675,-1.6484,-1.6055,-1.5723,-1.5029,0.0,0.0,0.0,0.0,0.0,0.0,0.0,0.0,0.0,0.0,0.0,0.0,0.0,0.0,0.0,0.0,0.0,0.0,0.0,0.0,0.0,0.0,0.0,0.0,0.0,0.0,0.0,0.0,0.0,0.0,0.0,0.0,0.0,0.0,0.0,0.0,0.0,0.0,-1.131,-1.1555,-1.0577,-1.1516,-1.1946,0.0,0.0,0.0,0.0,0.0,0.0,-1.4708,-1.5215,-1.5742,-1.6387,-1.6966,-1.7621,-1.8359,-1.9102,-1.9951,-2.0948,-2.124,-2.1896,-2.29,-2.3169,-2.3664,-2.4321,-2.5214,-2.5346,-2.4826,-2.2928,-2.1459,-2.0312,-1.9231,-1.9069,-1.9417,-1.9417,-2.0131,-2.1094,0.0,0.0,0.0,0.0,0.0,0.0,0.0,0.0,0.0,0.0,0.0,0.0,0.0,0.0,-1.0557,-1.1469,-1.1557,-1.1379,0.0,0.0,0.0,0.0,0.0,0.0,0.0,0.0,0.0,-1.2174,-1.3848,-1.5136,-1.6016,-1.6877,-1.7705,-1.8471,-1.8471,-1.8237,-1.7793,-1.6584,-1.6026,-1.586,0.0,0.0,0.0,0.0,0.0,0.0,0.0,0.0,0.0,0.0,0.0,0.0,0.0,0.0,0.0,0.0,0.0,0.0,0.0,0.0,0.0,0.0,0.0,0.0,0.0,0.0,0.0,0.0,0.0,0.0,0.0,0.0,0.0,0.0,0.0,0.0,0.0,0.0,0.0,-1.1035,-1.271,0.0,0.0,0.0,0.0,-1.5186,-1.5234,-1.5615,-1.6521,-1.7012,-1.7812,-1.9053,-1.994,-2.0566,-2.0995,-2.1494,-2.1758,-2.1816,-2.1846,-2.3176,-2.5596,-2.5105,-2.6228,-2.855,-2.7587,-2.7147,-2.6947,-2.4795,-2.3183,-2.1958,-2.0902,-2.0515,-2.0511,-2.0511,-2.1235,-2.2159,0.0,0.0,0.0,0.0,0.0,0.0,0.0,0.0,0.0,0.0,0.0,0.0,0.0,-1.0342,-1.1152,-1.2338,-1.2436,-1.225,-1.1765,0.0,0.0,0.0,0.0,0.0,0.0,0.0,-1.2347,-1.3877,-1.5067,-1.6085,-1.6966,-1.7783,-1.8203,-1.8198,-1.8198,-1.812,-1.7978,-1.751,-1.6858,-1.6007,-1.4961,-1.4111,0.0,0.0,0.0,0.0,0.0,0.0,0.0,0.0,0.0,0.0,0.0,0.0,0.0,0.0,0.0,0.0,0.0,0.0,0.0,0.0,0.0,0.0,0.0,0.0,0.0,0.0,0.0,0.0,0.0,0.0,0.0,0.0,0.0,0.0,0.0,0.0,0.0,-1.3799,-1.4962,0.0,-1.5224,-1.5459,-1.5938,-1.6621,-1.7187,-1.7954,-1.9141,-1.9619,-2.0195,-2.0937,-2.126,-2.1621,-2.2009,-2.2217,-2.2432,-2.2652,-2.2652,-2.3545,-2.5151,-2.5326,-2.6304,-2.7878,-2.7816,-2.7808,-2.772,-2.6578,-2.5448,-2.433,-2.3591,-2.3319,-2.3319,-2.3319,-2.3779,-2.4406,0.0,0.0,0.0,0.0,0.0,0.0,0.0,0.0,0.0,0.0,0.0,-0.8933,-1.0361,-1.1006,-1.1934,-1.3424,-1.316,-1.2627,-1.2041,0.0,0.0,0.0,0.0,0.0,0.0,-1.2377,-1.3512,-1.5244,-1.6114,-1.6985,-1.7812,-1.8198,-1.8393,-1.8437,-1.8281,-1.8188,-1.8188,-1.8188,-1.7471,-1.624,-1.5674,-1.5,-1.4172,0.0,0.0,0.0,0.0,0.0,0.0,0.0,0.0,0.0,0.0,0.0,0.0,0.0,0.0,0.0,0.0,0.0,0.0,0.0,0.0,0.0,0.0,0.0,0.0,0.0,0.0,0.0,0.0,0.0,0.0,0.0,0.0,0.0,0.0,0.0,-1.5517,-1.579,-1.7139,-1.7793,-1.7239,-1.7582,-1.8047,-1.8633,-1.9336,-2.0166,-2.1172,-2.1504,-2.1797,-2.209,-2.2236,-2.2373,-2.251,-2.2613,-2.3024,-2.3681,-2.3681,-2.4457,-2.5931,-2.6265,-2.706,-2.8169,-2.83,-2.8386,-2.8348,-2.7783,-2.7005,-2.6113,-2.5586,-2.5372,-2.5372,-2.5372,-2.5586,-2.5887,0.0,0.0,0.0,0.0,0.0,0.0,0.0,0.0,0.0,0.0,-0.8125,-0.908,-1.0752,-1.1706,-1.2925,-1.4619,-1.3639,-1.2533,-1.1665,-1.0782,0.0,0.0,0.0,0.0,-1.2272,-1.3936,-1.5253,-1.6153,-1.7014,-1.7822,-1.8588,-1.8188,-1.8477,-1.9248,-1.8792,-1.8607,-1.8617,-1.8607,-1.7896,-1.6775,-1.6726,-1.5946,-1.4746,0.0,0.0,0.0,0.0,0.0,0.0,0.0,0.0,0.0,0.0,0.0,0.0,0.0,0.0,0.0,0.0,0.0,0.0,0.0,0.0,0.0,0.0,0.0,0.0,0.0,0.0,0.0,0.0,0.0,0.0,0.0,0.0,0.0,-1.3643,-1.6191,-1.7764,-1.696,-1.9111,-2.0351,-1.9473,-2.0547,-2.1249,-2.1239,-2.168,-2.21,-2.251,-2.2529,-2.2529,-2.2529,-2.2886,-2.2896,-2.2539,-2.2896,-2.3681,-2.4787,-2.4787,-2.5942,-2.8096,-2.8096,-2.8727,-2.9767,-2.9202,-2.8913,-2.8875,-2.8348,-2.7795,-2.7291,-2.6738,-2.6512,-2.6499,-2.6499,-2.6499,-2.6499,0.0,0.0,0.0,0.0,0.0,0.0,0.0,0.0,0.0,0.0,-0.8616,-0.9824,-1.1252,-1.2441,-1.3441,-1.4221,-1.3437,-1.2533,-1.1665,0.0,0.0,0.0,0.0,0.0,0.0,-1.4541,-1.5664,-1.748,-1.7715,-1.8115,-1.8598,-1.8481,-1.8549,-1.8773,-1.8656,-1.8783,-1.9092,-1.8734,-1.8578,-1.8477,-1.7204,-1.6482,-1.6034,0.0,0.0,0.0,0.0,0.0,0.0,0.0,0.0,0.0,0.0,0.0,0.0,0.0,0.0,0.0,0.0,0.0,0.0,0.0,0.0,0.0,0.0,0.0,0.0,0.0,0.0,0.0,0.0,0.0,0.0,0.0,0.0,-1.6777,-1.6777,-1.8018,-1.9316,-2.0352,-2.1631,-2.2217,-2.168,-2.2185,-2.2448,-2.2146,-2.2516,-2.2799,-2.2916,-2.2925,-2.2925,-2.2925,-2.3033,-2.3042,-2.2925,-2.3033,-2.3681,-2.4787,-2.4787,-2.5942,-2.8096,-2.8096,-2.8727,-2.9779,-2.9628,-2.9553,-2.9478,-2.8511,-2.8009,-2.7821,-2.7268,-2.6851,-2.6499,-2.6499,-2.6499,-2.6499,0.0,0.0,0.0,0.0,0.0,0.0,0.0,0.0,0.0,0.0,-0.8659,-0.9853,-1.1164,-1.2152,-1.3008,-1.3773,-1.292,-1.2054,-1.1359,0.0,0.0,0.0,0.0,0.0,0.0,0.0,-1.6836,-1.8237,-1.8457,-1.8574,-1.8598,-1.8598,-1.8695,-1.887,-1.887,-1.915,-1.9531,-1.9277,-1.9219,-1.9199,-1.8203,-1.7662,-1.736,-1.6094,-1.5596,-1.5469,-1.4414,-1.4365,-1.4648,-1.3721,0.0,0.0,0.0,0.0,0.0,0.0,0.0,0.0,0.0,0.0,0.0,0.0,0.0,0.0,0.0,0.0,0.0,0.0,0.0,0.0,0.0,0.0,0.0,0.0,-1.7754,-1.9121,-2.0039,-2.0439,-2.1152,-2.2519,-2.3115,-2.3389,-2.331,-2.3535,-2.3574,-2.333,-2.3711,-2.3789,-2.3428,-2.3408,-2.3286,-2.3101,-2.3091,-2.3091,-2.3091,-2.3551,-2.4382,-2.5504,-2.5953,-2.7105,-2.8806,-2.8806,-2.9157,-2.9792,-2.9792,-2.9792,-2.9729,-2.8825,-2.831,0.0,0.0,0.0,0.0,0.0,-2.6499,-2.6499,0.0,0.0,0.0,0.0,0.0,0.0,0.0,0.0,0.0,0.0,0.0,-0.9424,-1.0508,-1.1164,-1.1976,-1.3115,-1.2171,-1.1359,0.0,0.0,0.0,0.0,0.0,0.0,0.0,0.0,0.0,-1.8676,-1.9053,-1.9043,-1.8676,-1.8627,-1.8867,-1.9287,-1.9287,-1.9551,-1.999,-1.9932,-1.9727,-1.9424,-1.9375,-1.9092,-1.8549,-1.736,-1.6911,-1.6755,-1.5586,-1.5215,-1.5215,-1.4708,0.0,0.0,0.0,0.0,0.0,0.0,0.0,0.0,0.0,0.0,0.0,0.0,0.0,0.0,0.0,0.0,0.0,0.0,0.0,0.0,0.0,0.0,0.0,0.0,-1.9687,-2.1006,-2.3129,-2.3047,-2.3066,-2.3779,-2.3945,-2.4121,-2.4385,-2.4463,-2.4453,-2.4355,-2.4707,-2.457,-2.376,0.0,0.0,0.0,0.0,-2.3271,-2.3237,-2.4485,-2.5612,-2.6681,-2.7778,-2.8833,-2.988,-2.988,-2.9854,-2.9792,-2.9792,-2.9792,-2.9741,-2.9126,-2.8561,-2.7908,-2.6901,-2.6499,-2.6499,-2.6499,-2.6499,-2.6499,0.0,0.0,0.0,0.0,0.0,0.0,0.0,0.0,0.0,-0.7207,-0.8262,-0.8975,-0.8894,-1.0166,-1.1133,-1.1387,-1.1182,-1.1164,0.0,0.0,0.0,0.0,0.0,0.0,0.0,0.0,0.0,0.0,-1.8896,-1.8896,-1.915,-1.8763,-1.8867,-1.9287,-1.9287,-1.9717,-2.0458,-2.0059,-2.0068,-2.0321,-1.9941,-1.9541,-1.9102,-1.8461,-1.8237,-1.8159,-1.7598,-1.7832,-1.8301,-1.7519,-1.7148,-1.6865,-1.6006,0.0,0.0,0.0,0.0,0.0,0.0,0.0,0.0,0.0,0.0,0.0,0.0,0.0,0.0,0.0,0.0,0.0,0.0,0.0,0.0,-2.0372,-2.1748,-2.3081,-2.4538,-2.4675,-2.4502,-2.4316,-2.4884,-2.5117,-2.4482,-2.4736,-2.4648,-2.3965,-2.3984,-2.3809,-2.3247,-2.3218,-2.3389,-2.3652,-2.4199,-2.4395,-2.416,-2.5935,-2.7086,-2.7648,0.0,0.0,-3.0457,-3.0457,-3.0218,-2.9792,-2.9792,-2.9792,-2.9741,-2.9126,-2.8348,-2.7369,-2.6751,-2.6499,-2.6499,-2.6499,-2.6499,-2.6499,0.0,0.0,0.0,0.0,0.0,0.0,0.0,0.0,0.0,0.0,-0.8027,-0.8691,-0.8691,-0.962,-1.0342,-1.0576,-1.0596,0.0,0.0,0.0,0.0,0.0,0.0,0.0,0.0,0.0,0.0,0.0,-1.9277,-1.9277,-1.9277,-1.9062,-1.9082,-1.9297,-1.9512,-1.9961,-2.0586,-2.0332,-2.04,-2.0586,-2.0322,-2.0117,-1.992,-1.9443,-1.9241,-1.9212,-1.9033,-1.9238,-1.9473,-1.8578,-1.8047,-1.751,-1.6416,-1.5303,-1.4258,0.0,0.0,0.0,0.0,0.0,0.0,0.0,0.0,0.0,0.0,0.0,0.0,0.0,0.0,-1.6475,0.0,0.0,-2.083,-2.2506,-2.3555,-2.4414,-2.5283,-2.54,-2.5322,-2.5098,-2.5273,-2.5322,-2.505,-2.4873,-2.4658,-2.4443,-2.4228,-2.3916,-2.3486,-2.3617,-2.4029,-2.4676,-2.5272,-2.5788,-2.6262,-2.7779,-2.8518,-2.8411,-2.9629,-3.0214,-3.0206,-3.0206,-3.0055,-2.9792,-2.9792,-2.9792,-2.9729,-2.8863,-2.7871,-2.6876,-2.66,-2.6499,-2.6499,-2.6499,-2.6499,-2.6499,0.0,0.0,0.0,0.0,0.0,0.0,0.0,0.0,0.0,0.0,0.0,-0.8297,-0.8369,-0.8889,-0.9455,0.0,0.0,0.0,0.0,0.0,0.0,0.0,0.0,0.0,0.0,0.0,0.0,0.0,0.0,-1.958,-1.9404,-1.9326,-1.9336,-1.9424,-1.9853,-2.0283,-2.0732,-2.0732,-2.0732,-2.0723,-2.0635,-2.0556,-2.0449,-2.0146,-1.999,-1.9893,-1.9727,-1.9609,-1.9463,-1.8909,-1.8252,-1.7471,-1.6572,-1.5996,-1.542,-1.4023,-1.3926,0.0,0.0,0.0,0.0,0.0,0.0,0.0,0.0,0.0,-1.54,-1.6455,-1.7578,-1.8828,-2.0273,-2.1543,-2.2852,-2.4307,-2.4912,-2.5322,-2.5635,-2.5693,-2.5654,-2.5567,-2.5361,-2.5342,-2.5654,-2.501,-2.4687,-2.5086,-2.459,-2.418,-2.3926,-2.4289,-2.4866,-2.566,-2.6408,-2.7261,-2.8172,-2.947,-2.9815,-2.9219,-3.0248,-3.0482,-2.9955,-2.9955,-2.9892,-2.9792,-2.9792,-2.9792,-2.9704,-2.8574,-2.7582,-2.6788,-2.6575,-2.6499,-2.6499,-2.6499,-2.6499,-2.6499,0.0,0.0,0.0,0.0,0.0,0.0,0.0,0.0,0.0,0.0,0.0,0.0,0.0,0.0,0.0,0.0,0.0,0.0,0.0,0.0,0.0,0.0,0.0,0.0,0.0,0.0,0.0,0.0,0.0,-1.9104,-1.9834,-1.9463,-1.9482,-1.9863,-2.0341,-2.0742,-2.1122,-2.1122,-2.1122,-2.1083,-2.0723,-2.0332,-2.0029,-2.0361,-2.0254,-1.9814,-1.9017,-1.851,-1.832,-1.8994,-1.8896,-1.8568,-1.9219,-1.9121,-1.8457,-1.6755,0.0,-1.4336,-1.2593,-1.2272,-1.2954,-1.5253,-1.5263,-1.5703,0.0,0.0,-1.918,-2.082,-2.1572,-2.2119,-2.2738,-2.3525,-2.4326,-2.4902,-2.5371,-2.5635,-2.5684,-2.5693,-2.5586,-2.5195,-2.5449,-2.5635,-2.5684,-2.5293,-2.5057,-2.5106,-2.4316,-2.4004,-2.4336,-2.4598,-2.5138,-2.6009,-2.7725,-2.8592,-2.8533,-3.0326,-3.0901,-3.026,-3.0976,-3.1035,-3.052,-3.052,-3.0256,-2.9792,-2.9792,-2.9792,-2.9704,-2.8574,-2.8034,-2.7821,-2.6876,-2.6499,-2.6499,-2.6499,-2.6499,-2.6499,0.0,0.0,0.0,0.0,0.0,0.0,0.0,0.0,0.0,0.0,0.0,0.0,0.0,0.0,0.0,0.0,0.0,0.0,0.0,0.0,0.0,0.0,0.0,0.0,0.0,0.0,0.0,0.0,0.0,-1.8783,-1.9134,-1.9248,-1.9375,-1.959,-2.0537,-2.1025,-2.121,-2.1504,-2.1465,-2.1181,-2.1025,-2.0684,-2.0254,-1.9941,-1.9551,-1.9056,-1.8461,-1.812,0.0,0.0,-1.7328,-1.7246,-1.7837,-1.7588,-1.6797,-1.5547,-1.501,0.0,-1.4209,-1.4436,0.0,0.0,-1.7305,-1.8555,-2.0107,-2.083,-2.1445,-2.2412,-2.335,-2.4053,-2.4284,-2.4775,-2.5156,0.0,-2.5449,-2.5508,-2.4992,-2.4923,-2.4805,-2.4375,-2.4268,-2.4378,-2.4875,-2.458,-2.4326,-2.4326,-2.3994,-2.4162,-2.5064,-2.5415,-2.6517,-2.8651,-2.9379,-3.0083,-3.0697,-3.1462,-3.1402,-3.0511,-3.0792,-3.0658,-3.0131,-3.0131,-3.0018,-2.9779,-2.944,-2.9114,-2.875,-2.7959,-2.7444,-2.714,-2.6675,-2.6499,-2.6499,-2.6499,-2.6499,-2.6499,0.0,0.0,0.0,0.0,0.0,0.0,0.0,0.0,0.0,0.0,0.0,0.0,0.0,0.0,0.0,0.0,0.0,0.0,0.0,0.0,0.0,0.0,0.0,0.0,0.0,0.0,0.0,0.0,0.0,-1.8549,-1.8783,-1.9014,-1.918,-1.9336,-2.0527,-2.1045,-2.1074,-2.1387,-2.1416,-2.1171,-2.0927,-2.0605,-2.0155,-1.9258,-1.8594,-1.8022,-1.7627,-1.7246,0.0,0.0,-1.5478,-1.5488,-1.6016,-1.581,-1.5235,-1.4504,-1.4365,-1.4551,-1.5088,0.0,0.0,-1.7428,-1.9287,-2.1036,-2.1269,-2.2217,-2.3223,-2.3851,-2.459,-2.5077,-2.4912,-2.5059,-2.5098,-2.4766,-2.499,-2.4962,-2.4492,-2.4316,-2.4092,-2.3662,-2.3232,-2.312,-2.3672,-2.3652,-2.3721,-2.3945,-2.374,-2.4226,-2.5658,-2.6199,-2.7612,-3.0224,-3.0536,-3.11,-3.1989,-3.1838,-3.1386,-3.062,-3.0457,-3.0181,-2.9792,-2.9792,-2.9792,-2.9767,-2.9176,-2.875,-2.8499,-2.7645,-2.7165,-2.6914,-2.6612,-2.6499,-2.6499,-2.6499,-2.6499,-2.6499,0.0,0.0,0.0,0.0,0.0,0.0,0.0,0.0,0.0,0.0,0.0,0.0,0.0,0.0,0.0,0.0,0.0,0.0,0.0,0.0,0.0,0.0,0.0,0.0,0.0,0.0,0.0,0.0,0.0,-1.8457,-1.9258,-1.8812,-1.8841,-1.9326,-2.0233,-2.0625,-2.0625,-2.0635,-2.085,-2.1122,-2.0303,-1.9707,-1.9238,-1.8379,-1.7519,-1.6697,-1.631,0.0,0.0,0.0,-1.389,-1.373,-1.458,-1.5107,0.0,-1.4893,-1.4189,0.0,0.0,0.0,-1.7194,-1.926,-2.084,-2.2383,-2.4489,-2.4629,-2.4727,-2.6025,-2.5635,-2.4941,-2.4521,-2.4111,-2.3848,-2.3828,-2.3838,-2.3984,-2.4365,-2.4062,-2.3652,-2.3276,-2.2793,-2.2383,0.0,-2.2748,-2.3525,-2.4336,-2.3578,-2.3993,-2.5996,-2.6845,-2.8011,-2.9581,-3.077,-3.137,-3.1411,-3.0922,-3.0645,-3.0608,-3.0068,-2.9817,-2.9792,-2.9792,-2.9792,-2.9767,-2.9176,-2.9239,-2.9616,-2.7959,-2.7595,-2.7946,-2.6914,-2.6499,-2.6499,-2.6499,-2.6499,-2.6499,0.0,0.0,0.0,0.0,0.0,0.0,0.0,0.0,0.0,0.0,0.0,0.0,0.0,0.0,0.0,0.0,0.0,0.0,0.0,0.0,0.0,0.0,0.0,0.0,0.0,0.0,0.0,0.0,0.0,-1.7272,-1.7564,-1.7734,-1.8027,-1.8477,-1.9336,-2.0067,-2.0605,-2.0605,-2.082,-2.1064,-1.9621,-1.8948,-1.8662,-1.6943,-1.5722,-1.4855,0.0,0.0,0.0,0.0,0.0,0.0,-1.3267,0.0,0.0,-1.3047,-1.3691,-1.4668,0.0,0.0,-1.9658,-2.124,-2.2607,-2.3828,-2.4844,-2.541,-2.5596,-2.5166,-2.4619,-2.3916,-2.292,-2.2627,-2.2432,-2.2139,-2.3047,-2.3545,-2.2832,-2.3096,-2.2988,-2.2002,-2.1707,0.0,0.0,0.0,0.0,-2.418,-2.4264,-2.5317,-2.7827,-2.8499,-2.9599,-3.1262,-3.1356,-3.1386,-3.1386,-3.0871,-3.0432,-3.0068,-2.988,-2.9792,-2.9792,-2.9792,-2.9792,-2.9767,-2.9176,-2.9001,-2.9076,-2.7821,-2.7394,-2.7494,-2.6788,-2.6499,-2.6499,-2.6499,-2.6499,-2.6499,0.0,0.0,0.0,0.0,0.0,0.0,0.0,0.0,0.0,0.0,0.0,0.0,0.0,0.0,0.0,0.0,0.0,0.0,0.0,0.0,0.0,0.0,0.0,0.0,0.0,0.0,0.0,0.0,0.0,0.0,-1.5781,-1.6094,-1.6367,-1.6629,-1.7363,-1.8066,-1.8746,-1.8599,-1.875,-1.9007,-1.774,-1.7135,-1.6814,-1.5156,-1.4046,0.0,0.0,0.0,0.0,0.0,0.0,0.0,0.0,-1.2132,-1.2171,-1.271,-1.4104,-1.5889,0.0,-1.9853,-2.1758,-2.291,-2.416,-2.5195,-2.5527,-2.5615,-2.5439,-2.459,-2.3467,-2.2295,-2.1162,-2.0459,-2.0098,-2.0245,-2.123,-2.1934,-2.1894,-2.2217,-2.2223,-2.1707,-2.1385,-2.1259,0.0,0.0,0.0,-2.3802,-2.5007,-2.6565,-2.8502,-2.9451,-3.0671,-3.216,-3.1675,-3.1386,-3.1386,-3.0683,-3.0143,-2.9792,-2.9792,-2.9792,-2.9792,-2.9792,-2.9792,-2.9767,-2.9176,-2.8888,-2.8813,-2.7733,-2.7281,-2.7266,-2.6713,-2.6499,-2.6499,-2.6499,-2.6499,-2.6499,0.0,0.0,0.0,0.0,0.0,0.0,0.0,0.0,0.0,0.0,0.0,0.0,0.0,0.0,0.0,0.0,0.0,0.0,0.0,0.0,0.0,0.0,0.0,0.0,0.0,0.0,0.0,0.0,0.0,0.0,-1.4062,-1.4089,-1.4099,-1.4121,-1.4559,-1.4989,-1.5352,-1.4932,-1.501,-1.5371,-1.4883,-1.4453,-1.3977,-1.3115,0.0,0.0,0.0,0.0,0.0,0.0,0.0,0.0,0.0,0.0,-1.3184,-1.4016,-1.5517,-1.735,-1.9446,-2.158,-2.3422,-2.4248,-2.543,-2.6367,-2.6279,-2.5283,-2.4346,-2.4219,-2.2187,-2.0194,0.0,0.0,-1.7106,-1.8334,-1.8646,-1.9455,-2.1562,-2.1553,-2.158,0.0,0.0,0.0,0.0,0.0,0.0,-2.3556,0.0,-2.7614,-2.8231,-2.9798,-3.1162,-3.2173,-3.17,-3.1436,-3.1436,-3.0369,-2.9817,-2.9792,-2.9792,-2.9792,-2.9792,-2.9792,-2.9792,-2.9767,-2.9176,-2.8913,-2.8813,-2.777,-2.7306,-2.7266,-2.6713,-2.6499,-2.6499,-2.6499,-2.6499,-2.6499,0.0,0.0,0.0,0.0,0.0,0.0,0.0,0.0,0.0,0.0,0.0,0.0,0.0,0.0,0.0,0.0,0.0,0.0,0.0,0.0,0.0,0.0,0.0,0.0,0.0,0.0,0.0,0.0,0.0,0.0,-1.3742,-1.409,-1.4219,0.0,-1.4292,-1.4577,-1.4912,-1.4482,-1.4699,-1.5293,0.0,-1.3486,-1.3496,0.0,0.0,0.0,0.0,0.0,0.0,0.0,0.0,0.0,0.0,0.0,-1.5,-1.6201,-1.7998,-1.9922,-2.1435,-2.3383,-2.5001,-2.4932,-2.5654,-2.6045,-2.4746,-2.4189,-2.3398,-2.1465,-1.9785,-1.8203,0.0,0.0,0.0,-1.7598,-1.9316,0.0,-2.1288,-2.2087,0.0,0.0,0.0,-2.3028,-2.4126,-2.5514,0.0,0.0,-2.7671,-2.8798,-3.0465,-3.1323,-3.1908,-3.2173,-3.2077,-3.2001,-3.2001,-3.0934,-3.0193,-2.9792,-2.9792,-2.9792,-2.9792,-2.9792,-2.9792,-2.9779,-2.9641,-2.9327,-2.8838,-2.8185,-2.7657,-2.7266,-2.6713,-2.6499,-2.6499,-2.6499,-2.6499,-2.6499,0.0,0.0,0.0,0.0,0.0,0.0,0.0,0.0,0.0,0.0,0.0,0.0,0.0,0.0,0.0,0.0,0.0,0.0,0.0,0.0,0.0,0.0,0.0,0.0,0.0,0.0,0.0,0.0,0.0,0.0,0.0,-1.2191,-1.2309,-1.2428,-1.207,-1.235,-1.3047,0.0,0.0,0.0,0.0,0.0,0.0,0.0,0.0,0.0,0.0,0.0,0.0,0.0,0.0,-1.3857,-1.4668,-1.5928,-1.7334,-1.8492,0.0,-2.2034,-2.3281,-2.4805,-2.5957,-2.5713,-2.5732,-2.54,-2.3857,-2.2764,-2.1465,-1.9258,-1.7627,0.0,0.0,0.0,0.0,0.0,0.0,0.0,-2.1309,-2.2139,-2.2705,0.0,-2.3281,0.0,-2.5145,-2.6679,-2.8057,0.0,-2.9731,-3.0433,-3.1373,-3.2152,-3.2591,-3.2591,-3.234,-3.2102,-3.1851,-3.1035,-3.0457,-3.0156,-2.9905,-2.9792,-2.9792,-2.9792,-2.9792,-2.9792,-2.9792,-2.9327,-2.8549,-2.8235,-2.7645,-2.6927,-2.6612,-2.6499,-2.6499,-2.6499,-2.6499,-2.6499,0.0,0.0,0.0,0.0,0.0,0.0,0.0,0.0,0.0,0.0,0.0,0.0,0.0,0.0,0.0,0.0,0.0,0.0,0.0,0.0,0.0,0.0,0.0,0.0,0.0,0.0,0.0,0.0,0.0,0.0,0.0,0.0,0.0,0.0,0.0,0.0,0.0,0.0,0.0,0.0,0.0,0.0,0.0,0.0,0.0,0.0,0.0,0.0,0.0,0.0,-1.4375,-1.5371,-1.6697,-1.8291,-1.9814,-2.0762,-2.2141,-2.3628,-2.4793,-2.5713,-2.6357,-2.625,-2.5635,-2.4678,-2.3169,-2.122,-1.9228,-1.7412,0.0,-1.418,-1.3008,0.0,-1.3545,-1.5303,0.0,-1.81,-2.1426,-2.1934,-2.2441,-2.3721,-2.4047,-2.464,-2.5995,-2.7469,-2.9054,-3.0805,-3.1796,-3.2114,-3.1637,-3.2541,-3.3124,-3.3124,-3.2591,-3.2064,-3.1499,-3.0984,-3.0683,-3.0608,-3.0055,-2.9792,-2.9792,-2.9792,-2.9792,-2.9792,-2.9792,-2.9189,-2.821,-2.8134,-2.7494,-2.66,-2.6524,-2.6499,-2.6499,-2.6499,-2.6555,-2.6658,0.0,0.0,0.0,0.0,0.0,0.0,0.0,0.0,0.0,0.0,-0.5837,-0.5852,0.0,0.0,0.0,0.0,0.0,0.0,0.0,0.0,0.0,0.0,0.0,0.0,0.0,0.0,0.0,0.0,0.0,0.0,0.0,0.0,0.0,0.0,0.0,0.0,0.0,0.0,0.0,0.0,0.0,0.0,0.0,0.0,0.0,0.0,0.0,0.0,0.0,0.0,-1.5908,-1.7217,-1.8848,-2.0312,-2.167,-2.2881,-2.3691,-2.4326,-2.4912,-2.5713,-2.6211,-2.5527,-2.5233,-2.4453,-2.21,-2.0128,0.0,0.0,0.0,-1.3037,-1.2428,-1.2895,0.0,-1.6132,0.0,0.0,0.0,0.0,-2.2881,0.0,0.0,0.0,0.0,0.0,0.0,0.0,0.0,-3.288,-3.2792,-3.3011,-3.3124,-3.3124,-3.298,-3.2654,-3.2077,-3.1524,-3.1035,-3.0608,-3.0055,-2.9792,-2.9792,-2.9792,-2.9792,-2.9792,-2.9792,0.0,-2.8712,-2.8298,-2.772,-2.7128,-2.6675,-2.6499,-2.6499,-2.6499,-2.6905,-2.7484,0.0,0.0,0.0,0.0,0.0,0.0,0.0,-0.6098,-0.6207,-0.6079,-0.6061,-0.5916,-0.5528,-0.5827,0.0,0.0,0.0,0.0,0.0,0.0,0.0,0.0,0.0,0.0,0.0,0.0,0.0,0.0,0.0,0.0,0.0,0.0,0.0,0.0,0.0,0.0,0.0,0.0,0.0,0.0,0.0,0.0,0.0,0.0,0.0,0.0,0.0,0.0,0.0,0.0,-1.5283,-1.7181,-1.9775,-2.1504,-2.2758,-2.3545,-2.4248,-2.4902,-2.5576,-2.6064,-2.623,-2.5586,-2.4736,-2.3389,-2.081,0.0,0.0,0.0,0.0,-1.2015,-1.1338,0.0,0.0,0.0,0.0,0.0,0.0,0.0,0.0,0.0,0.0,0.0,0.0,0.0,0.0,0.0,0.0,-3.3124,-3.3124,-3.3124,-3.3124,-3.3124,-3.3124,-3.2943,-3.2667,-3.1813,-3.126,-3.1009,-3.0181,-2.9792,-2.9792,-2.9792,-2.9792,-2.9779,-2.9478,-2.9026,-2.8461,-2.7908,-2.7392,-2.6864,-2.66,-2.6499,-2.6499,-2.6499,-2.6748,-2.7129,0.0,0.0,0.0,0.0,0.0,0.0,0.0,-0.6138,-0.6509,-0.6236,-0.6198,-0.5957,-0.5338,-0.565,-0.5837,0.0,0.0,0.0,0.0,0.0,0.0,0.0,0.0,0.0,0.0,0.0,0.0,0.0,0.0,0.0,0.0,0.0,0.0,0.0,0.0,0.0,0.0,0.0,0.0,0.0,0.0,0.0,0.0,0.0,0.0,0.0,0.0,0.0,0.0,0.0,-1.4021,-1.5948,-1.9014,-2.126,-2.2836,-2.3027,-2.3965,-2.5078,-2.5781,-2.6103,-2.6143,-2.5703,-2.4241,-2.2311,-1.9853,-1.7207,0.0,0.0,-1.1728,-1.1175,-1.0665,0.0,0.0,0.0,0.0,0.0,0.0,0.0,0.0,0.0,0.0,0.0,0.0,0.0,0.0,0.0,0.0,-3.2943,-3.3111,-3.3124,-3.3124,-3.3124,-3.3124,-3.3124,-3.3124,-3.1951,-3.1386,-3.1373,-3.0306,-2.9792,-2.9792,-2.9792,-2.9729,-2.9578,-2.9126,-2.8612,-2.8059,-2.7507,-2.7065,-2.6663,-2.6537,-2.6499,-2.6499,-2.6499,-2.6714,-2.7129,0.0,0.0,0.0,0.0,0.0,0.0,0.0,-0.601,-0.6509,-0.6236,-0.6198,-0.6103,-0.5854,-0.5863,-0.5964,0.0,0.0,0.0,0.0,0.0,0.0,0.0,0.0,0.0,0.0,0.0,0.0,0.0,0.0,0.0,0.0,0.0,0.0,0.0,0.0,0.0,0.0,0.0,0.0,0.0,0.0,0.0,0.0,0.0,0.0,0.0,0.0,0.0,0.0,0.0,0.0,-1.3522,-1.5361,-1.8432,-2.1338,-2.0967,0.0,0.0,-2.457,-2.5185,-2.5693,-2.5244,-2.3838,-2.1992,-1.9785,0.0,0.0,0.0,-1.125,-1.0635,-1.1361,-1.1616,0.0,0.0,0.0,0.0,0.0,0.0,0.0,0.0,0.0,0.0,0.0,0.0,0.0,0.0,0.0,-3.2516,-3.3056,-3.3124,-3.3124,-3.3124,-3.3124,-3.3124,-3.3124,-3.1951,-3.1386,-3.1373,-3.0306,-2.9792,-2.9792,-2.9792,-2.9503,-2.8963,-2.8913,-2.8612,0.0,-2.7507,-2.7291,-2.719,-2.6688,-2.6499,-2.6499,-2.6499,-2.7451,-2.878,0.0,0.0,0.0,0.0,0.0,0.0,-0.5154,-0.6023,-0.6564,-0.6453,-0.6298,-0.6227,-0.6316,-0.6075,-0.5927,0.0,0.0,0.0,0.0,0.0,0.0,0.0,0.0,0.0,0.0,0.0,0.0,0.0,0.0,0.0,0.0,0.0,0.0,0.0,0.0,0.0,0.0,0.0,0.0,0.0,0.0,0.0,0.0,0.0,0.0,0.0,0.0,0.0,0.0,0.0,0.0,0.0,-1.2299,-1.4463,0.0,0.0,-2.0928,-2.2441,-2.3994,-2.5021,-2.5518,-2.4853,-2.3584,-2.1807,-1.9131,0.0,0.0,-1.2178,-1.1027,-1.041,-1.0753,-1.1538,-1.2424,0.0,0.0,0.0,0.0,0.0,0.0,0.0,0.0,0.0,0.0,0.0,0.0,0.0,0.0,-3.2315,-3.2541,-3.288,-3.3124,-3.3124,-3.3124,-3.2918,-3.2554,-3.2114,-3.1562,-3.0922,-3.0495,-3.0118,-2.9792,-2.9792,-2.9666,-2.9415,-2.8737,-2.831,0.0,-2.719,-2.6826,-2.6801,-2.6575,-2.6816,-2.7229,-2.7229,-2.7986,-2.9097,0.0,0.0,0.0,0.0,0.0,-0.4717,-0.5087,-0.5977,-0.6599,-0.6599,-0.6436,-0.6388,-0.6582,-0.6085,-0.5748,-0.5748,0.0,0.0,0.0,0.0,0.0,0.0,0.0,0.0,0.0,0.0,-0.8046,-0.7952,-0.844,0.0,0.0,0.0,0.0,0.0,0.0,0.0,0.0,0.0,0.0,0.0,0.0,0.0,0.0,0.0,0.0,0.0,0.0,0.0,0.0,0.0,0.0,0.0,0.0,0.0,0.0,0.0,-1.8756,-2.0625,-2.2402,-2.4132,-2.5149,-2.4088,-2.2899,-2.1243,0.0,0.0,-1.335,-1.191,-1.0899,-1.0381,-1.0656,-1.1696,-1.2595,0.0,0.0,0.0,0.0,0.0,0.0,0.0,0.0,0.0,0.0,0.0,0.0,0.0,0.0,-3.1964,-3.1964,-3.2516,-3.2817,-3.2817,-3.2667,-3.2378,-3.1976,-3.1825,-3.1361,-3.062,-3.0457,-3.0168,-2.9792,-2.9792,-2.9616,-2.9252,-2.8448,-2.7921,0.0,-2.6813,-2.6658,-2.685,-2.685,-2.7351,-2.8084,-2.8084,-2.8652,-2.9473,0.0,0.0,0.0,0.0,0.0,0.0,0.0,-0.5831,-0.6599,-0.6599,-0.6599,-0.6599,-0.6599,-0.5893,-0.5403,-0.5403,0.0,0.0,0.0,0.0,0.0,0.0,0.0,0.0,0.0,0.0,-0.7109,-0.7109,-0.7515,-0.7914,-0.8305,-0.8305,0.0,0.0,0.0,0.0,0.0,0.0,0.0,0.0,0.0,0.0,0.0,0.0,0.0,0.0,0.0,0.0,0.0,0.0,0.0,0.0,0.0,0.0,0.0,0.0,-1.5997,-1.9307,-1.9336,-2.1947,-2.4277,-2.2883,-2.1673,-2.0219,0.0,0.0,-1.2661,-1.1792,-1.0899,-1.0577,-1.1508,-1.2131,-1.2808,-1.3728,-1.5289,0.0,0.0,0.0,0.0,0.0,0.0,0.0,0.0,0.0,0.0,0.0,-3.1712,0.0,-3.1399,-3.1926,-3.2227,-3.2227,-3.1687,-3.1399,-3.1399,-3.0884,-3.062,-3.0608,-3.0068,-2.9804,-2.9792,-2.9792,-2.9176,-2.8122,-2.8109,-2.7494,0.0,-2.6499,-2.6973,-2.7703,-2.7703,-2.8214,-2.9002,-2.9002,-2.9535,-3.0299,0.0,0.0,0.0,0.0,0.0,0.0,0.0,-0.604,-0.5913,-0.5551,-0.535,-0.5306,-0.5479,-0.5041,-0.475,-0.4847,0.0,0.0,0.0,0.0,0.0,0.0,0.0,0.0,0.0,0.0,-0.6787,-0.71,-0.7505,-0.7768,-0.7889,-0.7889,-0.7947,-0.8052,0.0,0.0,0.0,0.0,0.0,0.0,0.0,0.0,0.0,0.0,0.0,0.0,0.0,0.0,0.0,0.0,0.0,0.0,0.0,0.0,0.0,0.0,0.0,0.0,-1.756,-1.9076,-2.0134,-2.0005,-1.8794,-1.7306,-1.5987,-1.4028,-1.224,-1.1315,-1.1233,-1.1298,-1.1227,-1.2216,-1.3408,-1.4474,-1.5026,0.0,0.0,0.0,0.0,0.0,0.0,0.0,0.0,0.0,0.0,0.0,-3.2051,-3.1788,-3.1411,-3.1223,-3.1461,-3.219,-3.2039,-3.1763,-3.1386,-3.1223,-3.0783,-3.0055,-3.0256,-3.0156,-2.9792,-2.9792,-2.9377,-2.8612,-2.8273,-2.7695,-2.7062,-2.7228,-2.7484,-2.7769,-2.8363,-2.9129,-2.9889,-2.9889,-3.0419,-3.1117,0.0,0.0,0.0,0.0,0.0,0.0,0.0,-0.6152,-0.5682,-0.5344,-0.4984,-0.4809,-0.4984,-0.457,-0.4312,-0.4367,0.0,0.0,0.0,0.0,0.0,0.0,0.0,0.0,0.0,-0.6047,-0.6387,-0.6836,-0.7262,-0.754,-0.7695,-0.7695,-0.7695,-0.771,-0.7971,0.0,0.0,0.0,0.0,0.0,0.0,0.0,-0.8546,0.0,0.0,0.0,0.0,0.0,0.0,0.0,0.0,0.0,0.0,0.0,0.0,0.0,-1.1229,0.0,0.0,-1.6978,-1.8091,-1.7588,-1.6722,0.0,0.0,-1.3144,-1.1878,-1.1308,-1.1518,-1.1756,-1.1597,-1.2673,-1.3898,-1.4813,-1.5414,0.0,0.0,0.0,0.0,0.0,0.0,0.0,0.0,0.0,0.0,0.0,-3.2139,-3.175,-3.1411,-3.0896,-3.0922,-3.1587,-3.1411,-3.1135,-3.0796,-3.0783,-3.0444,-2.9792,-2.9917,-2.9765,-2.9453,-2.9252,-2.885,-2.8285,-2.7946,-2.7683,0.0,-2.7628,-2.8084,-2.8716,-2.9286,-3.0011,-3.0748,-3.0748,-3.1058,-3.1511,0.0,0.0,0.0,0.0,0.0,0.0,0.0,0.0,-0.5732,-0.5682,-0.5218,-0.4871,-0.4871,-0.4369,-0.4009,-0.3943,0.0,0.0,0.0,0.0,0.0,0.0,0.0,0.0,0.0,-0.5586,-0.6027,-0.6394,-0.6904,-0.733,-0.7695,-0.7725,-0.7725,-0.7695,-0.7725,-0.7725,-0.7734,-0.8136,-0.8757,-0.9396,-0.8578,-0.8557,0.0,0.0,0.0,0.0,0.0,0.0,0.0,0.0,0.0,0.0,0.0,0.0,0.0,0.0,0.0,0.0,0.0,0.0,0.0,0.0,0.0,0.0,0.0,-1.2392,0.0,-1.1683,-1.1804,-1.2023,-1.2484,-1.3404,-1.4295,-1.4906,-1.6355,0.0,0.0,0.0,0.0,0.0,0.0,0.0,0.0,0.0,0.0,-3.3011,-3.2014,-3.1411,-3.1336,-3.0871,-3.0595,-3.0557,-3.0055,-2.9792,-2.9792,-2.9792,-2.9754,-2.9666,-2.9164,-2.8875,-2.8813,-2.8335,-2.7808,0.0,-2.7339,-2.7533,-2.7703,-2.7835,-2.8844,-3.0299,-3.0359,-3.0837,-3.1511,-3.1511,-3.1511,-3.1511,0.0,0.0,0.0,0.0,0.0,0.0,0.0,0.0,0.0,0.0,-0.4028,-0.3698,-0.3698,-0.3481,-0.3324,0.0,0.0,0.0,0.0,0.0,0.0,0.0,0.0,0.0,0.0,-0.5858,-0.6309,-0.6394,-0.7184,-0.7598,-0.7705,-0.8066,-0.8047,-0.7715,-0.8076,-0.8037,-0.7729,-0.8183,-0.8284,-0.8132,-0.7914,-0.7915,0.0,0.0,0.0,0.0,-0.8975,-0.926,0.0,0.0,0.0,0.0,0.0,0.0,0.0,0.0,-1.0303,-1.1132,-1.1381,0.0,-1.3773,-1.3222,0.0,0.0,0.0,0.0,0.0,0.0,0.0,0.0,0.0,-1.3661,-1.4543,0.0,0.0,0.0,0.0,0.0,0.0,0.0,0.0,0.0,0.0,0.0,0.0,-3.1851,-3.1926,-3.1662,-3.0834,-3.0683,-3.0419,-2.9993,-2.9867,-2.9792,-2.9792,-2.9792,-2.9365,-2.8499,-2.875,-2.8675,-2.8298,-2.816,-2.7808,-2.7352,-2.7954,-2.8014,-2.7802,-2.9129,-2.9919,-3.0359,-3.097,-3.1322,-3.1511,-3.1511,-3.1511,-3.1511,0.0,0.0,0.0,0.0,0.0,0.0,0.0,0.0,0.0,0.0,0.0,0.0,0.0,0.0,0.0,0.0,0.0,0.0,0.0,0.0,0.0,0.0,0.0,0.0,-0.541,-0.5879,-0.6318,-0.6729,-0.7193,-0.7622,-0.8027,-0.8287,-0.8268,-0.8027,-0.8066,-0.7934,-0.7715,-0.7963,-0.7924,-0.7695,-0.7695,0.0,0.0,0.0,0.0,0.0,-0.9201,-0.9416,0.0,-0.9396,-0.9299,-0.9211,0.0,0.0,0.0,0.0,-1.0159,-1.0812,-1.092,-1.2079,-1.3105,-1.2584,-1.2046,-1.1725,0.0,0.0,0.0,0.0,0.0,0.0,0.0,0.0,0.0,0.0,0.0,0.0,0.0,0.0,0.0,0.0,0.0,0.0,0.0,0.0,-3.2428,-3.1813,-3.1587,-3.1223,-3.0645,-3.0382,-3.0093,-2.9804,-2.9792,-2.9792,-2.9792,-2.9528,-2.9089,-2.8449,-2.8273,-2.8214,-2.8264,-2.802,-2.798,-2.8097,-2.8538,-2.8809,-2.8971,-2.9919,-3.0524,-3.0896,-3.1322,-3.1511,-3.1511,-3.1511,-3.1511,-3.1511,0.0,0.0,0.0,0.0,0.0,0.0,0.0,0.0,0.0,0.0,0.0,0.0,0.0,0.0,0.0,0.0,0.0,0.0,0.0,0.0,0.0,0.0,0.0,-0.4971,-0.5783,-0.5862,-0.6291,-0.71,-0.7168,-0.7607,-0.8395,-0.8463,-0.8493,-0.8463,-0.7934,-0.7695,-0.7705,-0.7773,-0.7768,-0.7705,-0.7837,0.0,0.0,0.0,0.0,0.0,0.0,0.0,0.0,-0.9133,-0.9231,-0.9377,-0.8639,0.0,0.0,0.0,0.0,0.0,-1.1004,-1.2651,-1.3918,-1.2672,-1.2442,-1.2539,0.0,0.0,0.0,0.0,0.0,0.0,0.0,0.0,0.0,0.0,0.0,0.0,0.0,0.0,0.0,0.0,0.0,0.0,0.0,-3.2014,-3.2114,-3.1863,-3.1085,-3.0583,-3.0495,-2.9967,-2.9666,-2.9666,-2.9578,-2.9528,-2.9528,-2.924,-2.8974,-2.8709,-2.8028,-2.8019,-2.8564,-2.81,-2.8298,-2.9002,-2.9129,0.0,-3.0299,-3.0419,-3.0866,-3.1511,-3.1511,-3.1511,-3.1511,-3.1511,-3.1511,-3.1511,0.0,0.0,0.0,0.0,0.0,0.0,0.0,0.0,0.0,0.0,0.0,0.0,0.0,0.0,0.0,0.0,0.0,0.0,0.0,0.0,0.0,0.0,-0.5001,-0.5254,-0.5793,-0.6135,-0.6572,-0.71,-0.7447,-0.7876,-0.8404,-0.874,-0.8906,-0.8877,-0.8071,-0.7695,-0.7725,-0.8125,-0.8066,-0.7754,-0.844,0.0,0.0,0.0,0.0,0.0,0.0,0.0,0.0,-0.9133,-0.9036,-0.9014,-0.8551,0.0,0.0,0.0,0.0,0.0,-1.1931,-1.3484,-1.4293,-1.2248,-1.2414,-1.3081,0.0,0.0,0.0,0.0,0.0,0.0,0.0,0.0,0.0,0.0,0.0,0.0,0.0,0.0,0.0,0.0,0.0,0.0,-2.9602,-3.1122,-3.165,-3.0269,-3.0444,-3.0407,-2.9942,-2.9377,-2.9026,-2.9026,-2.8612,-2.836,-2.836,-2.9462,-2.9278,-2.791,-2.8939,-2.9247,-2.8935,-2.8853,-2.8876,-2.9034,0.0,-3.0178,-3.0359,-3.1029,-3.138,-3.1511,-3.1511,-3.1511,-3.1511,-3.1511,-3.1511,-3.1511,0.0,0.0,0.0,0.0,0.0,0.0,0.0,0.0,0.0,0.0,0.0,0.0,0.0,0.0,0.0,0.0,0.0,0.0,0.0,0.0,0.0,-0.4766,-0.5224,-0.5684,-0.6113,-0.6309,-0.6735,-0.7427,-0.7828,-0.8252,-0.8673,-0.886,-0.8968,-0.8965,-0.81,-0.7973,-0.8418,-0.8678,-0.8777,-0.8844,0.0,0.0,0.0,0.0,0.0,0.0,0.0,0.0,0.0,0.0,-0.9316,-0.9634,-0.9224,0.0,0.0,0.0,0.0,0.0,-1.1432,-1.2571,-1.3343,-1.2302,-1.3082,-1.4199,0.0,0.0,0.0,0.0,0.0,0.0,0.0,0.0,0.0,0.0,0.0,0.0,0.0,0.0,0.0,0.0,0.0,-3.0683,-3.0294,-3.0922,-3.0922,-2.9867,-2.9741,-2.9465,-2.8913,-2.8637,-2.8486,-2.8486,-2.8684,-2.8663,-2.8305,-2.9882,-2.9834,-2.8138,-2.8498,-2.9008,-2.969,-2.969,-2.995,-3.0359,-3.0777,-3.097,-3.097,-3.1351,-3.1511,-3.1511,-3.1511,-3.1511,-3.1511,-3.1511,-3.1511,-3.1511,0.0,0.0,0.0,0.0,0.0,0.0,0.0,0.0,0.0,0.0,0.0,0.0,0.0,0.0,0.0,0.0,0.0,0.0,0.0,0.0,-0.4781,-0.4736,-0.5421,-0.5988,-0.6396,-0.6514,-0.693,-0.7695,-0.8004,-0.8375,-0.8777,-0.8777,-0.8814,-0.8828,-0.8051,-0.8191,-0.9027,-0.9187,-0.9488,-0.9934,0.0,0.0,0.0,0.0,0.0,0.0,0.0,0.0,0.0,0.0,0.0,0.0,0.0,0.0,0.0,-1.1665,-1.1628,-1.125,-1.1196,-1.1912,-1.2581,-1.2294,0.0,0.0,-1.5982,0.0,0.0,0.0,0.0,0.0,0.0,0.0,0.0,0.0,0.0,0.0,0.0,0.0,0.0,0.0,-2.9314,-2.9854,-3.0733,-3.057,-3.0131,-2.9453,-2.8988,-2.8512,-2.8134,-2.814,-2.8208,-2.8208,-2.8926,-2.9091,-2.8625,-2.9937,-3.0033,-2.8931,-2.8695,-2.9286,-3.0584,-3.0584,-3.0925,-3.1511,-3.1511,-3.1511,-3.1511,-3.1511,-3.1511,-3.1511,-3.1511,-3.1511,-3.1481,-3.1316,-3.1376,-3.1481,0.0,0.0,0.0,0.0,0.0,0.0,0.0,0.0,0.0,0.0,0.0,0.0,0.0,0.0,0.0,0.0,0.0,0.0,0.0,0.0,-0.5181,-0.541,-0.5673,-0.5988,-0.6396,-0.6826,-0.7262,-0.7695,-0.7725,-0.7979,-0.8442,-0.8442,-0.8436,-0.8414,-0.7915,-0.8218,-0.9123,-0.9499,-0.9956,-1.0512,-1.131,0.0,0.0,0.0,0.0,0.0,0.0,0.0,0.0,0.0,0.0,0.0,0.0,0.0,-1.0662,-1.2041,-1.2128,-1.1828,-1.2192,-1.2714,-1.2914,-1.1914,0.0,0.0,-1.7187,0.0,0.0,0.0,0.0,0.0,0.0,0.0,0.0,0.0,0.0,0.0,0.0,0.0,0.0,-2.9779,-3.0608,-3.0658,-2.9201,-2.9553,-2.9402,-2.831,-2.8185,-2.8147,-2.8109,-2.8324,-2.8484,-2.8484,-2.8833,-2.9017,-2.8962,-2.9103,-2.9498,-3.0174,-3.0896,-3.1278,-3.1409,-3.1409,-3.1438,-3.1511,-3.1511,-3.1511,-3.1511,-3.1511,-3.1511,-3.1511,-3.1511,-3.1511,-3.1421,-3.0806,-3.0957,-3.1406,0.0,0.0,0.0,0.0,0.0,0.0,0.0,0.0,0.0,0.0,0.0,0.0,0.0,0.0,0.0,0.0,0.0,0.0,0.0,0.0,-0.5217,-0.5491,-0.5693,-0.5872,-0.6027,-0.6613,-0.691,-0.6891,-0.7394,-0.7994,-0.8648,-0.8435,-0.85,-0.8767,-0.8638,-0.9208,-1.0302,-1.0799,-1.1289,-1.1801,-1.2397,-1.255,0.0,0.0,0.0,0.0,0.0,0.0,0.0,0.0,-1.0505,-1.1225,0.0,-1.1387,-1.1878,-1.2695,-1.2579,-1.2123,-1.1958,-1.2287,-1.2613,-1.2203,0.0,0.0,0.0,0.0,0.0,0.0,0.0,0.0,0.0,0.0,0.0,0.0,0.0,0.0,0.0,0.0,-2.9452,-2.9239,-2.9315,-2.9101,-2.8473,-2.8612,-2.8423,-2.7657,-2.7595,-2.7444,-2.714,-2.7691,-2.8006,-2.8006,-2.9176,-2.9827,-2.9827,-3.0299,-3.0718,-3.1029,-3.0837,-3.1029,-3.1511,-3.1511,-3.1511,-3.1511,-3.1511,-3.1511,-3.1511,-3.1511,-3.1511,-3.1511,-3.1511,-3.1241,-3.0866,-3.0597,-3.0417,-3.0283,0.0,0.0,0.0,0.0,0.0,0.0,0.0,0.0,0.0,0.0,0.0,0.0,0.0,0.0,0.0,0.0,0.0,0.0,-0.6135,-0.5668,-0.5406,-0.5501,-0.5776,-0.5863,-0.5712,-0.6443,-0.6725,-0.6525,-0.7333,-0.8097,-0.8803,-0.8565,-0.8719,-0.9197,-0.9238,-1.0005,-1.1278,-1.1634,-1.2157,-1.2738,-1.3064,-1.3198,0.0,0.0,0.0,0.0,0.0,0.0,0.0,0.0,-1.1086,0.0,0.0,0.0,0.0,0.0,-1.2935,-1.2538,-1.2002,-1.2128,-1.24,0.0,0.0,0.0,0.0,0.0,0.0,0.0,0.0,0.0,0.0,0.0,0.0,0.0,0.0,0.0,0.0,0.0,-2.8662,-2.8662,-2.8335,-2.8034,-2.7858,-2.7846,-2.762,-2.7102,-2.7052,-2.6889,-2.6512,-2.7517,-2.8117,-2.8117,-2.9797,-3.0571,-3.0367,-3.1115,-3.1301,-3.0898,-3.0558,-3.0764,-3.1511,-3.1511,-3.1511,-3.1511,-3.1511,-3.1511,-3.1481,-3.1271,-3.1182,-3.1167,-3.0957,-3.0746,-3.0447,-3.0058,-2.9759,-2.9577,0.0,0.0,0.0,0.0,0.0,0.0,0.0,0.0,0.0,0.0,0.0,0.0,0.0,0.0,0.0,0.0,0.0,0.0,-0.6215,-0.6016,-0.5782,-0.5521,-0.5951,-0.5972,-0.5512,-0.6425,-0.6878,-0.68,-0.7608,-0.8272,-0.8792,-0.8803,-0.9099,-0.96,-0.9615,-1.0417,-1.1807,-1.1807,-1.2338,-1.3198,-1.3198,-1.3198,-1.3198,0.0,0.0,0.0,0.0,0.0,0.0,0.0,-1.2192,0.0,0.0,0.0,0.0,-1.3064,-1.3185,-1.309,-1.2538,-1.24,0.0,0.0,0.0,0.0,0.0,0.0,0.0,0.0,0.0,0.0,0.0,0.0,0.0,0.0,0.0,0.0,0.0,-2.7758,-2.8097,-2.8097,-2.8097,-2.7871,-2.7318,-2.7268,-2.7077,-2.6524,-2.6499,-2.6521,-2.6521,-2.8103,-2.9002,-2.9002,-3.0614,-3.1182,-3.0507,-3.1152,-3.0838,-2.9621,-3.0208,-3.0823,-3.1481,-3.1496,-3.1496,-3.1496,-3.1496,-3.1496,-3.1436,-3.0776,-3.0492,-3.0432,-2.9819,-2.9953,-3.0328,-2.9071,-2.9011,-2.9502,0.0,0.0,0.0,0.0,0.0,0.0,0.0,0.0,0.0,0.0,0.0,0.0,0.0,0.0,0.0,0.0,0.0,0.0,-0.6467,-0.6248,-0.6076,-0.5995,-0.5999,-0.5915,-0.5782,-0.661,-0.71,-0.7223,-0.7418,-0.7881,-0.8596,-0.9121,-0.9631,-1.0114,-1.0828,-1.1579,-1.2305,-1.2646,-1.2962,-1.3198,-1.3198,-1.3198,-1.3198,0.0,0.0,0.0,0.0,0.0,0.0,0.0,0.0,0.0,0.0,0.0,0.0,-1.2718,-1.2638,-1.2513,-1.1977,0.0,0.0,0.0,0.0,0.0,0.0,0.0,0.0,0.0,0.0,0.0,0.0,0.0,0.0,-2.482,-2.6201,-2.7281,-2.7281,-2.7419,-2.7532,-2.7532,-2.718,-2.6914,-2.6751,-2.6738,-2.6726,-2.6647,-2.7083,-2.74,-2.756,-2.9049,-2.9919,-2.9919,-3.097,-3.1182,-3.0507,-3.0717,-3.0387,-2.9606,-2.9786,-2.9968,-3.0178,-3.0612,-3.0806,-3.0806,-3.0806,-3.0806,-3.0761,-3.0118,-2.9864,-2.9834,-2.9681,-2.9415,-2.9116,-2.8742,-2.8412,-2.8169,0.0,0.0,0.0,0.0,0.0,0.0,0.0,0.0,0.0,0.0,0.0,0.0,0.0,0.0,0.0,0.0,0.0,0.0,0.0,-0.6289,-0.6165,-0.6076,-0.6043,-0.6072,-0.6183,-0.7098,-0.7518,-0.7406,-0.7818,-0.837,-0.9069,-0.9724,-1.0323,-1.0853,-1.1664,-1.2309,-1.2803,-1.3077,-1.3198,-1.3198,-1.3198,-1.3198,-1.3198,0.0,0.0,0.0,0.0,0.0,0.0,0.0,0.0,0.0,0.0,0.0,0.0,-1.2797,-1.2726,-1.2651,-1.2312,0.0,0.0,0.0,0.0,0.0,0.0,0.0,0.0,0.0,0.0,0.0,0.0,0.0,0.0,-2.5448,-2.6302,-2.6989,-2.6989,-2.6788,-2.6691,-2.6964,-2.6311,-2.5921,-2.6135,-2.5971,-2.5968,-2.6364,-2.6762,-2.729,-2.7951,-2.8958,-2.9635,-2.988,-3.0452,-3.0432,-2.9759,-3.0013,-2.9684,-2.8813,-2.9097,-2.9041,-2.8843,-2.9729,-3.0133,-3.0133,-3.0133,-2.9983,-2.9714,-2.934,-2.919,-2.916,-2.8918,-2.8738,-2.8562,-2.8293,-2.7959,-2.76,0.0,0.0,0.0,0.0,0.0,0.0,0.0,0.0,0.0,0.0,0.0,0.0,0.0,0.0,0.0,0.0,0.0,0.0,0.0,0.0,-0.6206,-0.5975,-0.6177,-0.6426,-0.6665,-0.7786,-0.81,-0.7566,-0.8587,-0.9365,-0.9918,-1.0507,-1.1096,-1.1703,-1.2241,-1.2751,-1.3198,-1.3198,-1.3198,-1.3198,-1.3198,-1.3198,-1.3198,-1.3198,0.0,0.0,0.0,0.0,0.0,0.0,0.0,0.0,0.0,0.0,-1.3185,-1.3073,-1.3123,-1.3173,0.0,0.0,0.0,0.0,0.0,0.0,0.0,0.0,0.0,0.0,0.0,0.0,0.0,0.0,0.0,-2.626,-2.6411,-2.6399,-2.6348,-2.585,-2.5724,-2.6285,-2.5489,-2.5093,-2.5572,-2.5246,-2.5287,-2.5981,-2.6082,-2.6704,-2.8003,-2.8281,-2.8713,-2.9319,-2.9491,-2.9292,-2.8607,-2.919,-2.8873,-2.76,-2.8203,-2.8173,-2.7645,-2.8933,-2.9517,-2.9517,-2.9517,-2.9116,-2.8502,-2.8502,-2.8502,-2.8442,-2.7839,-2.7974,-2.8427,-2.7824,-2.7635,-2.766,0.0,0.0,0.0,0.0,0.0,0.0,0.0,0.0,0.0,0.0,0.0,0.0,0.0,0.0,0.0,0.0,0.0,0.0,0.0,0.0,-0.6936,-0.6472,-0.6889,-0.7171,-0.7231,-0.8349,-0.8862,-0.8737,-0.8976,-0.9365,-0.9931,-1.0922,-1.1701,-1.2253,-1.2801,-1.3085,-1.3198,-1.3198,-1.3198,-1.3198,-1.3198,-1.3198,-1.3198,-1.3198,-1.3198,0.0,0.0,0.0,0.0,0.0,0.0,0.0,-1.3198,-1.3198,-1.3023,-1.219,-1.2538,-1.301,0.0,0.0,0.0,0.0,0.0,0.0,0.0,0.0,0.0,0.0,0.0,0.0,0.0,0.0,0.0,-2.5824,-2.5787,-2.5636,-2.5234,-2.5059,-2.5034,-2.5159,-2.5454,-2.5722,-2.5808,-2.625,-2.6663,-2.6975,-2.7498,-2.7983,-2.8458,-2.9015,-2.9379,-2.9512,-2.9573,-2.9292,-2.8607,-2.8742,-2.8423,-2.76,-2.775,-2.775,-2.763,-2.8427,-2.8816,-2.8816,-2.8816,-2.8427,-2.7824,-2.7824,-2.7824,-2.7809,-2.766,-2.769,-2.7809,-2.7645,-2.791,-2.8238,0.0,0.0,0.0,0.0,0.0,0.0,0.0,0.0,0.0,0.0,0.0,0.0,0.0,0.0,0.0,0.0,0.0,0.0,0.0,0.0,-0.7701,-0.7423,-0.7924,-0.81,-0.7839,-0.9165,-0.9742,-0.9491,-1.0031,-1.0282,0.0,-1.145,-1.214,-1.2413,-1.2947,-1.3198,-1.3198,-1.3198,-1.3198,-1.3198,-1.3198,-1.3198,-1.3198,-1.3198,-1.3198,-1.3198,-1.3198,0.0,0.0,0.0,0.0,0.0,0.0,0.0,-1.3085,-1.2526,-1.2764,-1.3073,0.0,0.0,0.0,0.0,0.0,0.0,0.0,0.0,0.0,0.0,0.0,0.0,0.0,0.0,-2.5693,-2.5743,-2.5458,-2.5239,-2.532,-2.5126,-2.5161,-2.5782,-2.5452,-2.541,-2.5988,-2.5867,-2.5953,-2.6404,-2.6759,-2.7309,-2.8072,-2.8154,-2.8468,-2.9086,-2.8813,-2.8483,-2.8113,-2.8113,-2.7959,-2.76,-2.76,-2.76,-2.76,-2.7974,-2.7934,-2.7634,-2.7634,-2.744,-2.7121,-2.7121,-2.7315,-2.76,-2.76,-2.7785,-2.7993,-2.771,-2.7968,-2.8369,0.0,0.0,0.0,0.0,0.0,0.0,0.0,0.0,0.0,0.0,0.0,0.0,0.0,0.0,0.0,0.0,0.0,0.0,0.0,0.0,0.0,-0.8437,-0.8862,-0.8888,-0.8449,-0.993,-1.0482,-1.0044,-1.1173,0.0,0.0,0.0,0.0,-1.2563,-1.2998,-1.3198,-1.3198,-1.3198,-1.3198,-1.3198,-1.3198,-1.3198,-1.3198,-1.3198,-1.3198,-1.3198,-1.3198,-1.3198,-1.3198,-1.3198,0.0,0.0,0.0,0.0,-1.316,-1.2989,-1.3116,-1.3242,0.0,0.0,0.0,0.0,0.0,0.0,0.0,0.0,0.0,0.0,0.0,0.0,0.0,0.0,-2.5154,-2.5704,-2.5286,-2.5016,-2.5401,-2.5097,-2.5199,-2.6243,-2.5204,-2.4801,-2.5813,-2.5117,-2.4857,-2.5459,-2.551,-2.6034,-2.72,-2.6746,-2.6931,-2.8053,-2.7555,-2.7255,-2.7255,-2.7255,-2.7255,-2.7255,-2.7255,-2.7255,-2.7255,-2.7255,-2.7031,-2.6587,-2.6587,-2.6527,-2.6437,-2.6542,-2.6941,-2.7435,-2.7665,-2.7993,-2.831,-2.791,-2.814,-2.8474,0.0,0.0,0.0,0.0,0.0,0.0,0.0,0.0,0.0,0.0,0.0,0.0,0.0,0.0,0.0,0.0,0.0,0.0,-0.8175,0.0,0.0,-0.8963,-0.9063,-0.9063,-0.9,-1.0106,-1.0656,-1.0581,0.0,0.0,0.0,0.0,0.0,-1.3098,0.0,0.0,-1.3198,-1.3198,-1.3198,-1.3198,-1.3198,-1.3198,-1.3198,-1.3198,-1.3198,-1.3198,-1.3198,-1.3198,-1.3198,-1.3198,-1.3198,0.0,0.0,0.0,-1.301,-1.209,-1.2756,0.0,0.0,0.0,0.0,0.0,0.0,0.0,0.0,0.0,0.0,0.0,0.0,0.0,0.0,-2.6285,-2.5638,-2.5332,-2.5197,-2.4816,-2.3864,-2.3672,-2.3685,-2.3859,-2.4236,-2.4544,-2.4715,-2.517,-2.5482,-2.5577,-2.5592,-2.567,-2.5869,-2.5794,-2.5824,-2.6004,-2.5914,-2.5869,-2.5869,-2.5869,-2.5869,-2.5869,-2.5869,-2.5869,-2.5869,-2.5869,-2.6138,-2.6587,-2.6587,-2.6273,-2.5779,-2.6363,-2.6632,-2.684,-2.7959,-2.8116,-2.776,-2.8213,-2.8756,-2.9085,0.0,0.0,0.0,0.0,0.0,0.0,0.0,0.0,0.0,0.0,0.0,0.0,0.0,0.0,0.0,-0.7901,-0.8424,-0.8875,-0.9177,-0.9202,-0.9303,-0.9541,-0.9554,-0.9679,-0.9993,-1.0797,-1.1362,-1.1648,0.0,0.0,0.0,-1.2852,-1.2973,0.0,0.0,0.0,0.0,0.0,0.0,-1.3198,-1.3198,-1.3198,-1.3198,-1.3198,-1.3198,-1.3198,-1.3198,-1.3198,-1.3198,-1.3198,-1.3198,-1.325,-1.3514,0.0,0.0,0.0,-1.3552,0.0,0.0,0.0,0.0,0.0,0.0,0.0,0.0,0.0,0.0,0.0,0.0,0.0,0.0,-2.519,-2.4585,-2.4775,-2.4467,-2.4155,-2.4039,-2.4019,-2.417,-2.4581,-2.427,-2.4273,-2.5046,-2.4728,-2.4642,-2.5008,-2.4702,-2.4477,-2.4477,-2.4477,-2.4657,-2.5023,-2.5397,-2.5615,-2.5615,-2.5615,-2.5615,-2.5615,-2.5615,-2.5615,-2.5615,-2.5615,-2.557,-2.5495,-2.5495,-2.5307,-2.5083,-2.5764,-2.6258,-2.672,-2.7986,-2.8543,-2.8638,-2.8919,-2.9128,-2.9091,0.0,0.0,0.0,0.0,0.0,0.0,0.0,0.0,0.0,0.0,0.0,0.0,0.0,0.0,0.0,0.0,-0.9001,-0.9478,-0.988,-0.9905,-0.9905,-0.9905,-1.0031,-1.0294,-1.0681,-1.1425,-1.2002,0.0,0.0,0.0,-1.3198,-1.3198,-1.3198,0.0,-1.3198,0.0,0.0,0.0,0.0,0.0,0.0,0.0,0.0,-1.3366,-1.3428,-1.3428,-1.3428,-1.3428,-1.3403,-1.3248,-1.3198,-1.3284,-1.3752,-1.3665,0.0,0.0,0.0,0.0,0.0,0.0,0.0,0.0,0.0,0.0,0.0,0.0,0.0,0.0,0.0,0.0,0.0,-2.4006,-2.3862,-2.4438,-2.4052,-2.3791,-2.3999,-2.4041,-2.4244,-2.4798,-2.3834,-2.358,-2.4747,-2.3804,-2.3325,-2.3827,-2.34,-2.3116,-2.3116,-2.3116,-2.3355,-2.3842,-2.4358,-2.4612,-2.4612,-2.4612,-2.4702,-2.4866,-2.4866,-2.4941,-2.5091,-2.5091,-2.4814,-2.435,-2.453,-2.459,-2.4602,-2.5266,-2.6023,-2.6894,-2.7968,-2.881,-2.9358,-2.916,-2.9127,-2.9013,0.0,0.0,0.0,0.0,0.0,0.0,0.0,0.0,0.0,0.0,0.0,0.0,-0.8298,-0.8749,-0.9063,-0.9063,-0.9554,-0.9868,-0.9905,-0.9905,-0.9905,-0.9905,-1.0394,0.0,-1.0694,-1.1786,0.0,0.0,0.0,0.0,-1.3198,-1.3198,-1.3198,-1.3198,-1.3198,-1.3198,-1.3198,0.0,0.0,0.0,0.0,0.0,0.0,0.0,0.0,0.0,-1.4053,-1.4053,-1.3972,-1.3391,-1.3198,-1.3284,-1.3752,-1.3885,-1.386,0.0,0.0,0.0,0.0,0.0,0.0,0.0,0.0,0.0,0.0,0.0,0.0,0.0,0.0,0.0,0.0,-2.3285,-2.4491,-2.4579,-2.4559,-2.4127,-2.2954,-2.2775,-2.2811,-2.2853,-2.2239,-2.2069,-2.2778,-2.2203,-2.1814,-2.1844,-2.1814,-2.1799,-2.1799,-2.1799,-2.1814,-2.1844,-2.1874,-2.1904,-2.1904,-2.1904,-2.2218,-2.2853,-2.2853,-2.3152,-2.3699,-2.3699,-2.3684,-2.3684,-2.4321,-2.4524,-2.4457,-2.5126,-2.615,-2.7316,-2.7899,-2.8642,-2.9291,-2.8461,-2.8622,-2.8971,0.0,0.0,0.0,0.0,0.0,0.0,0.0,0.0,0.0,0.0,0.0,0.0,0.0,-0.9626,-0.9617,-0.9617,-1.038,-1.1017,-1.1355,-1.1256,-1.1359,-1.1737,-1.1575,-1.1831,-1.2613,-1.3028,0.0,0.0,0.0,-1.3497,-1.3215,-1.3514,-1.3648,-1.3648,-1.3323,-1.3374,-1.3632,-1.3323,0.0,0.0,0.0,0.0,0.0,0.0,0.0,0.0,0.0,0.0,-1.4078,-1.3858,-1.3718,-1.3719,-1.4149,-1.4294,-1.4333,-1.4545,-1.4357,0.0,0.0,0.0,0.0,0.0,0.0,0.0,0.0,0.0,0.0,0.0,0.0,0.0,0.0,-2.1954,-2.272,-2.273,-2.2742,-2.2577,-2.2134,-2.2074,-2.2074,-2.2074,-2.147,-2.1321,-2.1999,-2.1455,-2.1246,-2.1665,-2.1306,-2.1066,-2.1066,-2.1066,-2.1066,-2.1066,-2.1485,-2.1695,-2.1695,-2.1695,-2.1814,-2.2074,-2.2074,-2.2403,-2.3032,-2.3032,-2.3242,-2.3631,-2.4222,-2.4435,-2.4451,-2.5106,-2.5879,-2.6686,-2.7698,-2.8567,-2.927,-2.9356,-2.925,-2.9001,0.0,0.0,0.0,0.0,0.0,0.0,0.0,0.0,0.0,0.0,0.0,0.0,0.0,0.0,-1.0538,-1.066,-1.1281,-1.1883,-1.2371,-1.2278,-1.237,-1.2787,-1.2607,-1.2872,-1.3679,-1.3872,0.0,0.0,0.0,0.0,0.0,-1.3967,-1.41,-1.4084,-1.3785,-1.3719,0.0,0.0,0.0,-1.4062,0.0,0.0,-1.4241,0.0,0.0,0.0,0.0,0.0,0.0,-1.4849,-1.4853,-1.4802,-1.4973,-1.4983,-1.4997,-1.5255,-1.5241,0.0,0.0,0.0,0.0,0.0,0.0,0.0,0.0,0.0,0.0,0.0,0.0,0.0,0.0,-2.0243,-2.0917,-2.159,-2.1695,-2.162,-2.1395,-2.1365,-2.1365,-2.1365,-2.0782,-2.0632,-2.1306,-2.0767,-2.0557,-2.1011,-2.0617,-2.0273,-2.003,-2.0015,-1.9926,-1.9702,-2.0348,-2.0692,-2.0692,-2.0917,-2.1141,-2.1365,-2.1365,-2.171,-2.2358,-2.2358,-2.2806,-2.3552,-2.3907,-2.4293,-2.4724,-2.5336,-2.6046,-2.6798,-2.7403,-2.8251,-2.9126,-2.8998,-2.8805,-2.8552,0.0,0.0,0.0,0.0,0.0,0.0,0.0,0.0,0.0,-1.1282,0.0,0.0,0.0,0.0,0.0,-1.2209,-1.2253,-1.2425,-1.2844,-1.2871,-1.2871,-1.2885,-1.343,-1.3736,-1.3764,-1.4275,0.0,0.0,0.0,0.0,0.0,0.0,-1.4517,-1.4517,-1.4533,-1.431,-1.3967,0.0,-1.4016,-1.3373,0.0,-1.457,-1.3482,0.0,0.0,0.0,-1.5401,-1.5753,0.0,-1.6342,0.0,0.0,0.0,0.0,-1.5799,-1.5799,0.0,0.0,0.0,0.0,0.0,0.0,0.0,0.0,0.0,0.0,0.0,0.0,0.0,0.0,0.0,-1.8207,-1.9316,-2.1261,-2.162,-2.1395,-2.0703,-2.0628,-2.0628,-2.0613,-2.0034,-1.9884,-2.0539,-2.0019,-1.9648,-1.9648,-1.9648,-1.9346,-1.8717,-1.8672,-1.8371,-1.7758,-1.8326,-1.8687,-1.8702,-1.9346,-1.9989,-2.0643,-2.0658,-2.1036,-2.1684,-2.1684,-2.2317,-2.339,-2.3425,-2.4111,-2.5227,-2.5781,-2.6696,-2.7705,-2.6979,-2.7639,-2.879,-2.7283,-2.7199,-2.7705,0.0,0.0,0.0,0.0,0.0,0.0,0.0,0.0,-1.2277,0.0,0.0,0.0,-1.295,-1.2678,-1.2703,-1.3241,-1.3557,-1.3927,-1.4427,-1.4339,-1.4461,-1.4947,-1.4668,-1.4728,-1.5198,-1.536,0.0,0.0,0.0,0.0,0.0,0.0,0.0,0.0,-1.5285,-1.5195,-1.4737,-1.4262,0.0,0.0,-1.404,-1.448,0.0,0.0,0.0,0.0,0.0,-1.72,-1.6872,0.0,-1.6698,-1.6166,0.0,0.0,0.0,0.0,0.0,0.0,-1.5799,0.0,0.0,0.0,0.0,0.0,0.0,0.0,0.0,0.0,0.0,0.0,0.0,-1.7518,-1.8162,-1.8715,-1.9615,-1.9854,-1.8685,-1.8954,-1.9074,-1.8595,-1.8371,-1.8326,-1.8521,-1.8356,-1.8252,0.0,-1.8252,-1.8177,-1.7997,-1.7983,-1.8117,-1.8401,-1.8132,-1.8207,-1.8702,-1.8882,-1.9076,-1.9271,-1.9735,-2.0473,-2.1409,-2.1409,-2.2037,-2.3167,-2.403,-2.4587,-2.4974,-2.5711,-2.6396,-2.6979,-2.6776,-2.7283,-2.8077,-2.7655,-2.7621,-2.7773,0.0,0.0,0.0,0.0,0.0,0.0,0.0,0.0,-1.3172,0.0,0.0,0.0,-1.3771,-1.3771,-1.3898,-1.425,-1.4499,-1.4848,-1.5359,-1.5282,-1.5394,-1.5784,-1.5439,-1.5395,-1.5784,-1.5799,0.0,0.0,0.0,0.0,0.0,0.0,0.0,0.0,0.0,0.0,0.0,0.0,0.0,0.0,-1.5021,0.0,0.0,-1.6512,-1.7015,0.0,0.0,0.0,-1.7323,-1.8049,-1.7615,0.0,0.0,0.0,0.0,0.0,0.0,0.0,0.0,0.0,0.0,0.0,0.0,0.0,-1.6054,-1.5979,-1.5873,0.0,-1.6458,0.0,0.0,-1.6846,-1.7205,-1.6952,-1.8014,-1.8597,-1.7818,-1.8042,-1.8132,-1.7758,-1.7713,-1.7713,-1.7713,-1.7713,-1.7713,-1.7713,-1.7713,-1.7594,-1.7294,-1.7041,-1.719,-1.7848,-1.7773,-1.7893,-1.8267,-1.8837,-1.9075,-1.9007,-1.9643,-2.0391,-2.1163,-2.1163,-2.1796,-2.291,-2.362,-2.4199,-2.473,-2.5513,-2.6168,-2.6691,-2.6691,-2.6962,-2.7334,-2.7334,-2.7334,-2.7334,0.0,0.0,0.0,0.0,0.0,0.0,0.0,0.0,0.0,0.0,-1.4299,-1.4385,-1.4618,-1.4953,-1.518,-1.518,-1.518,-1.5359,-1.577,-1.5799,-1.5799,-1.5799,-1.5799,-1.5799,-1.5799,-1.5799,0.0,0.0,0.0,0.0,0.0,0.0,0.0,0.0,0.0,0.0,0.0,0.0,0.0,-1.4901,-1.6718,-1.6733,0.0,0.0,-1.7569,-1.6983,-1.7927,-1.7905,-1.7619,-1.909,-1.8807,0.0,0.0,0.0,0.0,0.0,-1.5889,0.0,0.0,0.0,0.0,0.0,0.0,0.0,-1.6338,-1.6189,-1.5949,-1.6488,-1.6607,0.0,0.0,-1.6248,-1.6428,-1.5889,-1.6742,-1.7489,-1.7489,-1.7549,-1.7548,-1.7504,-1.7489,-1.7489,-1.7489,-1.7489,-1.7489,-1.7489,-1.7489,-1.7235,-1.6637,-1.6084,-1.6098,-1.6743,-1.7267,-1.7629,-1.7829,-1.9021,-1.956,-1.9466,-2.0088,-2.0616,-2.1055,-2.1055,-2.1647,-2.2661,-2.2744,-2.3393,-2.444,-2.5169,-2.5913,-2.659,-2.6657,-2.6691,-2.6691,-2.6691,-2.6691,-2.6691,-1.161,0.0,0.0,0.0,0.0,0.0,0.0,0.0,0.0,-1.5385,-1.5474,-1.549,-1.5551,-1.5624,-1.5653,-1.5653,-1.5653,-1.5712,-1.5784,-1.5799,-1.5799,-1.5799,-1.5799,-1.5799,-1.5799,-1.5799,-1.5799,0.0,0.0,0.0,0.0,0.0,0.0,0.0,0.0,0.0,0.0,0.0,0.0,-1.6241,-1.6027,0.0,-1.6872,-1.7757,-1.8508,-1.9105,-1.931,-1.9301,-1.9167,-1.8969,-1.8732,-1.8401,0.0,0.0,0.0,-1.6682,0.0,0.0,0.0,0.0,0.0,0.0,0.0,0.0,-1.5919,-1.5888,-1.5829,0.0,-1.5979,0.0,0.0,-1.5889,-1.5934,-1.5829,-1.6009,-1.6159,-1.6159,-1.6592,-1.6712,-1.6233,-1.6159,-1.6159,-1.6159,-1.6159,-1.6159,-1.6159,-1.6159,-1.6114,-1.5979,-1.5858,-1.6214,-1.7147,-1.6792,-1.7258,-1.866,-1.893,-1.9338,-1.989,-2.0544,-2.1086,-2.1476,-2.1476,-2.1801,-2.2416,-2.3005,-2.3401,-2.3663,-2.4423,-2.5152,-2.5879,-2.6471,-2.6691,-2.6691,-2.6691,-2.6691,-2.6691,-1.2358,0.0,0.0,0.0,0.0,0.0,0.0,0.0,0.0,-1.5754,-1.5799,-1.5799,-1.5799,-1.5799,-1.5799,-1.5799,-1.5799,-1.5799,-1.5799,-1.5799,-1.5799,-1.5799,-1.5799,-1.5799,-1.5799,-1.5799,-1.5799,0.0,0.0,0.0,0.0,0.0,0.0,0.0,0.0,0.0,0.0,0.0,-1.6622,-1.7188,-1.7109,0.0,-1.7966,-1.8632,-1.9233,-1.9708,-1.9708,-1.9708,-1.9603,-1.8927,-1.8702,0.0,0.0,-1.8478,-1.8072,0.0,-1.7428,-1.7489,0.0,0.0,0.0,-1.6263,0.0,0.0,0.0,-1.6263,-1.6263,-1.6263,-1.6263,-1.6159,-1.5858,0.0,-1.5799,-1.5799,-1.5799,-1.5799,-1.5799,-1.6069,-1.6144,-1.5844,-1.5799,-1.5799,-1.5799,-1.5799,-1.5799,-1.5799,-1.5799,-1.5799,-1.5799,-1.5799,-1.6258,-1.7264,-1.6968,-1.7307,-1.8339,-1.9042,-1.9526,-1.9758,-2.0802,-2.1522,-2.1943,-2.1943,-2.2077,-2.2313,-2.2699,-2.2852,-2.2919,-2.3661,-2.4171,-2.4611,-2.5727,-2.615,-2.615,-2.615,-2.615,-2.615,-1.3148,0.0,0.0,0.0,0.0,0.0,0.0,0.0,0.0,-1.5799,-1.5799,-1.5844,-1.5964,-1.5873,0.0,-1.5964,-1.5873,-1.5799,-1.5799,-1.5799,-1.5858,-1.5964,-1.5964,-1.5964,-1.5964,-1.5964,-1.5919,-1.5799,0.0,0.0,0.0,0.0,0.0,0.0,0.0,0.0,0.0,0.0,0.0,-1.7773,0.0,-1.8822,-1.8777,-1.9435,-1.9708,-1.9708,-1.9708,-1.9708,-1.9618,-1.9076,-1.8897,-1.8986,-1.9528,-1.9405,0.0,0.0,0.0,0.0,0.0,0.0,0.0,0.0,0.0,-1.6069,0.0,0.0,0.0,0.0,0.0,0.0,0.0,0.0,0.0,0.0,0.0,0.0,0.0,-1.5794,0.0,-1.5799,-1.5799,-1.5799,-1.5799,-1.5799,-1.5799,-1.5799,-1.5799,-1.5799,-1.5799,-1.587,-1.6297,-1.7177,-1.7277,-1.7612,-1.8227,-1.9359,-1.9951,-2.0049,-2.1185,-2.1928,-2.2296,-2.2296,-2.2296,-2.2296,-2.2296,-2.2296,-2.2347,-2.2936,-2.319,-2.3325,-2.4814,-2.5389,-2.5389,-2.5389,-2.5389,-2.5423,-1.3929,-1.4229,0.0,0.0,0.0,0.0,0.0,0.0,0.0,-1.5799,-1.5799,0.0,0.0,0.0,0.0,0.0,0.0,0.0,-1.5799,0.0,-1.6039,-1.6577,-1.6607,-1.6607,-1.6607,-1.6607,-1.6338,-1.5799,0.0,0.0,0.0,0.0,0.0,0.0,-1.5799,0.0,0.0,0.0,-1.7579,0.0,-1.9076,-1.9226,0.0,-1.9435,-1.9708,-1.9708,-1.9708,-1.9708,-1.9693,0.0,-1.9588,-1.9603,0.0,-2.0064,-2.0225,-1.8972,0.0,0.0,0.0,0.0,0.0,0.0,-1.6636,0.0,0.0,0.0,-1.599,-1.6271,0.0,0.0,0.0,0.0,0.0,0.0,0.0,0.0,-1.5769,-1.5766,-1.5799,-1.5799,-1.5799,-1.5799,-1.5799,-1.5799,-1.5799,-1.5799,-1.5799,-1.5799,-1.5799,-1.6081,-1.6441,-1.6836,-1.7156,-1.8087,-1.9735,-1.992,-2.0652,-2.1984,-2.2139,-2.2254,-2.2296,-2.2296,-2.2296,-2.2296,-2.2296,-2.2296,-2.2296,-2.2381,-2.2415,-2.2567,-2.4051,-2.4626,-2.4626,-2.4626,-2.4626,-2.4728,-1.4637,-1.4931,0.0,0.0,0.0,0.0,0.0,0.0,0.0,-1.5754,-1.5125,0.0,0.0,0.0,0.0,0.0,0.0,-1.6503,0.0,0.0,0.0,-1.7685,-1.7685,-1.7685,-1.7685,-1.7421,-1.6965,-1.6323,-1.6323,0.0,0.0,0.0,0.0,0.0,-1.6174,0.0,-1.6937,0.0,-1.8147,0.0,0.0,0.0,0.0,-1.9588,-1.9708,-1.9708,-1.9708,-1.9708,-1.9744,0.0,-1.9892,0.0,0.0,0.0,0.0,0.0,0.0,0.0,0.0,0.0,0.0,0.0,0.0,0.0,-1.692,0.0,-1.6654,0.0,0.0,0.0,0.0,0.0,0.0,0.0,-1.6482,0.0,0.0,0.0,-1.6315,0.0,0.0,0.0,-1.6081,-1.6274,-1.6382,-1.6382,-1.6382,-1.6382,-1.6382,-1.6514,-1.6735,-1.7076,-1.7236,-1.7961,-1.9338,-1.9794,-2.0555,-2.1667,-2.2107,-2.2296,-2.2296,-2.2296,-2.2296,-2.2296,-2.2296,-2.2296,-2.2296,-2.2296,-2.2296,-2.2347,-2.2987,-2.3477,-2.3864,-2.3864,-2.3864,-2.3915,0.0,0.0,0.0,0.0,0.0,0.0,0.0,0.0,0.0,0.0,0.0,0.0,-1.5889,-1.5605,0.0,0.0,-1.7089,-1.7362,0.0,0.0,-1.8531,0.0,0.0,0.0,0.0,-1.85,-1.7958,-1.7182,0.0,0.0,0.0,0.0,0.0,0.0,0.0,-1.6965,-1.7443,0.0,0.0,-1.9408,-1.9091,-1.9329,-1.9856,-1.9729,-1.9708,-1.9708,-1.9708,-1.9764,-1.9892,-2.0072,-2.0017,-2.0058,-2.1213,-2.1182,-2.0658,0.0,0.0,0.0,-1.9346,0.0,0.0,0.0,0.0,0.0,0.0,0.0,0.0,0.0,0.0,0.0,0.0,0.0,0.0,0.0,0.0,-1.6899,0.0,-1.6788,0.0,0.0,0.0,0.0,0.0,-1.6659,-1.6802,-1.6802,-1.6802,-1.6802,-1.6802,-1.6892,-1.7149,-1.7593,-1.769,-1.8325,-1.9532,-2.0061,-2.0707,-2.1512,-2.204,-2.2296,-2.2296,-2.2296,-2.2296,-2.2296,-2.2296,-2.2296,-2.2296,-2.2296,-2.2296,-2.231,-2.2374,-2.2753,-2.3215,-2.3132,-2.3105,-2.3156,-1.6732,-1.6485,0.0,0.0,0.0,0.0,0.0,0.0,0.0,0.0,0.0,0.0,0.0,0.0,0.0,0.0,0.0,-1.8346,-1.8377,0.0,-1.8872,0.0,0.0,-1.9547,0.0,0.0,-1.9402,-1.8361,0.0,0.0,0.0,0.0,0.0,0.0,0.0,-1.6711,-1.6831,-1.8117,-1.8687,-1.8792,-1.9423,-1.9914,-2.0229,0.0,-1.9708,-1.9708,-1.9708,0.0,-2.0212,-1.9839,-1.9965,-2.0227,-1.9899,-2.0217,0.0,0.0,0.0,0.0,0.0,0.0,0.0,-1.9711,0.0,0.0,0.0,0.0,-1.7765,0.0,0.0,0.0,0.0,0.0,0.0,0.0,0.0,0.0,0.0,0.0,0.0,0.0,0.0,0.0,0.0,-1.6789,-1.6802,-1.6802,-1.6802,-1.6802,-1.6802,-1.7113,-1.7626,-1.8347,-1.8674,-1.9587,-2.1106,-2.114,-2.1532,-2.2262,-2.2279,-2.2296,-2.2296,-2.2296,-2.2296,-2.2296,-2.2296,-2.2296,-2.2296,-2.2296,-2.2296,-2.2338,-2.2586,-2.2747,-2.2777,-2.2453,-2.233,-2.2533,0.0,0.0,0.0,0.0,0.0,0.0,0.0,-1.5461,0.0,0.0,0.0,0.0,0.0,-1.813,-1.8455,0.0,0.0,-2.0384,-2.0814,-2.0636,0.0,0.0,0.0,-2.0795,0.0,0.0,0.0,0.0,0.0,0.0,0.0,0.0,0.0,0.0,0.0,-1.7528,0.0,0.0,0.0,0.0,0.0,-2.0193,-2.0297,0.0,-2.0278,-2.0549,-2.0549,-2.0649,-2.0781,-2.091,-2.0666,-2.046,-2.1336,-2.1066,-2.0469,-2.0702,-2.1084,-2.136,-2.0988,-2.1666,-2.2285,-2.1417,-2.1504,-2.1282,0.0,0.0,0.0,0.0,0.0,0.0,0.0,0.0,0.0,0.0,0.0,0.0,0.0,0.0,0.0,0.0,0.0,0.0,0.0,0.0,-1.7455,-1.7455,-1.7455,-1.7455,-1.7455,-1.7577,-1.7982,-1.8703,-1.8846,-1.965,-2.1173,-2.119,-2.1566,-2.2296,-2.2296,-2.2296,-2.2296,-2.2296,-2.2296,-2.2296,-2.2296,-2.2296,-2.2307,-2.2487,-2.2546,-2.2603,-2.2898,-2.3033,-2.3038,-2.2945,-2.2895,-2.3105,-1.7749,0.0,0.0,0.0,0.0,0.0,0.0,0.0,0.0,0.0,-1.7318,0.0,-1.9767,0.0,-2.0273,0.0,-2.1859,-2.2151,-2.2297,-2.2113,0.0,-2.1855,-2.1688,0.0,0.0,0.0,0.0,0.0,0.0,-1.9599,0.0,0.0,0.0,0.0,0.0,0.0,-1.8827,0.0,-2.0296,0.0,0.0,-2.0617,0.0,0.0,-2.0862,-2.0991,-2.0991,-2.1086,-2.1228,-2.1353,-2.1007,-2.0728,-2.173,-2.1229,-2.0424,-2.1014,-2.1363,-2.1567,-2.1686,-2.2505,-2.3136,-2.2475,-2.2832,-2.2698,-2.0179,-1.9817,-1.9697,0.0,0.0,0.0,0.0,0.0,0.0,0.0,0.0,0.0,0.0,-1.78,0.0,0.0,0.0,0.0,0.0,-1.7446,-1.7523,-1.7783,-1.7557,-1.7523,-1.7783,-1.78,-1.8256,-1.9266,-1.9299,-2.0027,-2.158,-2.1583,-2.1837,-2.2296,-2.2296,-2.2296,-2.2296,-2.2296,-2.2296,-2.231,-2.2398,-2.2436,-2.2463,-2.2751,-2.2885,-2.291,-2.3253,-2.338,-2.3369,-2.3236,-2.3383,-2.3755,0.0,0.0,0.0,0.0,-1.7075,0.0,0.0,0.0,-1.8028,0.0,-1.9799,-2.0052,-2.1245,-2.1956,-2.2344,-2.236,-2.3326,-2.3604,-2.2845,-2.2729,0.0,0.0,-2.1884,-2.1823,-2.2268,0.0,0.0,0.0,0.0,0.0,0.0,0.0,0.0,0.0,-1.9058,0.0,-1.9529,-2.0559,-2.0991,-2.0991,-2.1007,-2.126,-2.1597,-2.1628,-2.1399,-2.1055,-2.1055,-2.1306,-2.1583,-2.1181,-2.1039,-2.1023,-2.1071,-2.0732,-2.0449,-2.091,-2.1487,-2.2047,-2.2147,-2.2899,-2.3523,-2.2994,-2.364,-2.3695,-2.0826,-2.0737,-2.0835,-1.9329,0.0,0.0,0.0,-1.8797,-1.807,0.0,0.0,0.0,0.0,0.0,0.0,0.0,0.0,0.0,0.0,-1.7179,-1.7044,-1.7749,-1.7162,0.0,0.0,-1.7834,-1.851,-1.9951,-2.0035,-2.0792,-2.2279,-2.2296,-2.2296,-2.2296,-2.2296,-2.2296,-2.2296,-2.2307,-2.2324,-2.2335,-2.2599,-2.2721,-2.2759,-2.3081,-2.3224,-2.3247,-2.3588,-2.3714,-2.3682,-2.3369,-2.3708,-2.4412,-1.7766,-1.7081,-1.6741,0.0,-1.7886,-1.786,0.0,0.0,0.0,0.0,-2.086,-2.1504,-2.3636,-2.4114,-2.4397,-2.4695,-2.449,0.0,0.0,0.0,0.0,-2.2296,-2.218,-2.2017,-2.1794,-2.212,0.0,-2.1597,0.0,0.0,-2.0033,0.0,0.0,0.0,0.0,0.0,-2.0329,-2.0797,-2.0991,-2.1039,-2.1322,-2.1506,-2.1643,-2.1988,-2.2063,-2.1976,-2.1976,-2.2017,-2.2106,-2.2005,-2.1735,-2.1522,-2.1855,-2.1645,-2.129,-2.1414,-2.192,-2.259,-2.326,-2.3162,-2.3193,-2.4526,-2.4246,-2.3477,-2.2699,-2.226,-2.1752,-2.0801,-1.998,-1.9389,-1.9215,-1.8877,-1.8504,0.0,0.0,0.0,0.0,0.0,0.0,-1.78,0.0,0.0,0.0,-1.7642,-1.7608,-1.7783,-1.7614,0.0,-1.7783,-1.8318,-1.9034,-1.9968,-2.0585,-2.1346,-2.2279,-2.2296,-2.2296,-2.2296,-2.2296,-2.2296,-2.231,-2.2514,-2.2599,-2.2625,-2.2923,-2.3069,-2.3105,-2.3426,-2.3566,-2.3599,-2.3937,-2.4074,-2.4064,-2.3986,-2.4447,-2.512,-1.8217,0.0,0.0,-1.7981,0.0,0.0,-1.8593,-1.927,0.0,-2.232,-2.2651,0.0,-2.453,-2.5313,-2.5564,-2.5153,-2.5033,0.0,-2.4068,0.0,0.0,-2.2313,-2.2296,-2.218,-2.1913,-2.2149,0.0,-2.1913,0.0,0.0,-2.0615,0.0,0.0,0.0,0.0,-2.1021,0.0,-2.1419,-2.1569,-2.1584,-2.1809,-2.1913,0.0,-2.2194,-2.2296,-2.2296,-2.2296,-2.2296,-2.2296,-2.2296,-2.1988,-2.1688,-2.2149,-2.1988,-2.1643,-2.1838,-2.2167,-2.2651,-2.3462,-2.333,-2.3227,-2.4363,-2.4255,-2.3628,-2.2663,-2.2378,-2.2076,-2.136,-2.0568,-2.0069,-2.0348,-1.957,-1.8657,0.0,0.0,0.0,0.0,0.0,0.0,0.0,-1.78,0.0,-1.78,-1.7507,-1.7456,-1.7783,-1.7507,0.0,0.0,-1.8504,-1.9249,-1.9985,-2.0771,-2.1549,-2.2296,-2.2296,-2.2296,-2.2296,-2.2296,-2.2296,-2.231,-2.259,-2.2708,-2.2733,-2.32,-2.3414,-2.3437,-2.3785,-2.3917,-2.3927,-2.4132,-2.419,-2.419,-2.419,-2.4493,-2.4879,-1.8775,0.0,0.0,0.0,0.0,0.0,0.0,-2.1019,0.0,-2.3819,0.0,-2.483,-2.4664,-2.5794,-2.6014,-2.4609,0.0,-2.478,-2.3477,-2.3308,-2.297,-2.233,-2.2296,-2.2296,-2.2296,-2.2296,-2.2296,0.0,0.0,0.0,0.0,0.0,0.0,0.0,0.0,0.0,0.0,-2.212,-2.2296,-2.2296,-2.2296,-2.2296,-2.2313,-2.2398,-2.2381,-2.2313,-2.2398,-2.2381,-2.2296,-2.2296,-2.2032,-2.1764,-2.218,-2.2017,-2.1779,-2.218,-2.2296,-2.2448,-2.319,-2.3325,-2.3291,-2.3509,-2.3949,-2.3881,-2.2053,-2.204,-2.226,-2.1613,-2.0856,-2.069,-2.1924,-2.045,-1.8809,0.0,0.0,0.0,0.0,0.0,0.0,0.0,0.0,0.0,-1.7817,-1.7219,0.0,0.0,-1.7213,0.0,0.0,0.0,-1.935,-1.9985,-2.0873,-2.1651,-2.2296,-2.2296,-2.2296,-2.2296,-2.2296,-2.2324,-2.236,-2.2639,-2.2797,-2.2873,-2.3482,-2.3774,-2.3795,-2.4084,-2.419,-2.419,-2.419,-2.419,-2.419,-2.419,-2.419,-2.419,0.0,0.0,0.0,0.0,0.0,-2.0803,-2.254,-2.3415,-2.4125,-2.4746,-2.518,-2.5444,-2.5406,-2.5642,-2.5439,-2.4575,-2.4068,0.0,0.0,0.0,0.0,-2.2296,-2.2296,-2.2296,-2.2296,-2.2296,-2.2296,0.0,0.0,0.0,0.0,0.0,0.0,0.0,0.0,0.0,-2.218,-2.2268,0.0,-2.2296,-2.2296,-2.2296,-2.2364,-2.2987,-2.2835,-2.2381,-2.2987,-2.2818,-2.2296,-2.2296,-2.2254,-2.2194,-2.2265,-2.2237,-2.2194,-2.2282,-2.2296,-2.2448,-2.319,-2.297,-2.2784,-2.4,-2.3949,-2.3661,-2.3864,-2.356,-2.3173,-2.3038,-2.2429,-2.1789,-2.1461,-2.0517,-1.9575,-1.8826,0.0,0.0,0.0,0.0,0.0,0.0,0.0,-1.8471,0.0,0.0,0.0,0.0,0.0,0.0,0.0,0.0,-1.9866,-2.0002,-2.1366,-2.2161,-2.2296,-2.2296,-2.2296,-2.2296,-2.2296,-2.2412,-2.2634,-2.296,-2.3259,-2.3544,-2.3937,-2.4103,-2.4132,-2.417,-2.419,-2.419,-2.419,-2.419,-2.419,-2.419,-2.419,-2.419,0.0,0.0,0.0,0.0,0.0,0.0,0.0,-2.5422,-2.556,-2.5346,-2.5478,-2.5321,-2.4543,-2.5152,-2.5,-2.3477,-2.3376,-2.3241,-2.2852,-2.2499,-2.2296,-2.2296,-2.2296,-2.2296,-2.2296,-2.2296,-2.2296,-2.2296,0.0,0.0,-2.2296,0.0,0.0,0.0,0.0,-2.2296,0.0,0.0,-2.2296,-2.233,-2.2733,-2.2634,-2.2415,-2.3528,-2.3511,-2.297,-2.3712,-2.3731,-2.3325,-2.2564,-2.2296,-2.2296,-2.2296,-2.2296,-2.2296,-2.2296,-2.2296,-2.2381,-2.2719,-2.2567,-2.2465,-2.3173,-2.3088,-2.2919,-2.3274,-2.3088,-2.2835,-2.2835,-2.2547,-2.206,-2.1343,-2.0551,-1.9941,-1.9761,-1.9413,0.0,0.0,0.0,0.0,0.0,0.0,0.0,0.0,0.0,0.0,0.0,0.0,0.0,0.0,-1.9406,-2.02,-2.0602,-2.1718,-2.2296,-2.2296,-2.2296,-2.2296,-2.2296,-2.2436,-2.259,-2.2721,-2.3242,-2.3544,-2.3714,-2.4046,-2.419,-2.419,-2.419,-2.419,-2.419,-2.419,-2.419,-2.419,-2.419,-2.419,-2.419,0.0,-2.061,0.0,0.0,-2.3866,-2.4509,-2.6404,-2.6691,-2.6488,-2.5913,-2.571,-2.5101,-2.378,-2.4526,-2.4358,-2.2465,-2.2835,-2.2919,-2.233,-2.2296,-2.2296,-2.2296,-2.2296,-2.2296,-2.2296,-2.2296,-2.2296,0.0,0.0,-2.2296,-2.2296,0.0,0.0,0.0,0.0,0.0,-2.2533,-2.2699,-2.2584,-2.2381,-2.3274,-2.319,-2.2685,-2.4171,-2.4288,-2.3729,-2.4474,-2.4626,-2.4305,-2.2987,-2.2533,-2.2513,-2.2347,-2.2296,-2.2296,-2.2296,-2.2296,-2.2296,-2.2296,-2.2296,-2.2296,-2.2296,-2.2296,-2.2296,-2.2296,-2.2296,-2.2296,-2.2296,-2.2349,-2.2177,-2.1503,-2.1002,-2.0649,-2.0593,-2.0254,-2.0265,0.0,0.0,0.0,0.0,0.0,0.0,-1.8688,0.0,0.0,0.0,0.0,0.0,-1.886,-1.9439,-2.0132,-2.0919,-2.1718,-2.215,-2.215,-2.2385,-2.2494,-2.2494,-2.2717,-2.2848,-2.2935,-2.3448,-2.3735,-2.3816,-2.4084,-2.419,-2.419,-2.419,-2.419,-2.419,-2.419,-2.419,-2.419,-2.419,-2.419,-2.419,0.0,0.0,0.0,0.0,0.0,-2.5693,-2.6573,-2.6691,-2.6674,-2.6607,-2.6015,-2.5287,-2.4474,-2.3932,-2.3257,-2.2381,-2.2347,-2.2364,-2.2296,-2.2296,-2.2296,-2.2296,-2.2296,-2.2296,-2.2296,-2.2296,-2.2296,0.0,0.0,-2.2296,-2.2313,-2.2987,0.0,0.0,-2.3596,-2.3291,-2.3342,-2.4017,-2.3511,-2.2415,-2.3831,-2.3966,-2.346,-2.4932,-2.5033,-2.4491,-2.5236,-2.5067,-2.4372,-2.3577,-2.3291,-2.3173,-2.2513,-2.2296,-2.2296,-2.2296,-2.2296,-2.2296,-2.2296,-2.2296,-2.2296,-2.2296,-2.2296,-2.2296,-2.2296,-2.2296,-2.2296,-2.2296,-2.2487,-2.2521,-2.2095,-2.2511,-2.2447,-2.1068,-2.1419,-2.185,-2.1898,0.0,-2.0919,-2.0919,0.0,0.0,-1.9638,-1.8553,0.0,0.0,-1.85,0.0,0.0,-1.8961,-1.935,-2.0099,-2.1112,-2.167,-2.167,-2.2627,-2.3123,-2.3123,-2.3129,-2.3311,-2.3599,-2.3671,-2.3876,-2.4161,-2.418,-2.419,-2.419,-2.419,-2.419,-2.419,-2.419,-2.419,-2.419,-2.419,-2.419,-2.419,0.0,0.0,0.0,0.0,0.0,0.0,-2.7249,-2.6979,-2.6539,-2.6099,-2.5795,-2.5321,-2.4575,-2.3848,-2.3105,-2.2364,-2.2296,-2.2296,-2.2296,-2.2296,-2.2296,-2.2296,-2.2296,-2.2296,-2.2296,-2.2296,-2.2516,0.0,-2.297,-2.319,-2.3628,-2.3915,-2.422,-2.4457,-2.3729,-2.3661,-2.4085,-2.4372,-2.4152,-2.3712,-2.4746,-2.4712,-2.422,-2.5693,-2.5795,-2.5253,-2.5998,-2.6065,-2.5642,-2.4457,-2.378,-2.3274,-2.2533,-2.2296,-2.2296,-2.2296,-2.2296,-2.2296,-2.2296,-2.2296,-2.2296,-2.2296,-2.2296,-2.2349,-2.25,-2.2537,-2.259,-2.2811,-2.2928,-2.2957,-2.2799,-2.2645,-2.2553,-2.2575,-2.2485,-2.261,-2.3231,0.0,0.0,-2.2884,0.0,-2.1342,0.0,-1.9856,0.0,0.0,0.0,0.0,-1.9098,-1.9596,-2.013,-2.0699,-2.1918,-2.2485,-2.2322,-2.2904,-2.32,-2.32,-2.3403,-2.3566,-2.3703,-2.3907,-2.4074,-2.419,-2.419,-2.419,-2.419,-2.419,-2.419,-2.419,-2.419,-2.419,-2.419,-2.419,-2.419,-2.419,-2.6979,-2.7029,-2.7266,-2.801,-2.7537,-2.7199,-2.7722,-2.7182,-2.6437,-2.571,-2.5423,-2.5067,-2.4558,-2.3646,-2.2953,-2.2649,-2.2431,-2.2296,-2.2296,-2.2296,-2.2296,-2.2296,-2.2296,0.0,-2.2296,-2.209,-2.2446,-2.3393,-2.3173,-2.3562,-2.4491,-2.4491,-2.4728,-2.5117,-2.4374,-2.434,-2.4829,-2.4829,-2.4694,-2.4558,-2.5304,-2.5287,-2.4965,-2.6218,-2.637,-2.5998,-2.6505,-2.6691,-2.6471,-2.4998,-2.4152,-2.3562,-2.2598,-2.2296,-2.2296,-2.2296,-2.2296,-2.2296,-2.2296,-2.2363,-2.2412,-2.2412,-2.2494,-2.2607,-2.2797,-2.2848,-2.2947,-2.3288,-2.3346,-2.338,-2.3488,-2.3074,-2.2897,-2.3407,-2.3258,-2.3247,-2.3767,-2.3859,0.0,-2.3511,-2.2703,-2.2018,-2.1635,-2.0463,0.0,0.0,0.0,0.0,-2.0057,-2.0236,-2.0657,-2.1446,-2.2471,-2.2934,-2.274,-2.3228,-2.3482,-2.35,-2.3724,-2.3855,-2.3865,-2.4094,-2.419,-2.419,-2.419,-2.419,-2.419,-2.419,-2.419,-2.4218,-2.4275,-2.4256,-2.4199,-2.4275,-2.4256,-2.419,-2.7638,-2.779,-2.8043,-2.8857,-2.8332,-2.779,-2.7807,-2.7182,-2.6437,-2.571,-2.4966,-2.4508,-2.4491,-2.319,-2.26,-2.3325,-2.2733,-2.2296,-2.2296,-2.2296,-2.2296,-2.2296,-2.2296,-2.2296,-2.2296,-2.1583,-2.1935,-2.3393,-2.2682,-2.3054,-2.4491,-2.4491,-2.5286,-2.664,-2.5896,-2.5576,-2.5592,-2.5592,-2.5169,-2.4558,-2.5304,-2.5592,-2.566,-2.642,-2.6691,-2.6691,-2.6691,-2.6691,-2.6471,-2.4998,-2.4491,-2.422,-2.2767,-2.2296,-2.2296,-2.2296,-2.2296,-2.2296,-2.2296,-2.2487,-2.2695,-2.2695,-2.2947,-2.3189,-2.3189,-2.3189,-2.33,-2.3621,-2.3692,-2.3795,-2.4141,-2.418,-2.3923,-2.3134,-2.3666,-2.3914,-2.3116,-2.3006,0.0,-2.1923,-2.087,-2.0662,-2.1685,-1.9867,0.0,0.0,0.0,-2.0451,-2.1983,-2.0628,-2.0504,-2.2036,-2.2434,-2.2606,-2.2606,-2.3652,-2.418,-2.418,-2.419,-2.419,-2.419,-2.419,-2.419,-2.419,-2.419,-2.419,-2.419,-2.419,-2.419,-2.4218,-2.4428,-2.4375,-2.4218,-2.4409,-2.4366,-2.419,-3.0074,-3.0125,-3.004,-2.9786,-2.9127,-2.8433,-2.7874,-2.7182,-2.6437,-2.571,-2.4965,-2.4491,-2.4491,-2.3173,-2.2598,-2.3325,-2.2733,-2.2296,-2.2296,-2.2296,-2.2296,-2.2296,-2.2296,-2.2296,-2.2296,-2.2564,-2.3187,-2.4152,-2.4425,-2.505,-2.5997,-2.549,-2.5761,-2.6657,-2.593,-2.5592,-2.5592,-2.5592,-2.5456,-2.527,-2.5507,-2.5896,-2.637,-2.6607,-2.6691,-2.6691,-2.6691,-2.6517,-2.6143,-2.5161,-2.4628,-2.4195,-2.3222,-2.2755,-2.2612,-2.2845,-2.2908,-2.2908,-2.2908,-2.2977,-2.3045,-2.3045,-2.3117,-2.3247,-2.35,-2.3714,-2.3907,-2.4016,-2.4036,-2.4074,-2.418,-2.3749,-2.3492,-2.3768,-2.3107,-2.2675,-2.2951,-2.2538,-2.2088,-2.1831,-2.1495,-2.1431,-2.1776,-2.0631,-2.0532,0.0,0.0,-2.0662,-2.1566,-2.1674,-2.1834,-2.2083,-2.3133,-2.3583,-2.3353,-2.3926,-2.419,-2.419,-2.419,-2.419,-2.419,-2.419,-2.419,-2.419,-2.419,-2.419,-2.4163,-2.3712,-2.3786,-2.4108,-2.3151,-2.3367,-2.4144,-2.3658,-2.3778,-2.419,-3.0835,-3.0784,-3.0463,-2.9413,-2.8856,-2.8281,-2.752,-2.6996,-2.6437,-2.571,-2.5203,-2.4812,-2.4525,-2.3427,-2.2902,-2.3359,-2.2733,-2.2296,-2.2296,-2.2296,-2.2296,-2.2296,-2.2581,-2.2702,-2.2702,-2.3156,-2.3915,-2.4914,-2.5642,-2.6181,-2.6496,-2.602,-2.619,-2.6871,-2.5848,-2.5465,-2.5559,-2.5017,-2.5101,-2.5592,-2.5304,-2.5778,-2.6691,-2.6691,-2.6622,-2.6515,-2.682,-2.6459,-2.5805,-2.5342,-2.4791,-2.4196,-2.3584,-2.3236,-2.3093,-2.3177,-2.32,-2.32,-2.32,-2.33,-2.3392,-2.3392,-2.3715,-2.4082,-2.4301,-2.4265,-2.4116,-2.3804,-2.3749,-2.3749,-2.3749,-2.3336,-2.3153,-2.3676,-2.2905,-2.2318,-2.252,-2.2125,-2.1684,-2.1345,-2.1308,-2.1308,-2.1308,-2.0556,-2.0537,-2.1702,0.0,-2.0809,-2.1516,-2.2308,-2.2656,-2.2437,-2.3576,-2.4094,-2.3896,-2.4094,-2.419,-2.419,-2.419,-2.419,-2.4199,-2.4275,-2.4312,-2.4321,-2.4393,-2.4242,-2.3899,-2.3494,-2.3337,-2.3297,-2.2503,-2.286,-2.3822,-2.3446,-2.3771,-2.4436,-3.0349,-3.0211,-2.9717,-2.828,-2.7993,-2.7705,-2.6962,-2.681,-2.6505,-2.5778,-2.5626,-2.5338,-2.466,-2.3932,-2.346,-2.3393,-2.2733,-2.2296,-2.2296,-2.2296,-2.2313,-2.2364,-2.3038,-2.341,-2.3477,-2.3541,-2.4282,-2.5689,-2.6351,-2.651,-2.6152,-2.6145,-2.6509,-2.7109,-2.5724,-2.5261,-2.5418,-2.4043,-2.4281,-2.5536,-2.4788,-2.5416,-2.6774,-2.6656,-2.6441,-2.6303,-2.6937,-2.6463,-2.5522,-2.5467,-2.4949,-2.4241,-2.3916,-2.3825,-2.3754,-2.3387,-2.3259,-2.3259,-2.3259,-2.35,-2.3724,-2.3724,-2.4533,-2.5319,-2.5393,-2.4787,-2.3988,-2.3244,-2.3079,-2.3079,-2.3079,-2.2988,-2.2933,-2.2988,-2.2859,-2.2483,-2.1721,-2.1629,-2.1298,-2.0437,-2.0382,-2.0419,-2.0419,-1.9693,-1.9885,-2.15,0.0,-2.0804,-2.1666,-2.2483,-2.2933,-2.3006,-2.3731,-2.4135,-2.419,-2.419,-2.419,-2.419,-2.4209,-2.4218,-2.4228,-2.4436,-2.4528,-2.4537,-2.4723,-2.4337,-2.3599,-2.3531,-2.2992,-2.2226,-2.2438,-2.2867,-2.3419,-2.3689,-2.4214,-2.4804,-3.1436,-3.1155,-3.0818,-3.0463,-2.9939,-2.9313,-2.857,-2.7926,-2.7266,-2.6539,-2.5947,-2.5525,-2.5372,-2.4694,-2.4017,-2.3444,-2.2733,-2.2296,-2.2296,-2.2296,-2.255,-2.3122,-2.3308,-2.3661,-2.422,-2.5099,-2.5831,-2.644,-2.66,-2.6346,-2.5674,-2.6289,-2.6342,-2.5942,-2.6198,-2.5669,-2.4593,-2.4239,-2.4637,-2.5452,-2.4672,-2.5666,-2.7481,-2.625,-2.6482,-2.7334,-2.6289,-2.5919,-2.5799,-2.5177,-2.4649,-2.4312,-2.4831,-2.499,-2.487,-2.4178,-2.3947,-2.3947,-2.3947,-2.4016,-2.4084,-2.4084,-2.4279,-2.464,-2.5264,-2.4787,-2.4153,-2.3951,-2.3914,-2.3914,-2.3914,-2.2905,-2.2281,-2.2896,-2.1418,-2.0105,-1.9921,-1.9885,-1.9591,-1.8768,-1.9216,-1.9583,-1.9583,-1.8867,-1.8794,-1.9811,-1.9701,-1.9932,-2.0768,-2.162,-2.2373,-2.2988,-2.3171,-2.3584,-2.419,-2.419,-2.419,-2.4199,-2.4348,-2.4436,-2.4445,-2.4631,-2.4731,-2.4731,-2.4782,-2.4684,-2.4445,-2.3948,-2.3884,-2.403,-2.2985,-2.3341,-2.4369,-2.3781,-2.4083,-2.4804,-3.2109,-3.195,-3.1628,-3.1064,-3.0815,-3.0248,-2.8921,-2.8542,-2.812,-2.7343,-2.6893,-2.6513,-2.6199,-2.5784,-2.5187,-2.4259,-2.3323,-2.2651,-2.2313,-2.2296,-2.2632,-2.3359,-2.3903,-2.4518,-2.5257,-2.6387,-2.6905,-2.6751,-2.7073,-2.6938,-2.6326,-2.6728,-2.6697,-2.6269,-2.6002,-2.529,-2.4277,-2.3949,-2.4231,-2.4938,-2.4868,-2.584,-2.725,-2.6392,-2.669,-2.7473,-2.6586,-2.6267,-2.6259,-2.6186,-2.5786,-2.5364,-2.5805,-2.5952,-2.586,-2.5438,-2.5034,-2.475,-2.475,-2.4493,-2.4281,-2.4658,-2.475,-2.486,-2.5301,-2.4787,-2.3988,-2.3245,-2.34,-2.3419,-2.2648,-2.2116,-2.1684,-2.1363,-2.0482,-1.9455,-1.8353,-1.8838,-1.9003,-1.8207,-1.8812,-1.9297,-1.9297,-1.8904,-1.8831,-1.9279,-1.9297,-1.9499,-1.9932,-2.0758,-2.1767,-2.2969,-2.3006,-2.3391,-2.419,-2.4294,-2.4384,-2.4478,-2.4575,-2.4631,-2.4639,-2.4802,-2.4891,-2.4891,-2.4987,-2.4828,-2.4453,-2.4099,-2.3872,-2.3714,-2.2974,-2.3362,-2.4303,-2.3901,-2.43,-2.5037,-3.2599,-3.255,-3.2172,-3.115,-3.1297,-3.0935,-2.913,-2.9187,-2.9124,-2.8195,-2.8088,-2.7787,-2.704,-2.6969,-2.6523,-2.546,-2.4345,-2.3383,-2.2598,-2.2428,-2.2779,-2.3684,-2.4645,-2.5561,-2.6437,-2.7444,-2.765,-2.6947,-2.758,-2.765,-2.7199,-2.7152,-2.7037,-2.6874,-2.5565,-2.4721,-2.423,-2.3619,-2.378,-2.4526,-2.5221,-2.6045,-2.685,-2.6606,-2.6831,-2.7254,-2.7019,-2.6795,-2.6693,-2.7383,-2.7163,-2.662,-2.6741,-2.6778,-2.6796,-2.6932,-2.63,-2.554,-2.5429,-2.4897,-2.4603,-2.5521,-2.5576,-2.5429,-2.554,-2.4768,-2.3621,-2.2253,-2.2428,-2.2382,-2.0951,-2.1088,-2.1005,-1.9701,-1.974,-1.9274,-1.7348,-1.8262,-1.8875,-1.8188,-1.8812,-1.9297,-1.9297,-1.9187,-1.9168,-1.9297,-1.9297,-1.9352,-1.9481,-2.0276,-2.1451,-2.2987,-2.3024,-2.3391,-2.419,-2.4401,-2.4602,-2.4753,-2.479,-2.4818,-2.4835,-2.4987,-2.504,-2.5046,-2.5224,-2.4909,-2.4279,-2.4279,-2.3779,-2.3023,-2.3122,-2.3525,-2.4047,-2.4226,-2.4639,-2.5115,-3.309,-3.2761,-3.2449,-3.2258,-3.2291,-3.2005,-3.1089,-3.1011,-3.0543,-2.9107,-2.8912,-2.8613,-2.7823,-2.7734,-2.7419,-2.66,-2.5689,-2.4742,-2.3722,-2.3032,-2.3402,-2.5108,-2.535,-2.6117,-2.76,-2.8085,-2.8092,-2.7634,-2.7762,-2.7437,-2.6713,-2.6702,-2.6318,-2.567,-2.5423,-2.4917,-2.4208,-2.4091,-2.4492,-2.5241,-2.5369,-2.6301,-2.7476,-2.6125,-2.6487,-2.7537,-2.6164,-2.6086,-2.662,-2.6741,-2.6704,-2.6722,-2.7402,-2.7603,-2.775,-2.8436,-2.7574,-2.6264,-2.5576,-2.5301,-2.5576,-2.7064,-2.6403,-2.5576,-2.6264,-2.473,-2.3116,-2.2859,-2.2373,-2.1904,-2.1647,-2.0546,-1.9829,-2.0254,-1.8705,-1.7568,-1.7869,-1.8126,-1.8243,-1.8108,-1.8812,-1.9297,-1.9297,-1.8684,-1.8574,-1.9242,-1.9297,-1.9601,-2.0272,-2.1245,-2.2218,-2.3225,-2.3086,-2.3391,-2.419,-2.4401,-2.452,-2.4553,-2.4723,-2.4862,-2.4974,-2.5176,-2.5259,-2.5259,-2.5298,-2.5231,-2.5115,-2.5115,-2.5029,-2.4879,-2.4899,-2.4971,-2.5071,-2.5111,-2.4755,-2.4298,-3.2962,-3.3056,-3.2865,-3.1765,-3.2469,-3.2577,-3.0721,-3.097,-3.0821,-2.9248,-2.905,-2.8729,-2.7934,-2.7862,-2.7625,-2.7051,-2.6281,-2.579,-2.5683,-2.398,-2.3731,-2.5424,-2.5717,-2.6673,-2.8446,-2.8633,-2.8627,-2.8448,-2.8448,-2.8253,-2.7886,-2.7886,-2.7226,-2.6043,-2.6043,-2.5364,-2.4226,-2.4658,-2.4805,-2.4879,-2.6164,-2.688,-2.7126,-2.6806,-2.7155,-2.7706,-2.6953,-2.6935,-2.731,-2.7739,-2.7886,-2.7959,-2.8326,-2.8448,-2.851,-2.8895,-2.8172,-2.6979,-2.5742,-2.5723,-2.6117,-2.6439,-2.5944,-2.5374,-2.5328,-2.4107,-2.2878,-2.2446,-2.2069,-2.1552,-2.0754,-2.0333,-1.9952,-1.9452,-1.8804,-1.8135,-1.7534,-1.8207,-1.8636,-1.8305,-1.8971,-1.9488,-1.9553,-1.9231,-1.9175,-1.9548,-1.9567,-1.994,-2.0774,-2.1674,-2.2548,-2.3374,-2.3763,-2.4174,-2.4621,-2.4718,-2.483,-2.4936,-2.5018,-2.5096,-2.5163,-2.5259,-2.5308,-2.5308,-2.5308,-2.5308,-2.5269,-2.4832,-2.4639,-2.4601,-2.4139,-2.3947,-2.3947,-2.3947,-2.3716,-2.3471,-3.2711,-3.2944,-3.276,-3.1207,-3.2228,-3.2577,-3.0608,-3.0914,-3.0889,-2.9464,-2.9115,-2.862,-2.7622,-2.7512,-2.7478,-2.7362,-2.6655,-2.6456,-2.7019,-2.5122,-2.4599,-2.5963,-2.6519,-2.7462,-2.8957,-2.9005,-2.9005,-2.9005,-2.9005,-2.9005,-2.9005,-2.8803,-2.8051,-2.6869,-2.6484,-2.564,-2.4511,-2.4934,-2.4768,-2.4392,-2.6612,-2.7145,-2.6686,-2.7493,-2.7677,-2.7512,-2.7512,-2.7512,-2.764,-2.8455,-2.8712,-2.8712,-2.8712,-2.8583,-2.8436,-2.8436,-2.7996,-2.7328,-2.6476,-2.641,-2.6502,-2.6072,-2.5668,-2.5191,-2.4373,-2.329,-2.2235,-2.162,-2.1387,-2.0934,-1.9804,-1.9977,-1.9955,-1.8896,-1.8927,-1.8802,-1.7985,-1.8786,-1.9416,-1.9326,-1.985,-2.0263,-2.0375,-2.0563,-2.06,-2.0406,-2.0745,-2.1003,-2.1091,-2.2256,-2.324,-2.3898,-2.4516,-2.4877,-2.4949,-2.4986,-2.5082,-2.5224,-2.5224,-2.5259,-2.5308,-2.5308,-2.5308,-2.5308,-2.5308,-2.5308,-2.525,-2.462,-2.4259,-2.4033,-2.3355,-2.3105,-2.3105,-2.3105,-2.297,-2.2893,-3.2601,-3.2045,-3.1531,-3.1378,-3.1482,-3.177,-3.23,-3.183,-3.1091,-3.0228,-2.9464,-2.8418,-2.6859,-2.6686,-2.6987,-2.7691,-2.702,-2.6599,-2.6643,-2.6468,-2.6731,-2.7585,-2.8366,-2.8854,-2.9005,-2.9005,-2.9005,-2.9005,-2.9005,-2.9005,-2.8987,-2.8246,-2.7835,-2.764,-2.6146,-2.5411,-2.5264,-2.4585,-2.4245,-2.4355,-2.6025,-2.6638,-2.6686,-2.7493,-2.7346,-2.6686,-2.6686,-2.6686,-2.6814,-2.7622,-2.7879,-2.7879,-2.7879,-2.7383,-2.6767,-2.6767,-2.673,-2.6987,-2.8363,-2.7684,-2.6759,-2.7438,-2.6494,-2.5191,-2.4373,-2.2382,-2.0676,-2.0621,-2.0144,-1.9724,-1.9626,-1.9132,-1.8979,-1.959,-1.851,-1.8313,-2.0494,-2.0255,-2.0399,-2.1834,-2.2061,-2.2098,-2.2111,-2.2849,-2.2987,-2.2174,-2.3554,-2.3466,-2.1223,-2.3441,-2.4899,-2.5163,-2.5044,-2.4924,-2.4825,-2.493,-2.501,-2.5022,-2.5022,-2.5111,-2.5308,-2.5308,-2.5308,-2.5308,-2.5308,-2.5308,-2.5308,-2.525,-2.4774,-2.4091,-2.4033,-2.3995,-2.3995,-2.3995,-2.349,-2.2816,-3.2693,-3.1678,-3.0846,-3.0687,-3.0779,-3.0779,-3.0418,-3.054,-3.0375,-2.9555,-2.876,-2.7842,-2.6712,-2.6602,-2.6521,-2.6329,-2.6484,-2.6602,-2.6602,-2.6135,-2.6439,-2.7732,-2.8081,-2.8491,-2.8987,-2.9005,-2.9005,-2.9005,-2.9005,-2.9005,-2.8987,-2.8172,-2.753,-2.7034,-2.641,-2.5585,-2.4695,-2.5383,-2.5107,-2.4337,-2.5952,-2.63,-2.5944,-2.6741,-2.6869,-2.6528,-2.6025,-2.587,-2.5907,-2.6219,-2.6311,-2.6403,-2.6906,-2.6851,-2.6615,-2.676,-2.6783,-2.7054,-2.8287,-2.7635,-2.6429,-2.5731,-2.5169,-2.4423,-2.3033,-2.1726,-2.0791,-2.0704,-2.0595,-2.0715,-2.1347,-2.165,-2.21,-2.2957,-2.1706,-2.1103,-2.2451,-2.1487,-2.1289,-2.3015,-2.3236,-2.3481,-2.4094,-2.4468,-2.4525,-2.4195,-2.4744,-2.4922,-2.4531,-2.545,-2.5781,-2.5303,-2.5224,-2.5171,-2.5109,-2.5165,-2.5198,-2.5198,-2.5198,-2.5224,-2.5308,-2.5308,-2.5308,-2.5308,-2.5308,-2.5308,-2.5269,-2.4755,-2.4375,-2.4052,-2.349,-2.3297,-2.3297,-2.3297,-2.3086,-2.2874,-3.2711,-3.1458,-3.0424,-3.0228,-3.0136,-2.9934,-2.9445,-2.9629,-2.9629,-2.9078,-2.8081,-2.7126,-2.6319,-2.6227,-2.6098,-2.5797,-2.6282,-2.6602,-2.6602,-2.5603,-2.5631,-2.699,-2.7291,-2.7805,-2.8601,-2.862,-2.8748,-2.9005,-2.9005,-2.9005,-2.8987,-2.8172,-2.7512,-2.6943,-2.619,-2.5364,-2.4622,-2.5217,-2.4979,-2.43,-2.5401,-2.5658,-2.5429,-2.5731,-2.6007,-2.608,-2.5026,-2.4805,-2.5035,-2.5105,-2.5124,-2.5253,-2.6063,-2.6137,-2.5993,-2.6171,-2.624,-2.6384,-2.7081,-2.7025,-2.6515,-2.5412,-2.4628,-2.3737,-2.2285,-2.1265,-2.0747,-2.1187,-2.1438,-2.1941,-2.3166,-2.3864,-2.4465,-2.5064,-2.4197,-2.3706,-2.4447,-2.3553,-2.3397,-2.49,-2.5083,-2.5365,-2.6053,-2.6346,-2.6385,-2.6135,-2.6346,-2.6519,-2.6601,-2.6101,-2.5543,-2.4947,-2.4928,-2.4788,-2.4519,-2.5038,-2.5173,-2.4928,-2.5173,-2.5308,-2.5308,-2.5308,-2.5308,-2.5308,-2.5308,-2.5308,-2.5269,-2.4697,-2.4336,-2.4033,-2.3432,-2.3201,-2.3201,-2.3201,-2.3227,-2.3338,-3.2601,-3.1298,-3.021,-3.021,-2.9537,-2.9262,-3.0081,-2.9519,-2.9005,-2.9005,-2.7611,-2.6319,-2.5503,-2.5411,-2.5723,-2.6521,-2.6583,-2.6602,-2.6583,-2.5107,-2.4566,-2.5356,-2.6153,-2.6979,-2.778,-2.7787,-2.8172,-2.8987,-2.8987,-2.8987,-2.8968,-2.8154,-2.778,-2.7677,-2.5273,-2.4658,-2.5283,-2.3694,-2.3465,-2.419,-2.419,-2.4658,-2.5283,-2.4493,-2.4677,-2.5172,-2.3566,-2.3511,-2.4219,-2.4426,-2.4485,-2.4634,-2.5446,-2.5157,-2.4553,-2.4746,-2.4804,-2.4804,-2.4804,-2.5986,-2.7204,-2.7185,-2.5341,-2.3316,-2.25,-2.1035,-2.0311,-2.196,-2.2485,-2.3144,-2.4803,-2.5241,-2.5327,-2.5346,-2.5327,-2.5615,-2.6505,-2.6621,-2.6928,-2.7818,-2.7915,-2.7915,-2.7915,-2.8646,-2.878,-2.7992,-2.8665,-2.8376,-2.6697,-2.5029,-2.4129,-2.411,-2.411,-2.3682,-2.2816,-2.4462,-2.4909,-2.411,-2.4928,-2.5308,-2.5308,-2.5308,-2.5308,-2.5308,-2.5308,-2.5308,-2.5308,-2.5308,-2.4832,-2.411,-2.411,-2.411,-2.411,-2.411,-2.4149,-2.4219,-3.344,-3.2155,-3.1035,-3.1035,-2.9916,-2.9078,-2.9317,-2.9629,-2.9629,-2.9078,-2.8583,-2.7758,-2.6392,-2.6245,-2.5878,-2.4997,-2.5952,-2.6355,-2.5797,-2.5301,-2.4897,-2.4566,-2.5338,-2.6117,-2.6943,-2.6961,-2.709,-2.7317,-2.7317,-2.7317,-2.7299,-2.6494,-2.6109,-2.6072,-2.5356,-2.486,-2.4566,-2.4658,-2.4171,-2.3354,-2.3354,-2.3162,-2.2841,-2.2602,-2.3024,-2.3529,-2.2001,-2.2362,-2.3506,-2.3086,-2.3328,-2.3944,-2.4794,-2.4888,-2.4734,-2.4904,-2.5374,-2.5876,-2.6025,-2.6858,-2.7345,-2.588,-2.5906,-2.5594,-2.2918,-2.3014,-2.3435,-2.2675,-2.4066,-2.5748,-2.6867,-2.7566,-2.8179,-2.8788,-2.7885,-2.7409,-2.8242,-2.7332,-2.7121,-2.8569,-2.8742,-2.8986,-2.9596,-2.9865,-2.9904,-2.9673,-2.9885,-2.9275,-2.7601,-2.7049,-2.5952,-2.4168,-2.411,-2.3682,-2.2816,-2.5063,-2.5505,-2.4129,-2.5543,-2.5914,-2.5364,-2.5364,-2.5364,-2.5364,-2.5364,-2.5364,-2.5364,-2.5364,-2.5251,-2.5078,-2.5078,-2.5078,-2.5078,-2.5078,-2.5093,-2.5113,-3.3807,-3.2485,-3.1397,-3.1397,-3.0081,-2.9005,-2.9005,-2.9409,-2.9537,-2.906,-2.8455,-2.7684,-2.6712,-2.6319,-2.5731,-2.4768,-2.5548,-2.5768,-2.4989,-2.4934,-2.4713,-2.4226,-2.4677,-2.5301,-2.6098,-2.6135,-2.6282,-2.6602,-2.6602,-2.6602,-2.6583,-2.5778,-2.5393,-2.5374,-2.4732,-2.4355,-2.4218,-2.4469,-2.4192,-2.3573,-2.3297,-2.2903,-2.2402,-2.1759,-2.2216,-2.2996,-2.1475,-2.1768,-2.2857,-2.2533,-2.2956,-2.3784,-2.4702,-2.4942,-2.4904,-2.5071,-2.5493,-2.6008,-2.646,-2.7236,-2.7665,-2.674,-2.6835,-2.6593,-2.449,-2.4673,-2.5192,-2.4785,-2.5997,-2.7486,-2.8679,-2.9294,-2.9794,-3.0308,-2.9538,-2.9063,-2.9544,-2.8736,-2.8486,-2.9486,-2.9602,-2.9813,-3.0346,-3.0404,-3.0404,-3.0404,-3.0422,-2.9703,-2.8025,-2.7632,-2.6308,-2.3751,-2.401,-2.3603,-2.2381,-2.5232,-2.5974,-2.4636,-2.5669,-2.6265,-2.6466,-2.6113,-2.5955,-2.5955,-2.5955,-2.5758,-2.5444,-2.5444,-2.5454,-2.5491,-2.5491,-2.5491,-2.5491,-2.5491,-2.5526,-2.5545,-3.3697,-3.2394,-3.1286,-3.1286,-3.0026,-2.9005,-2.9005,-2.9005,-2.9005,-2.9005,-2.7666,-2.6686,-2.6602,-2.5888,-2.5374,-2.5301,-2.5356,-2.5081,-2.4355,-2.43,-2.4281,-2.419,-2.419,-2.4548,-2.5283,-2.5283,-2.565,-2.6392,-2.6392,-2.6392,-2.6374,-2.565,-2.5283,-2.5227,-2.3768,-2.3538,-2.4192,-2.3655,-2.3809,-2.4366,-2.3759,-2.3457,-2.3229,-2.1683,-2.2048,-2.3191,-2.1676,-2.1683,-2.2483,-2.2756,-2.3329,-2.4085,-2.4999,-2.5168,-2.5052,-2.5253,-2.5308,-2.5481,-2.6269,-2.7178,-2.8088,-2.8819,-2.7967,-2.6909,-2.6755,-2.6212,-2.6154,-2.7601,-2.803,-2.8582,-3.0115,-3.0404,-3.0404,-3.0404,-3.0404,-3.0404,-3.0404,-3.0462,-3.0481,-3.0404,-3.0538,-3.0596,-3.0519,-3.0577,-3.0621,-3.0639,-3.0627,-2.9879,-2.8218,-2.7362,-2.5749,-2.3195,-2.388,-2.3534,-2.1956,-2.5024,-2.6182,-2.5409,-2.5624,-2.6571,-2.8087,-2.7283,-2.6931,-2.6911,-2.6831,-2.6361,-2.5617,-2.5539,-2.5503,-2.5526,-2.5526,-2.5526,-2.5526,-2.5526,-2.5556,-2.5605,-3.2858,-3.1568,-3.0467,-3.0467,-2.9647,-2.9005,-2.9005,-2.9005,-2.9005,-2.9005,-2.8154,-2.7291,-2.6667,-2.5888,-2.5154,-2.453,-2.5044,-2.5319,-2.5154,-2.5136,-2.486,-2.4226,-2.419,-2.4281,-2.4456,-2.4456,-2.4538,-2.4722,-2.4722,-2.4722,-2.4722,-2.4538,-2.4456,-2.4438,-2.4273,-2.4278,-2.4444,-2.4459,-2.4173,-2.3691,-2.3551,-2.3118,-2.2438,-2.1469,-2.1708,-2.2458,-2.1567,-2.2206,-2.3606,-2.4426,-2.4826,-2.4999,-2.5221,-2.5269,-2.5234,-2.5298,-2.5308,-2.5346,-2.5538,-2.6717,-2.7934,-2.8126,-2.8871,-2.9231,-2.7928,-2.8486,-2.9038,-2.8082,-2.8948,-2.9962,-3.0327,-3.0404,-3.0404,-3.0404,-3.0404,-3.0404,-3.0404,-3.0981,-3.1154,-3.0481,-3.1558,-3.2102,-3.1487,-3.1987,-3.2393,-3.2517,-3.1903,-3.0808,-2.9178,-2.8282,-2.6658,-2.4097,-2.4194,-2.4118,-2.3748,-2.4526,-2.5106,-2.5489,-2.6887,-2.7755,-2.8171,-2.7975,-2.7897,-2.7858,-2.7174,-2.6763,-2.6549,-2.5864,-2.5605,-2.566,-2.566,-2.566,-2.566,-2.566,-2.5661,-2.5682,-3.21,-3.1035,-3.021,-3.021,-2.9537,-2.9005,-2.9005,-2.8675,-2.8565,-2.895,-2.764,-2.6641,-2.6612,-2.5529,-2.4658,-2.4245,-2.4585,-2.4824,-2.4824,-2.4824,-2.464,-2.4208,-2.419,-2.419,-2.419,-2.4294,-2.4294,-2.419,-2.419,-2.419,-2.4199,-2.4303,-2.4339,-2.4348,-2.4543,-2.4639,-2.4654,-2.4816,-2.4632,-2.4227,-2.432,-2.3885,-2.3114,-2.2694,-2.2536,-2.2541,-2.2608,-2.3189,-2.4028,-2.4543,-2.4736,-2.4793,-2.5173,-2.5308,-2.5308,-2.5308,-2.5308,-2.5385,-2.5808,-2.6582,-2.7371,-2.7799,-2.8852,-2.966,-2.9198,-3.0096,-3.0769,-2.989,-3.0717,-3.1596,-3.1596,-3.1596,-3.1596,-3.1596,-3.1596,-3.1596,-3.1596,-3.2039,-3.2204,-3.1741,-3.2498,-3.2885,-3.2459,-3.2807,-3.2893,-3.2544,-3.214,-3.1009,-2.8938,-2.8436,-2.7003,-2.4431,-2.4743,-2.4763,-2.4353,-2.5206,-2.6046,-2.6835,-2.7336,-2.8028,-2.8862,-2.8862,-2.8862,-2.8842,-2.8392,-2.7728,-2.6908,-2.6458,-2.6033,-2.5703,-2.5703,-2.5703,-2.5703,-2.5703,-2.5703,-2.5703,-3.1347,-3.0558,-2.9989,-2.9989,-2.9445,-2.9005,-2.9005,-2.8319,-2.8081,-2.8895,-2.7016,-2.587,-2.6539,-2.5162,-2.419,-2.419,-2.419,-2.419,-2.419,-2.419,-2.419,-2.419,-2.419,-2.4209,-2.4256,-2.44,-2.4428,-2.4256,-2.4284,-2.4303,-2.4312,-2.4469,-2.4543,-2.4551,-2.4741,-2.4828,-2.4842,-2.4999,-2.5046,-2.5077,-2.5224,-2.4909,-2.4298,-2.4149,-2.374,-2.3293,-2.3898,-2.4187,-2.4317,-2.4317,-2.4317,-2.4413,-2.5096,-2.5308,-2.5308,-2.5308,-2.5308,-2.55,-2.6365,-2.6717,-2.7024,-2.7895,-2.8723,-2.9544,-3.0423,-3.1173,-3.166,-3.1506,-3.2122,-3.2641,-3.2506,-3.2583,-3.2699,-3.2699,-3.282,-3.294,-3.294,-3.3175,-3.3279,-3.3124,-3.3299,-3.3481,-3.3618,-3.3637,-3.329,-3.2422,-3.2274,-3.1185,-2.8788,-2.8571,-2.7461,-2.5137,-2.5625,-2.5644,-2.5078,-2.6348,-2.7441,-2.8281,-2.7715,-2.8359,-3.0039,-3.0039,-3.0039,-3.0039,-2.9726,-2.8789,-2.7422,-2.7129,-2.6562,-2.5918,-2.5762,-2.5703,-2.5703,-2.5703,-2.5703,-2.5703,-3.0522,-2.9702,-2.9152,-2.9152,-2.9078,-2.9005,-2.9005,-2.8319,-2.8081,-2.8895,-2.7501,-2.6484,-2.6583,-2.5162,-2.419,-2.419,-2.419,-2.419,-2.419,-2.419,-2.419,-2.419,-2.419,-2.4275,-2.4452,-2.4486,-2.4486,-2.4452,-2.4631,-2.4723,-2.4723,-2.4746,-2.476,-2.4768,-2.4917,-2.4974,-2.4986,-2.5187,-2.5264,-2.5264,-2.5298,-2.5231,-2.5058,-2.4356,-2.4471,-2.4885,-2.4317,-2.4548,-2.5135,-2.5135,-2.5135,-2.5154,-2.5269,-2.5308,-2.5308,-2.5308,-2.5308,-2.55,-2.6365,-2.7159,-2.7915,-2.8723,-2.9583,-3.0442,-3.1333,-3.1621,-3.1487,-3.0731,-3.125,-3.1641,-3.0885,-3.1346,-3.1852,-3.1852,-3.2538,-3.3064,-3.3064,-3.379,-3.4027,-3.3271,-3.3861,-3.4604,-3.5298,-3.5357,-3.5054,-3.4289,-3.3534,-3.2362,-3.0624,-2.9824,-2.8926,-2.7812,-2.7168,-2.7129,-2.7773,-2.7266,-2.7441,-2.8301,-2.8945,-3.0156,-3.1855,-3.1855,-3.1855,-3.1758,-3.0254,-2.9473,-2.9121,-2.7617,-2.6934,-2.6758,-2.5996,-2.5703,-2.5703,-2.5703,-2.5703,-2.5703,-2.9684,-2.9244,-2.9005,-2.9005,-2.9005,-2.9005,-2.9005,-2.8319,-2.8081,-2.8895,-2.7592,-2.6822,-2.7374,-2.5996,-2.4856,-2.4403,-2.4257,-2.419,-2.419,-2.419,-2.419,-2.419,-2.4312,-2.4419,-2.4503,-2.4678,-2.4776,-2.4776,-2.4792,-2.4804,-2.4804,-2.4889,-2.4917,-2.4923,-2.5082,-2.5163,-2.5168,-2.5264,-2.5308,-2.5308,-2.5308,-2.5308,-2.5269,-2.4909,-2.4716,-2.4582,-2.4221,-2.462,-2.5308,-2.5308,-2.5308,-2.5308,-2.5308,-2.5308,-2.5308,-2.5308,-2.5635,-2.6115,-2.6505,-2.7236,-2.7992,-2.8338,-2.9089,-2.9814,-3.0163,-3.1056,-3.1806,-3.1805,-3.2129,-3.2315,-3.1929,-3.2638,-3.3252,-3.3252,-3.3979,-3.4404,-3.3954,-3.4263,-3.4439,-3.4078,-3.4372,-3.4937,-3.5794,-3.5872,-3.5331,-3.4035,-3.3567,-3.2418,-3.0293,-2.9805,-2.9199,-2.832,-2.793,-2.791,-2.8301,-2.8398,-2.8652,-2.9043,-3.0391,-3.0957,-3.0762,-3.125,-3.1465,-3.1426,-3.0664,-2.9766,-2.8809,-2.8047,-2.7148,-2.623,-2.5859,-2.5703,-2.5703,-2.5703,-2.5703,-2.5703]},{"header":{"parameterUnit":"m.s-1","parameterCategory":1,"la1":30.6,"la2":28.766,"lo1":-90.7593,"lo2":-88.6598,"dy":0.0162,"dx":0.0183,"nx":116,"ny":114,"refTime":"2023-08-13T06:00:00:Z","depth":0,"parameterNumber":3,"parameterNumberName":"V-component_of_WINDS"},"data":[0.0,0.0,0.0,0.0,0.0,0.0,0.0,0.0,0.0,0.0,0.0,0.0,0.0,0.0,0.0,0.0,0.0,0.0,0.0,0.0,0.0,0.0,0.0,0.0,0.0,0.0,0.0,0.0,0.0,0.0,0.0,0.0,0.0,0.0,0.0,0.0,0.0,0.0,0.0,0.0,0.0,0.0,0.0,0.0,0.0,0.0,0.0,0.0,0.0,0.0,0.0,0.0,0.0,0.0,0.0,0.0,0.0,0.0,0.0,0.0,0.0,0.0,0.0,0.0,0.0,0.0,0.0,0.0,0.0,0.0,0.0,0.0,0.0,0.0,0.0,0.0,0.0,0.0,0.0,0.0,0.0,0.0,0.0,0.0,0.0,0.0,0.0,0.0,0.0,0.0,0.0,0.0,0.0,0.0,0.0,0.0,0.0,0.0,0.0,0.0,0.0,0.0,0.0,0.0,0.0,0.0,0.0,0.0,0.0,0.0,0.0,0.0,0.0,0.0,0.0,0.0,0.0,0.0,0.0,0.0,0.0,0.0,0.0,0.0,0.0,0.0,0.0,0.0,0.0,0.0,0.0,0.0,0.0,0.0,0.0,0.0,0.0,0.0,0.0,0.0,0.0,0.0,0.0,0.0,0.0,0.0,0.0,0.0,0.0,0.0,0.0,0.0,0.0,0.0,0.0,0.0,0.0,0.0,0.0,0.0,0.0,0.0,0.0,0.0,0.0,0.0,0.0,0.0,0.0,0.0,0.0,0.0,0.0,0.0,0.0,0.0,0.0,0.0,0.0,0.0,0.0,0.0,0.0,0.0,0.0,0.0,0.0,0.0,0.0,0.0,0.0,0.0,0.0,0.0,0.0,0.0,0.0,0.0,0.0,0.0,0.0,0.0,0.0,0.0,0.0,0.0,0.0,0.0,0.0,0.0,0.0,0.0,0.0,0.0,0.0,0.0,0.0,0.0,0.0,0.0,0.0,0.0,0.0,0.0,0.0,0.0,0.0,0.0,0.0,0.0,0.0,0.0,0.0,0.0,0.0,0.0,0.0,0.0,0.0,0.0,0.0,0.0,0.0,0.0,0.0,0.0,0.0,0.0,0.0,0.0,0.0,0.0,0.0,0.0,0.0,0.0,0.0,0.0,0.0,0.0,0.0,0.0,0.0,0.0,0.0,0.0,0.0,0.0,0.0,0.0,0.0,0.0,0.0,0.0,0.0,0.0,0.0,0.0,0.0,0.0,0.0,0.0,0.0,0.0,0.0,0.0,0.0,0.0,0.0,0.0,0.0,0.0,0.0,0.0,0.0,0.0,0.0,0.0,0.0,0.0,0.0,0.0,0.0,0.0,0.0,0.0,0.0,0.0,0.0,0.0,0.0,0.0,0.0,0.0,0.0,0.0,0.0,0.0,0.0,0.0,0.0,0.0,0.0,0.0,0.0,0.0,0.0,0.0,0.0,0.0,0.0,0.0,0.0,0.0,0.0,0.0,0.0,0.0,0.0,0.0,0.0,0.0,0.0,0.0,0.0,0.0,0.0,0.0,0.0,0.0,0.0,0.0,0.0,0.0,0.0,0.0,0.0,0.0,0.0,0.0,0.0,0.0,0.0,0.0,0.0,0.0,0.0,0.0,0.0,0.0,0.0,0.0,0.0,0.0,0.0,0.0,0.0,0.0,0.0,0.0,0.0,0.0,0.0,0.0,0.0,0.0,0.0,0.0,0.0,0.0,0.0,0.0,0.0,0.0,0.0,0.0,0.0,0.0,0.0,0.0,0.0,0.0,0.0,0.0,0.0,0.0,0.0,0.0,0.0,0.0,0.0,0.0,0.0,0.0,0.0,0.0,0.0,0.0,0.0,0.0,0.0,0.0,0.0,0.0,0.0,0.0,0.0,0.0,0.0,0.0,0.0,0.0,0.0,0.0,0.0,0.0,0.0,0.0,0.0,0.0,0.0,0.0,0.0,0.0,0.0,0.0,0.0,0.0,0.0,0.0,0.0,0.0,0.0,0.0,0.0,0.0,0.0,0.0,0.0,0.0,0.0,0.0,0.0,0.0,0.0,0.0,0.0,0.0,0.0,0.0,0.0,0.0,0.0,0.0,0.0,0.0,0.0,0.0,0.0,0.0,0.0,0.0,0.0,0.0,0.0,0.0,0.0,0.0,0.0,0.0,0.0,0.0,0.0,0.0,0.0,0.0,0.0,0.0,0.0,0.0,0.0,0.0,0.0,0.0,0.0,0.0,0.0,0.0,0.0,0.0,0.0,0.0,0.0,0.0,0.0,0.0,0.0,0.0,0.0,0.0,0.0,0.0,0.0,0.0,0.0,0.0,0.0,0.0,0.0,0.0,0.0,0.0,0.0,0.0,0.0,0.0,0.0,0.0,0.0,0.0,0.0,0.0,0.0,0.0,0.0,0.0,0.0,0.0,0.0,0.0,0.0,0.0,0.0,0.0,0.0,0.0,0.0,0.0,0.0,0.0,0.0,0.0,0.0,0.0,0.0,0.0,0.0,0.0,0.0,0.0,0.0,0.0,0.0,0.0,0.0,0.0,0.0,0.0,0.0,0.0,0.0,0.0,0.0,0.0,0.0,0.0,0.0,0.0,0.0,0.0,0.0,0.0,0.0,0.0,0.0,0.0,0.0,0.0,0.0,0.0,0.0,0.0,0.0,0.0,0.0,0.0,0.0,0.0,0.0,0.0,0.0,0.0,0.0,0.0,0.0,0.0,0.0,0.0,0.0,0.0,0.0,0.0,0.0,0.0,0.0,0.0,0.0,0.0,0.0,0.0,0.0,0.0,0.0,0.0,0.0,0.0,0.0,0.0,0.0,0.0,0.0,0.0,0.0,0.0,0.0,0.0,0.0,0.0,0.0,0.0,0.0,0.0,0.0,0.0,0.0,0.0,0.0,0.0,0.0,0.0,0.0,0.0,0.0,0.0,0.0,0.0,0.0,0.0,0.0,0.0,0.0,0.0,0.0,0.0,0.0,0.0,0.0,0.0,0.0,0.0,0.0,0.0,0.0,0.0,0.0,0.0,0.0,0.0,0.0,0.0,0.0,0.0,0.0,0.0,0.0,0.0,0.0,0.0,0.0,0.0,0.0,0.0,0.0,0.0,0.0,0.0,0.0,0.0,0.0,0.0,0.0,0.0,0.0,0.0,0.0,0.0,0.0,0.0,0.0,0.0,0.0,0.0,0.0,0.0,0.0,0.0,0.0,0.0,0.0,0.0,0.0,0.0,0.0,0.0,0.0,0.0,0.0,0.0,0.0,0.0,0.0,0.0,0.0,0.0,0.0,0.0,0.0,0.0,0.0,0.0,0.0,0.0,0.0,0.0,0.0,0.0,0.0,0.0,0.0,0.0,0.0,0.0,0.0,0.0,0.0,0.0,0.0,0.0,0.0,0.0,0.0,0.0,0.0,0.0,0.0,0.0,0.0,0.0,0.0,0.0,0.0,0.0,0.0,0.0,0.0,0.0,0.0,0.0,0.0,0.0,0.0,0.0,0.0,0.0,0.0,0.0,0.0,0.0,0.0,0.0,0.0,0.0,0.0,0.0,0.0,0.0,0.0,0.0,0.0,0.0,0.0,0.0,0.0,0.0,0.0,0.0,0.0,0.0,0.0,0.0,0.0,0.0,0.0,0.0,0.0,0.0,0.0,0.0,0.0,0.0,0.0,0.0,0.0,0.0,0.0,0.0,0.0,0.0,0.0,0.0,0.0,0.0,0.0,0.0,0.0,0.0,0.0,0.0,0.0,0.0,0.0,0.0,0.0,0.0,0.0,0.0,0.0,0.0,0.0,0.0,0.0,0.0,0.0,0.0,0.0,0.0,0.0,0.0,0.0,0.0,0.0,0.0,0.0,0.0,0.0,0.0,0.0,0.0,0.0,0.0,0.0,0.0,0.0,0.0,0.0,0.0,0.0,0.0,0.0,0.0,0.0,0.0,0.0,0.0,0.0,0.0,0.0,0.0,0.0,0.0,0.0,0.0,0.0,0.0,0.0,0.0,0.0,0.0,0.0,0.0,0.0,0.0,0.0,0.0,0.0,0.0,0.0,0.0,0.0,0.0,0.0,0.0,0.0,0.0,0.0,0.0,0.0,0.0,0.0,0.0,0.0,0.0,0.0,0.0,0.0,0.0,0.0,0.0,0.0,0.0,0.0,0.0,0.0,0.0,0.0,0.0,0.0,0.0,0.0,0.0,0.0,0.0,0.0,0.0,0.0,0.0,0.0,0.0,0.0,0.0,0.0,0.0,0.0,0.0,0.0,0.0,0.0,0.0,0.0,0.0,0.0,0.0,0.0,0.0,0.0,0.0,0.0,0.0,0.0,0.0,0.0,0.0,0.0,0.0,0.0,0.0,0.0,0.0,0.0,0.0,0.0,0.0,0.0,0.0,0.0,0.0,0.0,0.0,0.0,0.0,0.0,0.0,0.0,0.0,0.0,0.0,0.0,0.0,0.0,0.0,0.0,0.0,0.0,0.0,0.0,0.0,0.0,0.0,0.0,0.0,0.0,0.0,0.0,0.0,0.0,0.0,0.0,0.0,0.0,0.0,0.0,0.0,0.0,0.0,0.0,0.0,0.0,0.0,0.0,0.0,0.0,0.0,0.0,0.0,0.0,0.0,0.0,0.0,0.0,0.0,0.0,0.0,0.0,0.0,0.0,0.0,0.0,0.0,0.0,0.0,0.0,0.0,0.0,0.0,0.0,0.0,0.0,0.0,0.0,0.0,0.0,0.0,0.0,0.0,0.0,0.0,0.0,0.0,0.0,0.0,0.0,0.0,0.0,0.0,0.0,0.0,0.0,0.0,0.0,0.0,0.0,0.0,0.0,0.0,0.0,0.0,0.0,0.0,0.0,0.0,0.0,0.0,0.0,0.0,0.0,0.0,0.0,0.0,0.0,0.0,0.0,0.0,0.0,0.0,0.0,0.0,0.0,0.0,0.0,0.0,0.0,0.0,0.0,0.0,0.0,0.0,0.0,0.0,0.0,0.0,0.0,0.0,0.0,0.0,0.0,0.0,0.0,0.0,0.0,0.0,0.0,0.0,0.0,0.0,0.0,0.0,0.0,0.0,0.0,0.0,0.0,0.0,0.0,0.0,0.0,0.0,0.0,0.0,0.0,0.0,0.0,0.0,0.0,0.0,0.0,0.0,0.0,0.0,0.0,0.0,0.0,0.0,0.0,0.0,0.0,0.0,0.0,0.0,0.0,0.0,0.0,0.0,0.0,0.0,0.0,0.0,0.0,0.0,0.0,0.0,0.0,0.0,0.0,0.0,0.0,0.0,0.0,0.0,0.0,0.0,0.0,0.0,0.0,0.0,0.0,0.0,0.0,0.0,0.0,0.0,0.0,0.0,0.0,0.0,0.0,0.0,0.0,0.0,0.0,0.0,0.0,0.0,0.0,0.0,0.0,0.0,0.0,0.0,0.0,0.0,0.0,0.0,0.0,0.0,0.0,0.0,0.0,0.0,0.0,0.0,0.0,0.0,0.0,0.0,0.0,0.0,0.0,0.0,0.0,0.0,0.0,0.0,0.0,0.0,0.0,0.0,0.0,0.0,0.0,0.0,0.0,0.0,0.0,0.0,0.0,0.0,0.0,0.0,0.0,0.0,0.0,0.0,0.0,0.0,0.0,0.0,0.0,0.0,0.0,0.0,0.0,0.0,0.0,0.0,0.0,0.0,0.0,0.0,0.0,0.0,0.0,0.0,0.0,0.0,0.0,0.0,0.0,0.0,0.0,0.0,0.0,0.0,0.0,0.0,0.0,0.0,0.0,0.0,0.0,0.0,0.0,0.0,0.0,0.0,0.0,0.0,0.0,0.0,0.0,0.0,0.0,0.0,0.0,0.0,0.0,0.0,0.0,0.0,0.0,0.0,0.0,0.0,0.0,0.0,0.0,0.0,0.0,0.0,0.0,0.0,0.0,0.0,0.0,0.0,0.0,0.0,0.0,0.0,0.0,0.0,0.0,0.0,0.0,0.0,0.0,0.0,0.0,0.0,0.0,0.0,0.0,0.0,0.0,0.0,0.0,0.0,0.0,0.0,0.0,0.0,0.0,0.0,0.0,0.0,0.0,0.0,0.0,0.0,0.0,0.0,-1.7106,0.0,0.0,0.0,0.0,0.0,0.0,0.0,0.0,0.0,0.0,0.0,0.0,0.0,0.0,0.0,0.0,0.0,0.0,0.0,0.0,0.0,0.0,0.0,0.0,0.0,0.0,0.0,0.0,0.0,0.0,0.0,0.0,0.0,0.0,0.0,0.0,0.0,0.0,0.0,0.0,0.0,0.0,0.0,0.0,0.0,0.0,0.0,0.0,0.0,0.0,0.0,0.0,0.0,0.0,0.0,0.0,0.0,0.0,0.0,0.0,0.0,0.0,0.0,0.0,0.0,0.0,0.0,0.0,0.0,0.0,0.0,0.0,0.0,0.0,0.0,0.0,0.0,0.0,0.0,0.0,0.0,0.0,0.0,0.0,0.0,0.0,0.0,0.0,0.0,0.0,0.0,0.0,0.0,0.0,0.0,0.0,0.0,0.0,0.0,0.0,0.0,0.0,0.0,0.0,0.0,0.0,0.0,0.0,0.0,0.0,0.0,0.0,0.0,0.0,0.0,0.0,-1.7971,0.0,0.0,0.0,0.0,0.0,0.0,0.0,0.0,0.0,0.0,0.0,0.0,0.0,0.0,0.0,0.0,0.0,0.0,0.0,0.0,0.0,0.0,0.0,0.0,0.0,0.0,0.0,0.0,0.0,0.0,0.0,0.0,0.0,0.0,0.0,0.0,0.0,0.0,0.0,0.0,0.0,0.0,0.0,0.0,0.0,0.0,0.0,0.0,0.0,0.0,0.0,0.0,0.0,0.0,0.0,0.0,0.0,0.0,0.0,0.0,0.0,0.0,0.0,0.0,0.0,0.0,0.0,0.0,0.0,0.0,0.0,0.0,0.0,0.0,0.0,0.0,0.0,0.0,0.0,0.0,0.0,0.0,0.0,0.0,0.0,0.0,0.0,0.0,0.0,0.0,0.0,0.0,0.0,0.0,0.0,0.0,0.0,0.0,0.0,0.0,0.0,0.0,0.0,0.0,0.0,0.0,0.0,0.0,-2.5831,-2.6402,-2.6755,-2.6366,-2.6302,-2.6333,-2.3375,-2.1443,-2.0325,-1.9414,0.0,0.0,0.0,0.0,0.0,0.0,0.0,0.0,0.0,0.0,0.0,0.0,0.0,0.0,0.0,0.0,0.0,0.0,0.0,0.0,0.0,0.0,0.0,0.0,0.0,0.0,0.0,0.0,0.0,0.0,0.0,0.0,0.0,0.0,0.0,0.0,0.0,0.0,-1.9913,-2.1887,-2.3494,-2.4611,0.0,0.0,0.0,0.0,0.0,0.0,0.0,0.0,0.0,0.0,0.0,0.0,0.0,0.0,0.0,0.0,0.0,0.0,0.0,0.0,0.0,0.0,0.0,0.0,0.0,0.0,0.0,0.0,0.0,0.0,0.0,0.0,0.0,0.0,0.0,0.0,0.0,0.0,0.0,0.0,0.0,0.0,0.0,0.0,-1.78,-1.78,0.0,0.0,0.0,0.0,0.0,0.0,0.0,0.0,0.0,0.0,0.0,0.0,0.0,-2.4423,-2.5795,-2.7994,-2.8321,-2.6872,-2.945,-3.0058,-2.8956,-2.8444,-2.8755,-2.9608,-2.8178,0.0,-2.3039,-2.1182,0.0,0.0,0.0,0.0,0.0,0.0,0.0,0.0,0.0,0.0,0.0,0.0,0.0,0.0,0.0,0.0,0.0,0.0,0.0,0.0,0.0,0.0,0.0,0.0,0.0,0.0,0.0,0.0,0.0,0.0,0.0,0.0,0.0,0.0,0.0,0.0,-2.0145,-2.1312,-2.2564,-2.3985,-2.5406,-2.6776,-2.549,-2.522,-2.5675,-2.4711,0.0,0.0,0.0,0.0,0.0,0.0,0.0,0.0,0.0,0.0,0.0,0.0,0.0,0.0,0.0,0.0,0.0,0.0,0.0,0.0,0.0,0.0,0.0,0.0,0.0,0.0,0.0,0.0,0.0,0.0,0.0,0.0,0.0,0.0,0.0,0.0,0.0,0.0,0.0,-1.851,-1.8729,-1.7901,-1.8527,-1.8848,0.0,0.0,0.0,0.0,0.0,0.0,0.0,0.0,0.0,-2.5203,-2.5964,-2.708,-2.8602,-3.0412,-3.1533,-3.1938,-3.3666,-3.4363,-3.4154,-3.3063,-3.2852,-3.3249,-3.1559,-2.9827,-2.7899,-2.4758,-2.2936,-2.2039,0.0,0.0,0.0,0.0,-2.1329,-2.1974,0.0,0.0,0.0,0.0,0.0,0.0,0.0,0.0,0.0,0.0,0.0,0.0,0.0,0.0,0.0,-1.8189,0.0,0.0,0.0,0.0,0.0,0.0,0.0,0.0,0.0,0.0,0.0,0.0,-2.1651,-2.3357,-2.5371,-2.6319,-2.7554,-2.8939,-2.8939,-2.8552,-2.7807,-2.7232,-2.6031,0.0,0.0,0.0,0.0,0.0,0.0,0.0,0.0,0.0,0.0,0.0,0.0,0.0,0.0,0.0,0.0,0.0,0.0,0.0,0.0,0.0,0.0,0.0,0.0,0.0,0.0,0.0,0.0,0.0,0.0,0.0,0.0,0.0,0.0,0.0,0.0,0.0,0.0,-1.9541,-1.9963,-1.8273,-1.9896,-2.064,0.0,0.0,0.0,0.0,0.0,0.0,-2.554,-2.6353,-2.7266,-2.8383,-2.9311,-3.0444,-3.1799,-3.3085,-3.4556,-3.6191,-3.6789,-3.7266,-3.7553,-3.628,-3.5584,-3.5305,-3.3384,-3.2296,-3.1562,-2.7876,-2.5745,-2.4641,-2.3381,-2.3185,-2.3607,-2.3607,-2.4258,-2.5083,0.0,0.0,0.0,0.0,0.0,0.0,0.0,0.0,0.0,0.0,0.0,0.0,0.0,0.0,-1.8239,-1.9765,-1.9917,-1.9659,0.0,0.0,0.0,0.0,0.0,0.0,0.0,0.0,0.0,-2.114,-2.3985,-2.615,-2.7672,-2.9159,-3.0666,-3.2073,-3.2073,-3.1667,-3.0818,-2.8652,-2.7689,-2.7401,0.0,0.0,0.0,0.0,0.0,0.0,0.0,0.0,0.0,0.0,0.0,0.0,0.0,0.0,0.0,0.0,0.0,0.0,0.0,0.0,0.0,0.0,0.0,0.0,0.0,0.0,0.0,0.0,0.0,0.0,0.0,0.0,0.0,0.0,0.0,0.0,0.0,0.0,0.0,-1.9113,-2.207,0.0,0.0,0.0,0.0,-2.6302,-2.6387,-2.7114,-2.8688,-2.9465,-3.0852,-3.3,-3.445,-3.5622,-3.6457,-3.7229,-3.7686,-3.7787,-3.7838,-3.7452,-3.6726,-3.6021,-3.5284,-3.448,-3.3096,-3.2496,-3.2257,-2.9549,-2.8248,-2.7854,-2.6573,-2.6082,-2.6135,-2.6135,-2.6282,-2.6408,0.0,0.0,0.0,0.0,0.0,0.0,0.0,0.0,0.0,0.0,0.0,0.0,0.0,-1.7912,-1.9316,-2.1316,-2.1485,-2.1164,-2.0429,0.0,0.0,0.0,0.0,0.0,0.0,0.0,-2.1333,-2.4036,-2.6032,-2.779,-2.9311,-3.0801,-3.1529,-3.1599,-3.1599,-3.1464,-3.114,-3.0328,-2.9125,-2.7655,-2.5913,-2.4441,0.0,0.0,0.0,0.0,0.0,0.0,0.0,0.0,0.0,0.0,0.0,0.0,0.0,0.0,0.0,0.0,0.0,0.0,0.0,0.0,0.0,0.0,0.0,0.0,0.0,0.0,0.0,0.0,0.0,0.0,0.0,0.0,0.0,0.0,0.0,0.0,0.0,-2.39,-2.598,0.0,-2.6302,-2.6708,-2.7536,-2.8789,-2.977,-3.1176,-3.3152,-3.3981,-3.4979,-3.6265,-3.6823,-3.7449,-3.8217,-3.8481,-3.8853,-3.9334,-3.9334,-3.8897,-3.809,-3.6936,-3.5956,-3.5125,-3.3743,-3.314,-3.3036,-3.1674,-3.0531,-2.958,-2.8746,-2.8414,-2.8414,-2.8414,-2.8718,-2.9086,0.0,0.0,0.0,0.0,0.0,0.0,0.0,0.0,0.0,0.0,0.0,-1.5433,-1.7901,-1.9063,-2.067,-2.3192,-2.2736,-2.187,-2.0856,0.0,0.0,0.0,0.0,0.0,0.0,-2.1383,-2.3344,-2.6336,-2.7841,-2.9345,-3.0852,-3.1599,-3.1938,-3.1935,-3.1664,-3.1582,-3.1582,-3.1582,-3.026,-2.8129,-2.7148,-2.5981,-2.4609,0.0,0.0,0.0,0.0,0.0,0.0,0.0,0.0,0.0,0.0,0.0,0.0,0.0,0.0,0.0,0.0,0.0,0.0,0.0,0.0,0.0,0.0,0.0,0.0,0.0,0.0,0.0,0.0,0.0,0.0,0.0,0.0,0.0,0.0,0.0,-2.6945,-2.7419,-2.9685,-3.0818,-2.9785,-3.0376,-3.1258,-3.2273,-3.3491,-3.4928,-3.6671,-3.7246,-3.7753,-3.8261,-3.8514,-3.8751,-3.8988,-3.9266,-3.948,-3.9705,-3.9705,-3.9139,-3.8084,-3.7163,-3.6321,-3.5493,-3.4331,-3.3829,-3.3784,-3.311,-3.2183,-3.112,-3.0492,-3.0238,-3.0238,-3.0238,-3.0492,-3.0851,0.0,0.0,0.0,0.0,0.0,0.0,0.0,0.0,0.0,0.0,-1.4073,-1.5687,-1.8623,-2.0327,-2.2443,-2.5321,-2.3564,-2.1654,-2.0103,-1.8628,0.0,0.0,0.0,0.0,-2.1309,-2.4137,-2.6353,-2.7908,-2.9396,-3.0869,-3.2276,-3.1582,-3.2002,-3.3339,-3.2632,-3.231,-3.2327,-3.231,-3.1075,-2.9128,-2.9044,-2.769,-2.5541,0.0,0.0,0.0,0.0,0.0,0.0,0.0,0.0,0.0,0.0,0.0,0.0,0.0,0.0,0.0,0.0,0.0,0.0,0.0,0.0,0.0,0.0,0.0,0.0,0.0,0.0,0.0,0.0,0.0,0.0,0.0,0.0,0.0,-2.363,-2.8044,-3.0768,-2.945,-3.3102,-3.516,-3.3728,-3.5588,-3.6897,-3.688,-3.755,-3.8278,-3.8988,-3.9022,-3.9022,-3.9022,-3.974,-3.9757,-3.9039,-3.9757,-3.9705,-3.8908,-3.8908,-3.8101,-3.6615,-3.6615,-3.6196,-3.5474,-3.4801,-3.4533,-3.4488,-3.3784,-3.3125,-3.2452,-3.1795,-3.1525,-3.1511,-3.1511,-3.1511,-3.1511,0.0,0.0,0.0,0.0,0.0,0.0,0.0,0.0,0.0,0.0,-1.4962,-1.7016,-1.9439,-2.1549,-2.334,-2.4694,-2.3274,-2.1654,-2.0103,0.0,0.0,0.0,0.0,0.0,0.0,-2.5186,-2.7131,-3.0277,-3.0683,-3.1376,-3.2293,-3.209,-3.2209,-3.2598,-3.2395,-3.2615,-3.3068,-3.253,-3.2259,-3.2002,-2.9873,-2.862,-2.7842,0.0,0.0,0.0,0.0,0.0,0.0,0.0,0.0,0.0,0.0,0.0,0.0,0.0,0.0,0.0,0.0,0.0,0.0,0.0,0.0,0.0,0.0,0.0,0.0,0.0,0.0,0.0,0.0,0.0,0.0,0.0,0.0,-2.9059,-2.9059,-3.1207,-3.3457,-3.525,-3.7466,-3.8481,-3.755,-3.8522,-3.8979,-3.8454,-3.9097,-3.9588,-3.9791,-3.9808,-3.9808,-3.9808,-3.9994,-4.0011,-3.9808,-3.9994,-3.9705,-3.8908,-3.8908,-3.8101,-3.6615,-3.6615,-3.6196,-3.5489,-3.531,-3.522,-3.513,-3.3978,-3.338,-3.3155,-3.2497,-3.1929,-3.1511,-3.1511,-3.1511,-3.1511,0.0,0.0,0.0,0.0,0.0,0.0,0.0,0.0,0.0,0.0,-1.5073,-1.7067,-1.9287,-2.0995,-2.253,-2.3915,-2.2378,-2.0826,-1.9625,0.0,0.0,0.0,0.0,0.0,0.0,0.0,-2.9161,-3.1667,-3.1968,-3.2171,-3.2293,-3.2293,-3.2462,-3.2767,-3.2767,-3.3169,-3.3829,-3.3389,-3.3288,-3.3254,-3.1529,-3.0668,-3.0144,-2.7875,-2.7012,-2.6793,-2.4966,-2.4881,-2.5372,-2.3765,0.0,0.0,0.0,0.0,0.0,0.0,0.0,0.0,0.0,0.0,0.0,0.0,0.0,0.0,0.0,0.0,0.0,0.0,0.0,0.0,0.0,0.0,0.0,0.0,-3.0751,-3.3119,-3.4709,-3.5402,-3.6637,-3.9005,-4.0037,-4.051,-4.0375,-4.0764,-4.0832,-4.0409,-4.1068,-4.1204,-4.0578,-4.0544,-4.0434,-4.0113,-4.0096,-4.0096,-4.0096,-3.9782,-3.9209,-3.8442,-3.8117,-3.7306,-3.6134,-3.6134,-3.5926,-3.5504,-3.5504,-3.5504,-3.5429,-3.4352,-3.3739,0.0,0.0,0.0,0.0,0.0,-3.1511,-3.1511,0.0,0.0,0.0,0.0,0.0,0.0,0.0,0.0,0.0,0.0,0.0,-1.6323,-1.82,-1.9287,-2.069,-2.2716,-2.1028,-1.9625,0.0,0.0,0.0,0.0,0.0,0.0,0.0,0.0,0.0,-3.2429,-3.3,-3.2983,-3.2429,-3.2344,-3.2679,-3.3406,-3.3406,-3.3863,-3.4624,-3.4523,-3.4167,-3.3643,-3.3558,-3.3068,-3.2209,-3.0144,-2.9365,-2.9094,-2.6996,-2.6353,-2.6353,-2.554,0.0,0.0,0.0,0.0,0.0,0.0,0.0,0.0,0.0,0.0,0.0,0.0,0.0,0.0,0.0,0.0,0.0,0.0,0.0,0.0,0.0,0.0,0.0,0.0,-3.41,-3.6383,-3.9961,-3.9918,-3.9952,-4.1187,-4.1474,-4.1779,-4.2236,-4.2371,-4.2354,-4.2185,-4.2794,-4.2557,-4.1153,0.0,0.0,0.0,0.0,-4.0104,-4.035,-3.9375,-3.8604,-3.8017,-3.7199,-3.6411,-3.5609,-3.5609,-3.5579,-3.5504,-3.5504,-3.5504,-3.5444,-3.4788,-3.4038,-3.326,-3.1989,-3.1511,-3.1511,-3.1511,-3.1511,-3.1511,0.0,0.0,0.0,0.0,0.0,0.0,0.0,0.0,0.0,-1.2483,-1.431,-1.5544,-1.5366,-1.7608,-1.9283,-1.9722,-1.9367,-1.9287,0.0,0.0,0.0,0.0,0.0,0.0,0.0,0.0,0.0,0.0,-3.273,-3.273,-3.3169,-3.2581,-3.2679,-3.3406,-3.3406,-3.415,-3.5346,-3.4742,-3.4759,-3.5109,-3.4539,-3.3846,-3.3085,-3.2056,-3.1667,-3.1532,-3.048,-3.0886,-3.1698,-3.0345,-2.9702,-2.9211,-2.7723,0.0,0.0,0.0,0.0,0.0,0.0,0.0,0.0,0.0,0.0,0.0,0.0,0.0,0.0,0.0,0.0,0.0,0.0,0.0,0.0,-3.5374,-3.7669,-3.9876,-4.2395,-4.2632,-4.2439,-4.2117,-4.321,-4.3504,-4.2405,-4.2844,-4.2692,-4.1508,-4.1542,-4.1238,-4.0367,-4.0316,-4.051,-4.0967,-3.978,-4.0004,-4.1847,-3.9841,-3.9044,-3.9486,0.0,0.0,-3.6297,-3.6297,-3.6013,-3.5504,-3.5504,-3.5504,-3.5444,-3.4788,-3.3784,-3.2617,-3.1809,-3.1511,-3.1511,-3.1511,-3.1511,-3.1511,0.0,0.0,0.0,0.0,0.0,0.0,0.0,0.0,0.0,0.0,-1.3904,-1.5054,-1.5054,-1.6705,-1.7958,-1.8318,-1.8352,0.0,0.0,0.0,0.0,0.0,0.0,0.0,0.0,0.0,0.0,0.0,-3.3389,-3.3389,-3.3389,-3.3017,-3.3051,-3.3423,-3.3795,-3.4573,-3.5566,-3.5216,-3.5245,-3.5566,-3.5199,-3.4844,-3.4416,-3.3677,-3.341,-3.3359,-3.2966,-3.3322,-3.3728,-3.2259,-3.1258,-3.0328,-2.8433,-2.6573,-2.4695,0.0,0.0,0.0,0.0,0.0,0.0,0.0,0.0,0.0,0.0,0.0,0.0,0.0,0.0,-2.8535,0.0,0.0,-3.6079,-3.908,-4.0798,-4.2286,-4.3792,-4.3995,-4.3859,-4.347,-4.3775,-4.3859,-4.3498,-4.3081,-4.2709,-4.2337,-4.1965,-4.1424,-4.0679,-4.101,-4.0997,-4.0565,-4.015,-4.0285,-4.1025,-3.9489,-3.8716,-3.8747,-3.7923,-3.698,-3.5998,-3.5998,-3.5818,-3.5504,-3.5504,-3.5504,-3.5429,-3.4397,-3.3215,-3.1959,-3.163,-3.1511,-3.1511,-3.1511,-3.1511,-3.1511,0.0,0.0,0.0,0.0,0.0,0.0,0.0,0.0,0.0,0.0,0.0,-1.4334,-1.4496,-1.5436,-1.6417,0.0,0.0,0.0,0.0,0.0,0.0,0.0,0.0,0.0,0.0,0.0,0.0,0.0,0.0,-3.3914,-3.3609,-3.3474,-3.3491,-3.3643,-3.4387,-3.5131,-3.5819,-3.5819,-3.5819,-3.5802,-3.565,-3.5515,-3.5329,-3.4895,-3.4624,-3.4455,-3.4167,-3.3964,-3.3711,-3.2835,-3.1613,-3.026,-2.8704,-2.7706,-2.664,-2.4289,-2.412,0.0,0.0,0.0,0.0,0.0,0.0,0.0,0.0,0.0,-2.6742,-2.8501,-3.0446,-3.2611,-3.5115,-3.7313,-3.958,-4.21,-4.3149,-4.3859,-4.4513,-4.4615,-4.4547,-4.4395,-4.3927,-4.3893,-4.4547,-4.3318,-4.276,-4.3341,-4.2591,-4.188,-4.1441,-4.1546,-4.118,-4.0181,-4.0279,-4.0227,-4.0048,-3.8932,-3.8248,-3.7993,-3.7104,-3.6327,-3.5699,-3.5699,-3.5624,-3.5504,-3.5504,-3.5504,-3.54,-3.4053,-3.2871,-3.1854,-3.16,-3.1511,-3.1511,-3.1511,-3.1511,-3.1511,0.0,0.0,0.0,0.0,0.0,0.0,0.0,0.0,0.0,0.0,0.0,0.0,0.0,0.0,0.0,0.0,0.0,0.0,0.0,0.0,0.0,0.0,0.0,0.0,0.0,0.0,0.0,0.0,0.0,-3.3173,-3.4353,-3.3711,-3.3744,-3.4404,-3.5143,-3.5926,-3.6677,-3.6677,-3.6677,-3.6609,-3.5893,-3.5216,-3.4692,-3.5267,-3.5081,-3.432,-3.3021,-3.2141,-3.1732,-3.2899,-3.273,-3.2242,-3.3288,-3.3119,-3.1968,-2.9094,0.0,-2.4831,-2.1867,-2.1309,-2.2494,-2.6353,-2.637,-2.7199,0.0,0.0,-3.322,-3.6062,-3.7364,-3.8311,-3.9285,-4.0747,-4.2134,-4.3132,-4.3944,-4.4513,-4.4598,-4.4615,-4.4316,-4.3639,-4.4079,-4.4513,-4.4598,-4.3809,-4.3291,-4.3375,-4.2117,-4.1576,-4.2151,-4.0338,-3.9842,-4.1024,-3.9049,-3.8905,-4.0845,-3.8642,-3.8159,-3.9435,-3.7997,-3.6985,-3.6372,-3.6372,-3.6058,-3.5504,-3.5504,-3.5504,-3.54,-3.4053,-3.341,-3.3155,-3.1959,-3.1511,-3.1511,-3.1511,-3.1511,-3.1511,0.0,0.0,0.0,0.0,0.0,0.0,0.0,0.0,0.0,0.0,0.0,0.0,0.0,0.0,0.0,0.0,0.0,0.0,0.0,0.0,0.0,0.0,0.0,0.0,0.0,0.0,0.0,0.0,0.0,-3.2615,-3.3224,-3.3339,-3.3558,-3.3931,-3.5571,-3.6508,-3.6829,-3.7246,-3.7178,-3.6778,-3.6417,-3.5825,-3.5081,-3.4539,-3.3863,-3.3089,-3.2056,-3.1464,0.0,0.0,-2.9937,-2.9871,-3.0973,-3.0463,-2.9093,-2.6996,-2.5998,0.0,-2.4611,-2.5066,0.0,0.0,-2.9973,-3.2138,-3.4827,-3.6079,-3.7144,-3.8819,-4.0443,-4.166,-4.1955,-4.2912,-4.3572,0.0,-4.4079,-4.4293,-4.3396,-4.3278,-4.2963,-4.2219,-4.2033,-4.233,-4.3193,-4.2574,-4.2134,-4.2134,-4.1559,-4.1122,-4.09,-4.0475,-4.0254,-4.026,-3.9343,-3.9029,-3.9468,-3.8508,-3.7925,-3.7846,-3.7188,-3.6537,-3.5908,-3.5908,-3.5774,-3.5489,-3.5085,-3.4696,-3.4262,-3.332,-3.2706,-3.2273,-3.172,-3.1511,-3.1511,-3.1511,-3.1511,-3.1511,0.0,0.0,0.0,0.0,0.0,0.0,0.0,0.0,0.0,0.0,0.0,0.0,0.0,0.0,0.0,0.0,0.0,0.0,0.0,0.0,0.0,0.0,0.0,0.0,0.0,0.0,0.0,0.0,0.0,-3.2209,-3.2615,-3.2933,-3.322,-3.3491,-3.5554,-3.6451,-3.6502,-3.7043,-3.7094,-3.6761,-3.6338,-3.569,-3.4822,-3.3355,-3.2205,-3.1295,-3.0531,-2.9871,0.0,0.0,-2.6742,-2.6759,-2.774,-2.7453,-2.6454,-2.5185,-2.4881,-2.5203,-2.6133,0.0,0.0,-3.0262,-3.3406,-3.6343,-3.684,-3.8481,-4.0223,-4.1416,-4.2591,-4.3325,-4.3149,-4.3403,-4.347,-4.2895,-4.3284,-4.3345,-4.2422,-4.2117,-4.1728,-4.0984,-4.024,-4.0146,-4.1001,-4.0967,-4.1085,-4.1474,-4.1119,-4.0721,-4.0275,-4.0439,-4.0176,-3.9389,-3.9172,-3.875,-3.8123,-3.7943,-3.7404,-3.6492,-3.6297,-3.5968,-3.5504,-3.5504,-3.5504,-3.5474,-3.4771,-3.4339,-3.3963,-3.2946,-3.2303,-3.2004,-3.1645,-3.1511,-3.1511,-3.1511,-3.1511,-3.1511,0.0,0.0,0.0,0.0,0.0,0.0,0.0,0.0,0.0,0.0,0.0,0.0,0.0,0.0,0.0,0.0,0.0,0.0,0.0,0.0,0.0,0.0,0.0,0.0,0.0,0.0,0.0,0.0,0.0,-3.1968,-3.3355,-3.2666,-3.2716,-3.3474,-3.4957,-3.5633,-3.5633,-3.565,-3.6113,-3.6677,-3.5165,-3.4134,-3.3322,-3.1833,-3.0345,-2.8993,-2.8179,0.0,0.0,0.0,-2.4118,-2.3782,-2.5253,-2.6167,0.0,-2.5795,-2.4577,0.0,0.0,0.0,-2.9856,-3.3444,-3.6096,-3.8768,-4.231,-4.2658,-4.2828,-4.5077,-4.4401,-4.32,-4.2472,-4.1762,-4.1305,-4.1271,-4.1288,-4.1542,-4.2202,-4.1677,-4.0967,-4.0214,-3.9478,-3.8768,0.0,-3.9301,-4.0747,-4.2151,-4.0942,-4.0428,-4.1102,-3.9706,-3.882,-3.8725,-3.7913,-3.7469,-3.7434,-3.6851,-3.6522,-3.6477,-3.5833,-3.5534,-3.5504,-3.5504,-3.5504,-3.5474,-3.4771,-3.4846,-3.5295,-3.332,-3.2886,-3.3305,-3.2004,-3.1511,-3.1511,-3.1511,-3.1511,-3.1511,0.0,0.0,0.0,0.0,0.0,0.0,0.0,0.0,0.0,0.0,0.0,0.0,0.0,0.0,0.0,0.0,0.0,0.0,0.0,0.0,0.0,0.0,0.0,0.0,0.0,0.0,0.0,0.0,0.0,-2.9991,-3.0499,-3.0717,-3.1224,-3.2002,-3.3491,-3.467,-3.56,-3.56,-3.6062,-3.6575,-3.407,-3.2903,-3.2324,-2.9347,-2.73,-2.5794,0.0,0.0,0.0,0.0,0.0,0.0,-2.2922,0.0,0.0,-2.2598,-2.3714,-2.5406,0.0,0.0,-3.4049,-3.6789,-3.9157,-4.1271,-4.3031,-4.4012,-4.4333,-4.3589,-4.2642,-4.1424,-3.9698,-3.9191,-3.8853,-3.8345,-3.9918,-4.0781,-3.9546,-4.0003,-3.9817,-3.8108,-3.7692,0.0,0.0,0.0,0.0,-3.9265,-3.9305,-3.9171,-3.8832,-3.8779,-3.8662,-3.852,-3.7785,-3.7404,-3.7404,-3.6791,-3.6267,-3.5833,-3.5609,-3.5504,-3.5504,-3.5504,-3.5504,-3.5474,-3.4771,-3.4638,-3.4728,-3.3155,-3.2647,-3.2766,-3.1854,-3.1511,-3.1511,-3.1511,-3.1511,-3.1511,0.0,0.0,0.0,0.0,0.0,0.0,0.0,0.0,0.0,0.0,0.0,0.0,0.0,0.0,0.0,0.0,0.0,0.0,0.0,0.0,0.0,0.0,0.0,0.0,0.0,0.0,0.0,0.0,0.0,0.0,-2.7402,-2.7875,-2.8349,-2.8874,-3.0074,-3.1292,-3.2388,-3.2134,-3.2476,-3.3004,-3.0804,-2.9754,-2.9196,-2.6251,-2.4389,0.0,0.0,0.0,0.0,0.0,0.0,0.0,0.0,-2.0961,-2.1028,-2.207,-2.4491,-2.752,0.0,-3.4387,-3.7686,-3.9681,-4.1847,-4.3639,-4.4102,-4.4367,-4.4062,-4.2591,-4.0646,-3.8616,-3.6654,-3.5436,-3.481,-3.5154,-3.6772,-3.799,-3.7922,-3.8481,-3.8589,-3.7692,-3.7134,-3.6914,0.0,0.0,0.0,-3.7451,-3.8324,-3.8383,-3.7313,-3.8381,-3.8818,-3.8412,-3.7749,-3.7404,-3.7404,-3.6567,-3.5923,-3.5504,-3.5504,-3.5504,-3.5504,-3.5504,-3.5504,-3.5474,-3.4771,-3.4503,-3.4414,-3.3051,-3.2512,-3.2422,-3.1765,-3.1511,-3.1511,-3.1511,-3.1511,-3.1511,0.0,0.0,0.0,0.0,0.0,0.0,0.0,0.0,0.0,0.0,0.0,0.0,0.0,0.0,0.0,0.0,0.0,0.0,0.0,0.0,0.0,0.0,0.0,0.0,0.0,0.0,0.0,0.0,0.0,0.0,-2.4357,-2.4342,-2.4358,-2.4458,-2.5153,-2.5897,-2.659,-2.5862,-2.5998,-2.6623,-2.5778,-2.5033,-2.4271,-2.2716,0.0,0.0,0.0,0.0,0.0,0.0,0.0,0.0,0.0,0.0,-2.2835,-2.4338,-2.6945,-3.0127,-3.3766,-3.7472,-4.0671,-4.1999,-4.4045,-4.5669,-4.5517,-4.3792,-4.2168,-4.1948,-3.843,-3.489,0.0,0.0,-2.9704,-3.1836,-3.2378,-3.3783,-3.7347,-3.733,-3.7472,0.0,0.0,0.0,0.0,0.0,0.0,-3.6798,0.0,-3.8095,-3.6708,-3.8484,-3.9176,-3.8427,-3.7778,-3.7464,-3.7464,-3.6193,-3.5534,-3.5504,-3.5504,-3.5504,-3.5504,-3.5504,-3.5504,-3.5474,-3.4848,-3.4533,-3.4414,-3.3095,-3.2542,-3.2422,-3.1765,-3.1511,-3.1511,-3.1511,-3.1511,-3.1511,0.0,0.0,0.0,0.0,0.0,0.0,0.0,0.0,0.0,0.0,0.0,0.0,0.0,0.0,0.0,0.0,0.0,0.0,0.0,0.0,0.0,0.0,0.0,0.0,0.0,0.0,0.0,0.0,0.0,0.0,-2.248,-2.2171,-2.2482,0.0,-2.3494,-2.444,-2.5828,-2.5084,-2.5523,-2.6488,0.0,-2.3359,-2.3376,0.0,0.0,0.0,0.0,0.0,0.0,0.0,0.0,0.0,0.0,0.0,-2.5981,-2.8061,-3.1173,-3.4506,-3.7127,-4.0603,-4.3413,-4.3183,-4.4434,-4.5111,-4.2861,-4.1897,-4.0527,-3.7178,-3.4269,-3.1529,0.0,0.0,0.0,-3.048,-3.3457,0.0,-3.6965,-3.8352,0.0,0.0,0.0,-3.9093,-3.8609,-3.8365,0.0,0.0,-3.6888,-3.7109,-3.7204,-3.8167,-3.8622,-3.8427,-3.8227,-3.8138,-3.8138,-3.6866,-3.5983,-3.5504,-3.5504,-3.5504,-3.5504,-3.5504,-3.5504,-3.5489,-3.5325,-3.4951,-3.4444,-3.3589,-3.2961,-3.2422,-3.1765,-3.1511,-3.1511,-3.1511,-3.1511,-3.1511,0.0,0.0,0.0,0.0,0.0,0.0,0.0,0.0,0.0,0.0,0.0,0.0,0.0,0.0,0.0,0.0,0.0,0.0,0.0,0.0,0.0,0.0,0.0,0.0,0.0,0.0,0.0,0.0,0.0,0.0,0.0,-1.8818,-1.9091,-1.9986,-1.9794,-2.081,-2.2598,0.0,0.0,0.0,0.0,0.0,0.0,0.0,0.0,0.0,0.0,0.0,0.0,0.0,0.0,-2.4002,-2.5406,-2.7588,-3.0023,-3.1948,0.0,-3.8067,-4.0324,-4.2963,-4.4959,-4.4536,-4.457,-4.3995,-4.1322,-3.9428,-3.7178,-3.3355,-3.0531,0.0,0.0,0.0,0.0,0.0,0.0,0.0,-3.6907,-3.8345,-3.9326,0.0,-4.0324,0.0,-3.9375,-3.9276,-3.8884,0.0,-3.7544,-3.7331,-3.7389,-3.8317,-3.8841,-3.8841,-3.8542,-3.8257,-3.7958,-3.6985,-3.6297,-3.5938,-3.5639,-3.5504,-3.5504,-3.5504,-3.5504,-3.5504,-3.5504,-3.4951,-3.4023,-3.3649,-3.2946,-3.2019,-3.1645,-3.1511,-3.1511,-3.1511,-3.1511,-3.1511,0.0,0.0,0.0,0.0,0.0,0.0,0.0,0.0,0.0,0.0,0.0,0.0,0.0,0.0,0.0,0.0,0.0,0.0,0.0,0.0,0.0,0.0,0.0,0.0,0.0,0.0,0.0,0.0,0.0,0.0,0.0,0.0,0.0,0.0,0.0,0.0,0.0,0.0,0.0,0.0,0.0,0.0,0.0,0.0,0.0,0.0,0.0,0.0,0.0,0.0,-2.4898,-2.6623,-2.8993,-3.1681,-3.432,-3.587,-3.8253,-4.0823,-4.2834,-4.4536,-4.5652,-4.5466,-4.4401,-4.2743,-4.0231,-3.6846,-3.3305,-3.0159,0.0,-2.456,-2.253,0.0,-2.346,-2.6505,0.0,-3.143,-3.711,-3.799,-3.887,-4.1085,-4.1235,-4.0906,-4.0221,-4.0061,-3.9898,-3.9606,-3.8916,-3.8272,-3.7704,-3.8781,-3.9388,-3.9388,-3.8841,-3.8212,-3.7539,-3.6926,-3.6567,-3.6477,-3.5818,-3.5504,-3.5504,-3.5504,-3.5504,-3.5504,-3.5504,-3.4786,-3.3619,-3.3529,-3.2766,-3.163,-3.154,-3.1511,-3.1511,-3.1511,-3.1438,-3.1351,0.0,0.0,0.0,0.0,0.0,0.0,0.0,0.0,0.0,0.0,-0.8454,-0.8515,0.0,0.0,0.0,0.0,0.0,0.0,0.0,0.0,0.0,0.0,0.0,0.0,0.0,0.0,0.0,0.0,0.0,0.0,0.0,0.0,0.0,0.0,0.0,0.0,0.0,0.0,0.0,0.0,0.0,0.0,0.0,0.0,0.0,0.0,0.0,0.0,0.0,0.0,-2.7554,-2.982,-3.2645,-3.5182,-3.7533,-3.9631,-4.1035,-4.2134,-4.3149,-4.4536,-4.5399,-4.4102,-4.3595,-4.2354,-3.8278,-3.495,0.0,0.0,0.0,-2.2581,-2.158,-2.2392,0.0,-2.8011,0.0,0.0,0.0,0.0,-3.9631,0.0,0.0,0.0,0.0,0.0,0.0,0.0,0.0,-3.9185,-3.908,-3.9254,-3.9388,-3.9388,-3.9305,-3.8916,-3.8227,-3.7569,-3.6985,-3.6477,-3.5818,-3.5504,-3.5504,-3.5504,-3.5504,-3.5504,-3.5504,0.0,-3.4294,-3.3724,-3.3036,-3.2258,-3.172,-3.1511,-3.1511,-3.1511,-3.1087,-3.0524,0.0,0.0,0.0,0.0,0.0,0.0,0.0,-0.7876,-0.8162,-0.8234,-0.8247,-0.8351,-0.8636,-0.8908,0.0,0.0,0.0,0.0,0.0,0.0,0.0,0.0,0.0,0.0,0.0,0.0,0.0,0.0,0.0,0.0,0.0,0.0,0.0,0.0,0.0,0.0,0.0,0.0,0.0,0.0,0.0,0.0,0.0,0.0,0.0,0.0,0.0,0.0,0.0,0.0,-2.6404,-2.9683,-3.4252,-3.7246,-3.9318,-4.0781,-4.1999,-4.3132,-4.4299,-4.5145,-4.5432,-4.4316,-4.2844,-4.051,-3.6045,0.0,0.0,0.0,0.0,-2.0758,-1.9638,0.0,0.0,0.0,0.0,0.0,0.0,0.0,0.0,0.0,0.0,0.0,0.0,0.0,0.0,0.0,0.0,-3.9388,-3.9388,-3.9388,-3.9388,-3.9388,-3.9388,-3.926,-3.8931,-3.7913,-3.7255,-3.6956,-3.5968,-3.5504,-3.5504,-3.5504,-3.5504,-3.5489,-3.513,-3.4592,-3.3918,-3.326,-3.2572,-3.1944,-3.163,-3.1511,-3.1511,-3.1511,-3.1248,-3.0866,0.0,0.0,0.0,0.0,0.0,0.0,0.0,-0.7546,-0.7949,-0.809,-0.8095,-0.8274,-0.8732,-0.8557,-0.8454,0.0,0.0,0.0,0.0,0.0,0.0,0.0,0.0,0.0,0.0,0.0,0.0,0.0,0.0,0.0,0.0,0.0,0.0,0.0,0.0,0.0,0.0,0.0,0.0,0.0,0.0,0.0,0.0,0.0,0.0,0.0,0.0,0.0,0.0,0.0,-2.4223,-2.7553,-3.2933,-3.6823,-3.9454,-3.9884,-4.1508,-4.3436,-4.4654,-4.5213,-4.528,-4.4519,-4.2093,-3.8742,-3.4387,-2.9803,0.0,0.0,-2.0314,-1.9258,-1.8425,0.0,0.0,0.0,0.0,0.0,0.0,0.0,0.0,0.0,0.0,0.0,0.0,0.0,0.0,0.0,0.0,-3.926,-3.9373,-3.9388,-3.9388,-3.9388,-3.9388,-3.9388,-3.9388,-3.8078,-3.7404,-3.7389,-3.6118,-3.5504,-3.5504,-3.5504,-3.5429,-3.525,-3.4711,-3.4098,-3.344,-3.2781,-3.2183,-3.1705,-3.1555,-3.1511,-3.1511,-3.1511,-3.1278,-3.0866,0.0,0.0,0.0,0.0,0.0,0.0,0.0,-0.7623,-0.7949,-0.809,-0.8095,-0.8191,-0.8419,-0.8412,-0.8341,0.0,0.0,0.0,0.0,0.0,0.0,0.0,0.0,0.0,0.0,0.0,0.0,0.0,0.0,0.0,0.0,0.0,0.0,0.0,0.0,0.0,0.0,0.0,0.0,0.0,0.0,0.0,0.0,0.0,0.0,0.0,0.0,0.0,0.0,0.0,0.0,-2.3361,-2.6607,-3.2005,-3.6958,-3.6315,0.0,0.0,-4.2557,-4.3623,-4.4502,-4.3724,-4.1288,-3.8091,-3.4269,0.0,0.0,0.0,-1.9486,-1.8374,-1.9579,-2.0018,0.0,0.0,0.0,0.0,0.0,0.0,0.0,0.0,0.0,0.0,0.0,0.0,0.0,0.0,0.0,-3.8751,-3.9394,-3.9388,-3.9388,-3.9388,-3.9388,-3.9388,-3.9388,-3.8078,-3.7404,-3.7389,-3.6118,-3.5504,-3.5504,-3.5504,-3.516,-3.4593,-3.4533,-3.4098,0.0,-3.2781,-3.2452,-3.2333,-3.1735,-3.1511,-3.1511,-3.1511,-3.0554,-2.9223,0.0,0.0,0.0,0.0,0.0,0.0,-0.6778,-0.7488,-0.7928,-0.7969,-0.8043,-0.8097,-0.8102,-0.8285,-0.8367,0.0,0.0,0.0,0.0,0.0,0.0,0.0,0.0,0.0,0.0,0.0,0.0,0.0,0.0,0.0,0.0,0.0,0.0,0.0,0.0,0.0,0.0,0.0,0.0,0.0,0.0,0.0,0.0,0.0,0.0,0.0,0.0,0.0,0.0,0.0,0.0,0.0,-2.1248,-2.505,0.0,0.0,-3.6157,-3.887,-4.1559,-4.3447,-4.431,-4.3047,-4.0849,-3.777,-3.3136,0.0,0.0,-2.1092,-1.9051,-1.7986,-1.8577,-1.9203,-2.0126,0.0,0.0,0.0,0.0,0.0,0.0,0.0,0.0,0.0,0.0,0.0,0.0,0.0,0.0,-3.8512,-3.8781,-3.9185,-3.9388,-3.9388,-3.9388,-3.923,-3.8796,-3.8272,-3.7614,-3.6851,-3.6342,-3.5893,-3.5504,-3.5504,-3.5355,-3.5055,-3.4247,-3.3739,0.0,-3.2333,-3.1899,-3.1869,-3.16,-3.119,-3.0777,-3.0777,-3.0011,-2.8907,0.0,0.0,0.0,0.0,0.0,-0.5931,-0.641,-0.7299,-0.7899,-0.7899,-0.7983,-0.7996,-0.7914,-0.7984,-0.8039,-0.8039,0.0,0.0,0.0,0.0,0.0,0.0,0.0,0.0,0.0,0.0,-1.2752,-1.2788,-1.3473,0.0,0.0,0.0,0.0,0.0,0.0,0.0,0.0,0.0,0.0,0.0,0.0,0.0,0.0,0.0,0.0,0.0,0.0,0.0,0.0,0.0,0.0,0.0,0.0,0.0,0.0,0.0,-3.2405,-3.5633,-3.8802,-4.1276,-4.2694,-4.1617,-3.9168,-3.5973,0.0,0.0,-2.3122,-2.0525,-1.8831,-1.7845,-1.7955,-1.8763,-1.9441,0.0,0.0,0.0,0.0,0.0,0.0,0.0,0.0,0.0,0.0,0.0,0.0,0.0,0.0,-3.8093,-3.8093,-3.8751,-3.911,-3.911,-3.8931,-3.8586,-3.8108,-3.7928,-3.7375,-3.6492,-3.6297,-3.5953,-3.5504,-3.5504,-3.5295,-3.4861,-3.3903,-3.3275,0.0,-3.1884,-3.1351,-3.1161,-3.1161,-3.0644,-2.9919,-2.9919,-2.9348,-2.8524,0.0,0.0,0.0,0.0,0.0,0.0,0.0,-0.709,-0.7899,-0.7899,-0.7899,-0.7899,-0.7899,-0.7491,-0.7203,-0.7203,0.0,0.0,0.0,0.0,0.0,0.0,0.0,0.0,0.0,0.0,-1.2314,-1.2314,-1.3049,-1.3269,-1.3004,-1.3004,0.0,0.0,0.0,0.0,0.0,0.0,0.0,0.0,0.0,0.0,0.0,0.0,0.0,0.0,0.0,0.0,0.0,0.0,0.0,0.0,0.0,0.0,0.0,0.0,-2.7638,-3.344,-3.3491,-3.6257,-3.9136,-3.9042,-3.5716,-3.2045,0.0,0.0,-2.1874,-2.0322,-1.8831,-1.7911,-1.8327,-1.895,-1.9535,-1.9928,-2.071,0.0,0.0,0.0,0.0,0.0,0.0,0.0,0.0,0.0,0.0,0.0,-3.7793,0.0,-3.7419,-3.8048,-3.8407,-3.8407,-3.7764,-3.7419,-3.7419,-3.6806,-3.6492,-3.6477,-3.5833,-3.5519,-3.5504,-3.5504,-3.4771,-3.3514,-3.3499,-3.2766,0.0,-3.1511,-3.1029,-3.0299,-3.0299,-2.9797,-2.9002,-2.9002,-2.846,-2.7703,0.0,0.0,0.0,0.0,0.0,0.0,0.0,-0.7246,-0.7047,-0.6586,-0.6651,-0.6685,-0.6544,-0.657,-0.6568,-0.6521,0.0,0.0,0.0,0.0,0.0,0.0,0.0,0.0,0.0,0.0,-1.1756,-1.2297,-1.3032,-1.3354,-1.326,-1.326,-1.3226,-1.3139,0.0,0.0,0.0,0.0,0.0,0.0,0.0,0.0,0.0,0.0,0.0,0.0,0.0,0.0,0.0,0.0,0.0,0.0,0.0,0.0,0.0,0.0,0.0,0.0,-2.937,-3.1283,-3.2536,-3.2248,-3.0149,-2.7763,-2.6281,-2.3061,-2.0171,-1.9403,-1.8108,-1.7232,-1.758,-1.7816,-1.8287,-1.9296,-1.976,0.0,0.0,0.0,0.0,0.0,0.0,0.0,0.0,0.0,0.0,0.0,-3.8197,-3.7883,-3.7434,-3.721,-3.7494,-3.8362,-3.8182,-3.7853,-3.7404,-3.721,-3.6686,-3.5818,-3.6058,-3.5938,-3.5504,-3.5504,-3.5011,-3.4174,-3.3694,-3.3006,-3.2109,-3.1116,-3.0524,-3.0238,-2.9628,-2.8876,-2.8117,-2.8117,-2.7571,-2.6871,0.0,0.0,0.0,0.0,0.0,0.0,0.0,-0.7331,-0.6757,-0.6326,-0.6168,-0.6032,-0.5914,-0.5823,-0.5775,-0.5782,0.0,0.0,0.0,0.0,0.0,0.0,0.0,0.0,0.0,-1.0265,-1.1062,-1.184,-1.2609,-1.3125,-1.3396,-1.3396,-1.3396,-1.3388,-1.3234,0.0,0.0,0.0,0.0,0.0,0.0,0.0,-1.3383,0.0,0.0,0.0,0.0,0.0,0.0,0.0,0.0,0.0,0.0,0.0,0.0,0.0,-1.9159,0.0,0.0,-2.6908,-2.7725,-2.7608,-2.575,0.0,0.0,-2.0782,-1.8555,-1.868,-1.7694,-1.6828,-1.6914,-1.7324,-1.7868,-1.8539,-1.9334,0.0,0.0,0.0,0.0,0.0,0.0,0.0,0.0,0.0,0.0,0.0,-3.8302,-3.7838,-3.7434,-3.6821,-3.6851,-3.7644,-3.7434,-3.7105,-3.6701,-3.6686,-3.6282,-3.5504,-3.5654,-3.5552,-3.51,-3.4861,-3.4382,-3.3709,-3.3305,-3.2556,0.0,-3.0684,-2.9919,-2.9286,-2.8716,-2.7986,-2.7263,-2.7263,-2.6939,-2.6499,0.0,0.0,0.0,0.0,0.0,0.0,0.0,0.0,-0.6816,-0.6757,-0.6177,-0.5754,-0.5754,-0.5207,-0.4896,-0.5024,0.0,0.0,0.0,0.0,0.0,0.0,0.0,0.0,0.0,-0.9675,-1.0413,-1.1103,-1.1959,-1.2728,-1.3396,-1.3447,-1.3447,-1.3396,-1.3447,-1.3447,-1.3396,-1.3179,-1.3293,-1.3544,-1.3177,-1.3399,0.0,0.0,0.0,0.0,0.0,0.0,0.0,0.0,0.0,0.0,0.0,0.0,0.0,0.0,0.0,0.0,0.0,0.0,0.0,0.0,0.0,0.0,0.0,-1.899,0.0,-1.8077,-1.7458,-1.6662,-1.6418,-1.7312,-1.8053,-1.7883,-1.9447,0.0,0.0,0.0,0.0,0.0,0.0,0.0,0.0,0.0,0.0,-3.9254,-3.8153,-3.7434,-3.7345,-3.6791,-3.6462,-3.6417,-3.5818,-3.5504,-3.5504,-3.5504,-3.5459,-3.5355,-3.4756,-3.4488,-3.4414,-3.3769,-3.314,0.0,-3.2437,-3.1603,-3.0299,-3.0178,-2.916,-2.7703,-2.7637,-2.7162,-2.6499,-2.6499,-2.6499,-2.6499,0.0,0.0,0.0,0.0,0.0,0.0,0.0,0.0,0.0,0.0,-0.4779,-0.4368,-0.4368,-0.4318,-0.4293,0.0,0.0,0.0,0.0,0.0,0.0,0.0,0.0,0.0,0.0,-1.0172,-1.0927,-1.1103,-1.2474,-1.3227,-1.3413,-1.3971,-1.3938,-1.343,-1.3988,-1.3921,-1.3422,-1.3926,-1.3889,-1.3434,-1.3336,-1.3404,0.0,0.0,0.0,0.0,-1.5544,-1.6079,0.0,0.0,0.0,0.0,0.0,0.0,0.0,0.0,-1.6408,-1.6427,-1.8038,0.0,-1.8112,-1.7427,0.0,0.0,0.0,0.0,0.0,0.0,0.0,0.0,0.0,-1.706,-1.7525,0.0,0.0,0.0,0.0,0.0,0.0,0.0,0.0,0.0,0.0,0.0,0.0,-3.7958,-3.8048,-3.7734,-3.6746,-3.6567,-3.6252,-3.5744,-3.5594,-3.5504,-3.5504,-3.5504,-3.4996,-3.3963,-3.4339,-3.4249,-3.3724,-3.3559,-3.314,-3.2452,-3.1805,-3.1045,-3.0208,-2.8876,-2.8084,-2.7637,-2.704,-2.6692,-2.6499,-2.6499,-2.6499,-2.6499,0.0,0.0,0.0,0.0,0.0,0.0,0.0,0.0,0.0,0.0,0.0,0.0,0.0,0.0,0.0,0.0,0.0,0.0,0.0,0.0,0.0,0.0,0.0,0.0,-0.9393,-1.0183,-1.0944,-1.1654,-1.2491,-1.3235,-1.3904,-1.4318,-1.4284,-1.3904,-1.3971,-1.3777,-1.343,-1.3828,-1.376,-1.3396,-1.3396,0.0,0.0,0.0,0.0,0.0,-1.5977,-1.635,0.0,-1.6316,-1.6147,-1.5994,0.0,0.0,0.0,0.0,-1.6337,-1.603,-1.6499,-1.6549,-1.6329,-1.5645,-1.4975,-1.4707,0.0,0.0,0.0,0.0,0.0,0.0,0.0,0.0,0.0,0.0,0.0,0.0,0.0,0.0,0.0,0.0,0.0,0.0,0.0,0.0,-3.8646,-3.7913,-3.7644,-3.721,-3.6522,-3.6207,-3.5863,-3.5519,-3.5504,-3.5504,-3.5504,-3.519,-3.4666,-3.3979,-3.3694,-3.3181,-3.2442,-3.2162,-3.1626,-3.0865,-3.0404,-2.9768,-2.9034,-2.8084,-2.7484,-2.7095,-2.6692,-2.6499,-2.6499,-2.6499,-2.6499,-2.6499,0.0,0.0,0.0,0.0,0.0,0.0,0.0,0.0,0.0,0.0,0.0,0.0,0.0,0.0,0.0,0.0,0.0,0.0,0.0,0.0,0.0,0.0,0.0,-0.8609,-0.9967,-1.0102,-1.0869,-1.2297,-1.2415,-1.3176,-1.4504,-1.4622,-1.4673,-1.4622,-1.3777,-1.3396,-1.3413,-1.3532,-1.3489,-1.3413,-1.3472,0.0,0.0,0.0,0.0,0.0,0.0,0.0,0.0,-1.5859,-1.6028,-1.6282,-1.4926,0.0,0.0,0.0,0.0,0.0,-1.5899,-1.6339,-1.6698,-1.6074,-1.5433,-1.5178,0.0,0.0,0.0,0.0,0.0,0.0,0.0,0.0,0.0,0.0,0.0,0.0,0.0,0.0,0.0,0.0,0.0,0.0,0.0,-3.8153,-3.8272,-3.7973,-3.7045,-3.6447,-3.6342,-3.5714,-3.5355,-3.5355,-3.525,-3.519,-3.519,-3.4616,-3.415,-3.3837,-3.2672,-3.167,-3.0833,-3.0332,-2.969,-2.9002,-2.8876,0.0,-2.7703,-2.7571,-2.7129,-2.6499,-2.6499,-2.6499,-2.6499,-2.6499,-2.6499,-2.6499,0.0,0.0,0.0,0.0,0.0,0.0,0.0,0.0,0.0,0.0,0.0,0.0,0.0,0.0,0.0,0.0,0.0,0.0,0.0,0.0,0.0,0.0,-0.8727,-0.9123,-0.9984,-1.0599,-1.1383,-1.2297,-1.2931,-1.3676,-1.452,-1.5138,-1.5426,-1.5375,-1.4014,-1.3396,-1.3447,-1.4073,-1.3971,-1.343,-1.3841,0.0,0.0,0.0,0.0,0.0,0.0,0.0,0.0,-1.5859,-1.569,-1.5612,-1.4774,0.0,0.0,0.0,0.0,0.0,-1.5978,-1.6876,-1.6996,-1.4759,-1.4926,-1.5693,0.0,0.0,0.0,0.0,0.0,0.0,0.0,0.0,0.0,0.0,0.0,0.0,0.0,0.0,0.0,0.0,0.0,0.0,-3.5357,-3.709,-3.7719,-3.6073,-3.6282,-3.6237,-3.5684,-3.5011,-3.4668,-3.4668,-3.4098,-3.3799,-3.3799,-3.3522,-3.2588,-3.0929,-3.0562,-3.0023,-2.9317,-2.9233,-2.9129,-2.8971,0.0,-2.7835,-2.7637,-2.6973,-2.6624,-2.6499,-2.6499,-2.6499,-2.6499,-2.6499,-2.6499,-2.6499,0.0,0.0,0.0,0.0,0.0,0.0,0.0,0.0,0.0,0.0,0.0,0.0,0.0,0.0,0.0,0.0,0.0,0.0,0.0,0.0,0.0,-0.8276,-0.9072,-0.9844,-1.0588,-1.0927,-1.1695,-1.2897,-1.3092,-1.3566,-1.4293,-1.4637,-1.5073,-1.5528,-1.4065,-1.3845,-1.458,-1.4336,-1.4253,-1.4326,0.0,0.0,0.0,0.0,0.0,0.0,0.0,0.0,0.0,0.0,-1.6136,-1.6562,-1.5238,0.0,0.0,0.0,0.0,0.0,-1.5205,-1.6054,-1.6514,-1.4791,-1.559,-1.6922,0.0,0.0,0.0,0.0,0.0,0.0,0.0,0.0,0.0,0.0,0.0,0.0,0.0,0.0,0.0,0.0,0.0,-3.6567,-3.6103,-3.6851,-3.6851,-3.5594,-3.5444,-3.5115,-3.4457,-3.4128,-3.3948,-3.3948,-3.3216,-3.2612,-3.2276,-3.1283,-3.076,-3.0775,-3.0361,-2.9519,-2.8298,-2.8298,-2.8051,-2.7637,-2.7229,-2.704,-2.704,-2.6658,-2.6499,-2.6499,-2.6499,-2.6499,-2.6499,-2.6499,-2.6499,-2.6499,0.0,0.0,0.0,0.0,0.0,0.0,0.0,0.0,0.0,0.0,0.0,0.0,0.0,0.0,0.0,0.0,0.0,0.0,0.0,0.0,-0.7745,-0.8,-0.9296,-1.0345,-1.1079,-1.1282,-1.2034,-1.3396,-1.3191,-1.3468,-1.4184,-1.4184,-1.4596,-1.5291,-1.398,-1.408,-1.5174,-1.4526,-1.4541,-1.4973,0.0,0.0,0.0,0.0,0.0,0.0,0.0,0.0,0.0,0.0,0.0,0.0,0.0,0.0,0.0,-1.6582,-1.6152,-1.5413,-1.4624,-1.5281,-1.5923,-1.4848,0.0,0.0,-1.9046,0.0,0.0,0.0,0.0,0.0,0.0,0.0,0.0,0.0,0.0,0.0,0.0,0.0,0.0,0.0,-3.5013,-3.5579,-3.6626,-3.6432,-3.5908,-3.51,-3.4547,-3.4054,-3.3529,-3.3167,-3.2955,-3.2955,-3.1985,-3.1197,-3.0697,-2.9419,-2.9321,-3.0354,-2.9715,-2.8716,-2.7417,-2.7417,-2.7061,-2.6499,-2.6499,-2.6499,-2.6499,-2.6499,-2.6499,-2.6499,-2.6499,-2.6499,-2.6474,-2.6336,-2.6386,-2.6474,0.0,0.0,0.0,0.0,0.0,0.0,0.0,0.0,0.0,0.0,0.0,0.0,0.0,0.0,0.0,0.0,0.0,0.0,0.0,0.0,-0.779,-0.8595,-0.9511,-1.0345,-1.1079,-1.1823,-1.2609,-1.3396,-1.3379,-1.3751,-1.4476,-1.4476,-1.4502,-1.4537,-1.3743,-1.3678,-1.415,-1.4767,-1.4865,-1.4669,-1.5077,0.0,0.0,0.0,0.0,0.0,0.0,0.0,0.0,0.0,0.0,0.0,0.0,0.0,-1.6224,-1.631,-1.5805,-1.5173,-1.4856,-1.5287,-1.5527,-1.4199,0.0,0.0,-2.0483,0.0,0.0,0.0,0.0,0.0,0.0,0.0,0.0,0.0,0.0,0.0,0.0,0.0,0.0,-3.5489,-3.6477,-3.6537,-3.4878,-3.522,-3.504,-3.3739,-3.3589,-3.3544,-3.3499,-3.2156,-3.1358,-3.1358,-2.9989,-2.9208,-2.9153,-2.904,-2.861,-2.7954,-2.7154,-2.6714,-2.6589,-2.6589,-2.6555,-2.6499,-2.6499,-2.6499,-2.6499,-2.6499,-2.6499,-2.6499,-2.6499,-2.6499,-2.6424,-2.585,-2.6034,-2.6411,0.0,0.0,0.0,0.0,0.0,0.0,0.0,0.0,0.0,0.0,0.0,0.0,0.0,0.0,0.0,0.0,0.0,0.0,0.0,0.0,-0.7789,-0.866,-0.9545,-1.0119,-1.0413,-1.1088,-1.1615,-1.1966,-1.2305,-1.2762,-1.3317,-1.3499,-1.4147,-1.5146,-1.42,-1.4629,-1.6016,-1.5423,-1.5361,-1.5661,-1.562,-1.5672,0.0,0.0,0.0,0.0,0.0,0.0,0.0,0.0,-1.6812,-1.6999,0.0,-1.5964,-1.6236,-1.6031,-1.5499,-1.4837,-1.4315,-1.4676,-1.5065,-1.4543,0.0,0.0,0.0,0.0,0.0,0.0,0.0,0.0,0.0,0.0,0.0,0.0,0.0,0.0,0.0,0.0,-3.5177,-3.4923,-3.4936,-3.4681,-3.3933,-3.4098,-3.3873,-3.2961,-3.2886,-3.2706,-3.2273,-3.123,-3.063,-3.063,-2.9049,-2.8182,-2.8182,-2.7703,-2.7297,-2.6973,-2.7162,-2.6973,-2.6499,-2.6499,-2.6499,-2.6499,-2.6499,-2.6499,-2.6499,-2.6499,-2.6499,-2.6499,-2.6499,-2.6273,-2.59,-2.5674,-2.5523,-2.541,0.0,0.0,0.0,0.0,0.0,0.0,0.0,0.0,0.0,0.0,0.0,0.0,0.0,0.0,0.0,0.0,0.0,0.0,-0.7995,-0.7856,-0.8015,-0.8677,-0.9495,-0.983,-0.9601,-1.0114,-1.0606,-1.1049,-1.1539,-1.209,-1.2601,-1.2787,-1.362,-1.4934,-1.4192,-1.4902,-1.6564,-1.5615,-1.556,-1.6122,-1.5884,-1.5799,0.0,0.0,0.0,0.0,0.0,0.0,0.0,0.0,-1.667,0.0,0.0,0.0,0.0,0.0,-1.5484,-1.4975,-1.4303,-1.4453,-1.4811,0.0,0.0,0.0,0.0,0.0,0.0,0.0,0.0,0.0,0.0,0.0,0.0,0.0,0.0,0.0,0.0,0.0,-3.4158,-3.4158,-3.3769,-3.341,-3.32,-3.3185,-3.2916,-3.2228,-3.2168,-3.1974,-3.1525,-3.0494,-2.9889,-2.9889,-2.8214,-2.7226,-2.7044,-2.6693,-2.6323,-2.5984,-2.6681,-2.686,-2.6499,-2.6499,-2.6499,-2.6499,-2.6499,-2.6499,-2.6474,-2.6298,-2.6223,-2.621,-2.6034,-2.5799,-2.5548,-2.5222,-2.4971,-2.4763,0.0,0.0,0.0,0.0,0.0,0.0,0.0,0.0,0.0,0.0,0.0,0.0,0.0,0.0,0.0,0.0,0.0,0.0,-0.8082,-0.828,-0.8492,-0.8687,-0.9386,-0.9442,-0.8716,-0.9091,-0.9823,-1.0882,-1.1359,-1.1923,-1.2585,-1.2601,-1.2965,-1.3616,-1.3605,-1.4207,-1.5214,-1.5214,-1.5442,-1.5799,-1.5799,-1.5799,-1.5799,0.0,0.0,0.0,0.0,0.0,0.0,0.0,-1.6514,0.0,0.0,0.0,0.0,-1.5884,-1.5784,-1.5634,-1.4975,-1.4811,0.0,0.0,0.0,0.0,0.0,0.0,0.0,0.0,0.0,0.0,0.0,0.0,0.0,0.0,0.0,0.0,0.0,-3.308,-3.3484,-3.3484,-3.3484,-3.3215,-3.2557,-3.2497,-3.2198,-3.154,-3.1511,-3.1467,-3.1467,-2.9875,-2.9002,-2.9002,-2.7384,-2.6223,-2.5598,-2.6197,-2.5933,-2.48,-2.5347,-2.5921,-2.6474,-2.6487,-2.6487,-2.6487,-2.6487,-2.6487,-2.6436,-2.5824,-2.5586,-2.5536,-2.5021,-2.5134,-2.5448,-2.4393,-2.4343,-2.47,0.0,0.0,0.0,0.0,0.0,0.0,0.0,0.0,0.0,0.0,0.0,0.0,0.0,0.0,0.0,0.0,0.0,0.0,-0.7932,-0.8106,-0.8211,-0.8271,-0.8627,-0.8708,-0.8492,-0.8933,-0.9274,-0.9499,-1.0399,-1.11,-1.1643,-1.2758,-1.369,-1.4377,-1.4633,-1.5192,-1.5964,-1.5721,-1.569,-1.5799,-1.5799,-1.5799,-1.5799,0.0,0.0,0.0,0.0,0.0,0.0,0.0,0.0,0.0,0.0,0.0,0.0,-1.5258,-1.5095,-1.4946,-1.4274,0.0,0.0,0.0,0.0,0.0,0.0,0.0,0.0,0.0,0.0,0.0,0.0,0.0,0.0,-2.9579,-3.1225,-3.2512,-3.2512,-3.2677,-3.2811,-3.2811,-3.2392,-3.2004,-3.1809,-3.1795,-3.1292,-3.0119,-3.0411,-3.0231,-2.9233,-2.8484,-2.8084,-2.8084,-2.704,-2.6223,-2.5598,-2.5774,-2.5498,-2.4788,-2.4938,-2.5146,-2.5322,-2.5686,-2.585,-2.585,-2.585,-2.585,-2.5812,-2.5272,-2.5059,-2.5034,-2.485,-2.4682,-2.4431,-2.4117,-2.3841,-2.3584,0.0,0.0,0.0,0.0,0.0,0.0,0.0,0.0,0.0,0.0,0.0,0.0,0.0,0.0,0.0,0.0,0.0,0.0,0.0,-0.8049,-0.8144,-0.8211,-0.826,-0.8263,-0.8205,-0.9004,-0.9243,-0.8905,-1.0052,-1.0909,-1.1478,-1.2701,-1.3668,-1.437,-1.4829,-1.544,-1.6095,-1.5899,-1.5799,-1.5799,-1.5799,-1.5799,-1.5799,0.0,0.0,0.0,0.0,0.0,0.0,0.0,0.0,0.0,0.0,0.0,0.0,-1.5319,-1.52,-1.511,-1.4706,0.0,0.0,0.0,0.0,0.0,0.0,0.0,0.0,0.0,0.0,0.0,0.0,0.0,0.0,-3.0328,-3.1345,-3.2093,-3.2093,-3.1854,-3.1809,-3.2064,-3.1286,-3.0823,-3.1077,-3.0883,-3.027,-2.9088,-2.9333,-2.9137,-2.8258,-2.748,-2.7155,-2.738,-2.6355,-2.5536,-2.4971,-2.5184,-2.4908,-2.4123,-2.4362,-2.4368,-2.4148,-2.4946,-2.5285,-2.5285,-2.5285,-2.5159,-2.4933,-2.4619,-2.4494,-2.4469,-2.4211,-2.4061,-2.3966,-2.374,-2.3409,-2.3108,0.0,0.0,0.0,0.0,0.0,0.0,0.0,0.0,0.0,0.0,0.0,0.0,0.0,0.0,0.0,0.0,0.0,0.0,0.0,0.0,-0.8236,-0.8357,-0.8234,-0.8115,-0.7996,-0.93,-0.9674,-0.9077,-1.0234,-1.1136,-1.182,-1.2549,-1.3253,-1.3917,-1.4588,-1.523,-1.5799,-1.5799,-1.5799,-1.5799,-1.5799,-1.5799,-1.5799,-1.5799,0.0,0.0,0.0,0.0,0.0,0.0,0.0,0.0,0.0,0.0,-1.5784,-1.5649,-1.5709,-1.5769,0.0,0.0,0.0,0.0,0.0,0.0,0.0,0.0,0.0,0.0,0.0,0.0,0.0,0.0,0.0,-3.1227,-3.1406,-3.1391,-3.1331,-3.0806,-3.0657,-3.1256,-3.0242,-2.9707,-3.0274,-2.9756,-2.9026,-2.8168,-2.8154,-2.8079,-2.782,-2.6662,-2.6196,-2.669,-2.5467,-2.4525,-2.4004,-2.4494,-2.4173,-2.3108,-2.3665,-2.364,-2.3145,-2.4224,-2.4713,-2.4713,-2.4713,-2.4431,-2.3916,-2.3916,-2.3916,-2.3866,-2.3308,-2.3421,-2.3853,-2.3296,-2.3035,-2.3005,0.0,0.0,0.0,0.0,0.0,0.0,0.0,0.0,0.0,0.0,0.0,0.0,0.0,0.0,0.0,0.0,0.0,0.0,0.0,0.0,-0.8508,-0.8028,-0.847,-0.8719,-0.8694,-0.995,-1.0538,-1.0389,-1.0673,-1.1136,-1.1835,-1.3017,-1.3944,-1.4603,-1.529,-1.5664,-1.5799,-1.5799,-1.5799,-1.5799,-1.5799,-1.5799,-1.5799,-1.5799,-1.5799,0.0,0.0,0.0,0.0,0.0,0.0,0.0,-1.5799,-1.5799,-1.5589,-1.4528,-1.4975,-1.5574,0.0,0.0,0.0,0.0,0.0,0.0,0.0,0.0,0.0,0.0,0.0,0.0,0.0,0.0,0.0,-3.0776,-3.0731,-3.0552,-3.0073,-2.9864,-2.9834,-2.9983,-2.9217,-2.8693,-2.8852,-2.8211,-2.7251,-2.5993,-2.6323,-2.6094,-2.4957,-2.5001,-2.5147,-2.5262,-2.498,-2.4525,-2.4004,-2.4117,-2.3797,-2.3108,-2.3233,-2.3233,-2.3133,-2.3853,-2.418,-2.418,-2.418,-2.3853,-2.3296,-2.3296,-2.3296,-2.3283,-2.3158,-2.3183,-2.3283,-2.3145,-2.2702,-2.2261,0.0,0.0,0.0,0.0,0.0,0.0,0.0,0.0,0.0,0.0,0.0,0.0,0.0,0.0,0.0,0.0,0.0,0.0,0.0,0.0,-0.9218,-0.8865,-0.9464,-0.9674,-0.9383,-1.0947,-1.161,-1.1286,-1.1929,-1.2254,0.0,-1.3645,-1.4468,-1.4826,-1.5499,-1.5799,-1.5799,-1.5799,-1.5799,-1.5799,-1.5799,-1.5799,-1.5799,-1.5799,-1.5799,-1.5799,-1.5799,0.0,0.0,0.0,0.0,0.0,0.0,0.0,-1.5664,-1.496,-1.5245,-1.5649,0.0,0.0,0.0,0.0,0.0,0.0,0.0,0.0,0.0,0.0,0.0,0.0,0.0,0.0,-3.035,-2.9613,-2.9807,-2.9814,-2.9127,-2.8777,-2.8565,-2.8508,-2.7353,-2.6776,-2.7386,-2.6553,-2.5504,-2.4408,-2.4628,-2.4428,-2.3608,-2.3572,-2.3835,-2.4406,-2.4123,-2.3847,-2.359,-2.359,-2.3409,-2.3108,-2.3108,-2.3108,-2.3108,-2.3421,-2.3439,-2.3188,-2.3188,-2.3025,-2.2706,-2.2706,-2.2869,-2.3108,-2.3108,-2.2854,-2.2567,-2.2944,-2.2598,-2.1966,0.0,0.0,0.0,0.0,0.0,0.0,0.0,0.0,0.0,0.0,0.0,0.0,0.0,0.0,0.0,0.0,0.0,0.0,0.0,0.0,0.0,-1.0054,-1.0538,-1.0568,-1.0069,-1.1861,-1.2519,-1.1969,-1.3316,0.0,0.0,0.0,0.0,-1.5005,-1.5559,-1.5799,-1.5799,-1.5799,-1.5799,-1.5799,-1.5799,-1.5799,-1.5799,-1.5799,-1.5799,-1.5799,-1.5799,-1.5799,-1.5799,-1.5799,0.0,0.0,0.0,0.0,-1.5754,-1.5515,-1.5562,-1.5608,0.0,0.0,0.0,0.0,0.0,0.0,0.0,0.0,0.0,0.0,0.0,0.0,0.0,0.0,-2.9064,-2.8051,-2.8455,-2.8588,-2.772,-2.715,-2.6787,-2.6705,-2.5204,-2.4585,-2.5645,-2.4682,-2.3744,-2.3126,-2.307,-2.2982,-2.2824,-2.2393,-2.2598,-2.354,-2.307,-2.2819,-2.2819,-2.2819,-2.2819,-2.2819,-2.2819,-2.2819,-2.2819,-2.2819,-2.2631,-2.2309,-2.2309,-2.2259,-2.2184,-2.2272,-2.2556,-2.297,-2.2907,-2.2567,-2.2168,-2.2702,-2.2384,-2.1701,0.0,0.0,0.0,0.0,0.0,0.0,0.0,0.0,0.0,0.0,0.0,0.0,0.0,0.0,0.0,0.0,0.0,0.0,-0.9764,0.0,0.0,-1.0658,-1.0753,-1.0753,-1.0678,-1.207,-1.2756,-1.2666,0.0,0.0,0.0,0.0,0.0,-1.5679,0.0,0.0,-1.5799,-1.5799,-1.5799,-1.5799,-1.5799,-1.5799,-1.5799,-1.5799,-1.5799,-1.5799,-1.5799,-1.5799,-1.5799,-1.5799,-1.5799,0.0,0.0,0.0,-1.5574,-1.4408,-1.4609,0.0,0.0,0.0,0.0,0.0,0.0,0.0,0.0,0.0,0.0,0.0,0.0,0.0,0.0,-2.8126,-2.7979,-2.6175,-2.5979,-2.5642,-2.4497,-2.4247,-2.4207,-2.4173,-2.3404,-2.2938,-2.3098,-2.2367,-2.186,-2.1749,-2.1762,-2.1731,-2.1707,-2.1644,-2.1669,-2.182,-2.1744,-2.1707,-2.1707,-2.1707,-2.1707,-2.1707,-2.1707,-2.1707,-2.1707,-2.1707,-2.1933,-2.2309,-2.2309,-2.2046,-2.1631,-2.2121,-2.2347,-2.2372,-2.214,-2.2414,-2.2884,-2.2292,-2.1522,-2.0842,0.0,0.0,0.0,0.0,0.0,0.0,0.0,0.0,0.0,0.0,0.0,0.0,0.0,0.0,0.0,-0.9458,-1.0039,-1.0553,-1.0937,-1.0967,-1.1087,-1.1346,-1.1361,-1.1536,-1.191,-1.2867,-1.354,-1.3912,0.0,0.0,0.0,-1.535,-1.5529,0.0,0.0,0.0,0.0,0.0,0.0,-1.5799,-1.5799,-1.5799,-1.5799,-1.5799,-1.5799,-1.5799,-1.5799,-1.5799,-1.5799,-1.5799,-1.5799,-1.5755,-1.5477,0.0,0.0,0.0,-1.4629,0.0,0.0,0.0,0.0,0.0,0.0,0.0,0.0,0.0,0.0,0.0,0.0,0.0,0.0,-2.5522,-2.5348,-2.4082,-2.4201,-2.4155,-2.3214,-2.3094,-2.2936,-2.2524,-2.1615,-2.1287,-2.1916,-2.112,-2.0677,-2.1031,-2.0727,-2.0539,-2.0539,-2.0539,-2.069,-2.1043,-2.1358,-2.1493,-2.1493,-2.1493,-2.1493,-2.1493,-2.1493,-2.1493,-2.1493,-2.1493,-2.1455,-2.1393,-2.1393,-2.1282,-2.1094,-2.1619,-2.2033,-2.2272,-2.2013,-2.1803,-2.1678,-2.1302,-2.0443,-1.953,0.0,0.0,0.0,0.0,0.0,0.0,0.0,0.0,0.0,0.0,0.0,0.0,0.0,0.0,0.0,0.0,-1.0703,-1.1271,-1.1775,-1.1805,-1.1805,-1.1805,-1.1954,-1.2295,-1.2786,-1.3615,-1.4303,0.0,0.0,0.0,-1.5799,-1.5799,-1.5799,0.0,-1.5799,0.0,0.0,0.0,0.0,0.0,0.0,0.0,0.0,-1.5964,-1.6039,-1.6039,-1.6039,-1.6039,-1.6009,-1.5858,-1.5799,-1.5726,-1.524,-1.5344,0.0,0.0,0.0,0.0,0.0,0.0,0.0,0.0,0.0,0.0,0.0,0.0,0.0,0.0,0.0,0.0,0.0,-2.2881,-2.3144,-2.2246,-2.2577,-2.2626,-2.1799,-2.1695,-2.1497,-2.0947,-1.9999,-1.9786,-2.0765,-1.9974,-1.9572,-2.0038,-1.9635,-1.9397,-1.9397,-1.9397,-1.9597,-2.005,-2.0439,-2.0652,-2.0652,-2.0652,-2.0727,-2.0865,-2.0865,-2.0928,-2.1054,-2.1054,-2.0867,-2.0478,-2.0629,-2.0496,-2.0236,-2.0782,-2.1214,-2.144,-2.1075,-2.0788,-2.0557,-2.0088,-1.9371,-1.8617,0.0,0.0,0.0,0.0,0.0,0.0,0.0,0.0,0.0,0.0,0.0,0.0,-0.989,-1.0404,-1.0753,-1.0753,-1.1361,-1.176,-1.1805,-1.1805,-1.1805,-1.1805,-1.2415,0.0,-1.2801,-1.4077,0.0,0.0,0.0,0.0,-1.5799,-1.5799,-1.5799,-1.5799,-1.5799,-1.5799,-1.5799,0.0,0.0,0.0,0.0,0.0,0.0,0.0,0.0,0.0,-1.6636,-1.6636,-1.6577,-1.5994,-1.5799,-1.5726,-1.524,-1.5119,-1.4929,0.0,0.0,0.0,0.0,0.0,0.0,0.0,0.0,0.0,0.0,0.0,0.0,0.0,0.0,0.0,0.0,-2.0783,-2.2246,-2.0993,-2.0836,-2.047,-1.9346,-1.9195,-1.9183,-1.9133,-1.8619,-1.8518,-1.907,-1.8631,-1.8304,-1.8329,-1.8304,-1.8292,-1.8292,-1.8292,-1.8304,-1.8329,-1.8355,-1.838,-1.838,-1.838,-1.8643,-1.9133,-1.9133,-1.9384,-1.9886,-1.9886,-1.9874,-1.9874,-2.0453,-1.9992,-1.8851,-1.9455,-1.9527,-1.9216,-1.8466,-1.9183,-2.0415,-1.8749,-1.8322,-1.8501,0.0,0.0,0.0,0.0,0.0,0.0,0.0,0.0,0.0,0.0,0.0,0.0,0.0,-1.1171,-1.1435,-1.1435,-1.181,-1.2236,-1.2667,-1.2097,-1.1892,-1.2234,-1.2145,-1.2467,-1.3233,-1.3728,0.0,0.0,0.0,-1.5492,-1.5784,-1.5477,-1.5359,-1.5359,-1.5668,-1.5624,-1.5374,-1.5668,0.0,0.0,0.0,0.0,0.0,0.0,0.0,0.0,0.0,0.0,-1.6666,-1.6443,-1.5921,-1.527,-1.4845,-1.4705,-1.4585,-1.3954,-1.3127,0.0,0.0,0.0,0.0,0.0,0.0,0.0,0.0,0.0,0.0,0.0,0.0,0.0,0.0,-1.8834,-1.962,-1.9157,-1.9083,-1.8945,-1.8531,-1.8481,-1.8481,-1.8481,-1.8016,-1.789,-1.8418,-1.8003,-1.7827,-1.8179,-1.7877,-1.7677,-1.7677,-1.7677,-1.7677,-1.7677,-1.8028,-1.8204,-1.8204,-1.8204,-1.8304,-1.8481,-1.8481,-1.8757,-1.9284,-1.9284,-1.9459,-1.9785,-1.9527,-1.9134,-1.8762,-1.9352,-1.9237,-1.8686,-1.8203,-1.8552,-1.919,-1.8034,-1.7532,-1.7339,0.0,0.0,0.0,0.0,0.0,0.0,0.0,0.0,0.0,0.0,0.0,0.0,0.0,0.0,-1.2421,-1.229,-1.2419,-1.266,-1.2951,-1.2332,-1.2129,-1.2484,-1.2362,-1.2677,-1.3472,-1.3721,0.0,0.0,0.0,0.0,0.0,-1.5043,-1.4891,-1.4907,-1.521,-1.527,0.0,0.0,0.0,-1.4981,0.0,0.0,-1.6061,0.0,0.0,0.0,0.0,0.0,0.0,-1.6564,-1.6033,-1.5328,-1.4746,-1.4343,-1.4016,-1.3735,-1.319,0.0,0.0,0.0,0.0,0.0,0.0,0.0,0.0,0.0,0.0,0.0,0.0,0.0,0.0,-1.6986,-1.7551,-1.8116,-1.8204,-1.8141,-1.7953,-1.7928,-1.7928,-1.7928,-1.7438,-1.7313,-1.7877,-1.7426,-1.725,-1.7591,-1.73,-1.7011,-1.6845,-1.6832,-1.6757,-1.6568,-1.7074,-1.7363,-1.7363,-1.7551,-1.7739,-1.7928,-1.7928,-1.8216,-1.8719,-1.8719,-1.8884,-1.9114,-1.8636,-1.839,-1.8336,-1.8492,-1.8238,-1.7653,-1.729,-1.7482,-1.7849,-1.7038,-1.6631,-1.6484,0.0,0.0,0.0,0.0,0.0,0.0,0.0,0.0,0.0,-1.2125,0.0,0.0,0.0,0.0,0.0,-1.3237,-1.3197,-1.3008,-1.2566,-1.2511,-1.2511,-1.2524,-1.314,-1.3469,-1.3497,-1.412,0.0,0.0,0.0,0.0,0.0,0.0,-1.4485,-1.4485,-1.447,-1.469,-1.5043,0.0,-1.4997,-1.5727,0.0,-1.5522,-1.5891,0.0,0.0,0.0,-1.6882,-1.693,0.0,-1.6306,0.0,0.0,0.0,0.0,-1.3198,-1.3198,0.0,0.0,0.0,0.0,0.0,0.0,0.0,0.0,0.0,0.0,0.0,0.0,0.0,0.0,0.0,-1.5311,-1.6208,-1.784,-1.8141,-1.7953,-1.741,-1.7348,-1.7348,-1.7335,-1.681,-1.6685,-1.7272,-1.6798,-1.645,-1.645,-1.645,-1.6233,-1.5706,-1.5668,-1.5449,-1.4934,-1.5412,-1.568,-1.5693,-1.6233,-1.6773,-1.736,-1.7373,-1.7652,-1.8155,-1.8155,-1.8032,-1.7867,-1.7853,-1.7719,-1.7501,-1.6782,-1.6319,-1.6036,-1.5576,-1.5917,-1.658,-1.5712,-1.5703,-1.6036,0.0,0.0,0.0,0.0,0.0,0.0,0.0,0.0,-1.1176,0.0,0.0,0.0,-1.2343,-1.2651,-1.3011,-1.3386,-1.3149,-1.313,-1.3483,-1.2826,-1.2599,-1.2993,-1.2807,-1.2888,-1.327,-1.347,0.0,0.0,0.0,0.0,0.0,0.0,0.0,0.0,-1.3702,-1.3802,-1.4262,-1.4737,0.0,0.0,-1.5322,-1.5872,0.0,0.0,0.0,0.0,0.0,-1.7464,-1.7019,0.0,-1.6055,-1.4911,0.0,0.0,0.0,0.0,0.0,0.0,-1.3198,0.0,0.0,0.0,0.0,0.0,0.0,0.0,0.0,0.0,0.0,0.0,0.0,-1.4765,-1.5273,-1.5739,-1.6459,-1.666,-1.5713,-1.594,-1.604,-1.5638,-1.5449,-1.5412,-1.5575,-1.5437,-1.5349,0.0,-1.5349,-1.5286,-1.5135,-1.5123,-1.5236,-1.5475,-1.5248,-1.5311,-1.5693,-1.5844,-1.6007,-1.617,-1.6559,-1.6801,-1.6915,-1.6915,-1.6871,-1.6793,-1.6554,-1.6428,-1.6374,-1.6458,-1.6136,-1.5576,-1.5459,-1.5752,-1.6251,-1.6007,-1.5987,-1.6075,0.0,0.0,0.0,0.0,0.0,0.0,0.0,0.0,-1.1551,0.0,0.0,0.0,-1.3011,-1.3068,-1.3246,-1.3641,-1.3462,-1.3399,-1.3589,-1.3052,-1.286,-1.3185,-1.2897,-1.2889,-1.3185,-1.3198,0.0,0.0,0.0,0.0,0.0,0.0,0.0,0.0,0.0,0.0,0.0,0.0,0.0,0.0,-1.5086,0.0,0.0,-1.644,-1.6904,0.0,0.0,0.0,-1.6475,-1.6757,-1.593,0.0,0.0,0.0,0.0,0.0,0.0,0.0,0.0,0.0,0.0,0.0,0.0,0.0,-1.3471,-1.3378,-1.3261,0.0,-1.3871,0.0,0.0,-1.4198,-1.4469,-1.4224,-1.5116,-1.5605,-1.4984,-1.5173,-1.5248,-1.4934,-1.4896,-1.4896,-1.4896,-1.4896,-1.4896,-1.4896,-1.4896,-1.4796,-1.4576,-1.4331,-1.4456,-1.5009,-1.4947,-1.5047,-1.5361,-1.5806,-1.5794,-1.5323,-1.5871,-1.5967,-1.5695,-1.5695,-1.5655,-1.5562,-1.5376,-1.5232,-1.5192,-1.5596,-1.5646,-1.541,-1.541,-1.5566,-1.5821,-1.5821,-1.5821,-1.5821,0.0,0.0,0.0,0.0,0.0,0.0,0.0,0.0,0.0,0.0,-1.3016,-1.3355,-1.4272,-1.4035,-1.3818,-1.3818,-1.3818,-1.3648,-1.3232,-1.3198,-1.3198,-1.3198,-1.3198,-1.3198,-1.3198,-1.3198,0.0,0.0,0.0,0.0,0.0,0.0,0.0,0.0,0.0,0.0,0.0,0.0,0.0,-1.4485,-1.4824,-1.51,0.0,0.0,-1.6241,-1.6152,-1.6284,-1.6016,-1.5691,-1.6233,-1.5781,0.0,0.0,0.0,0.0,0.0,-1.3303,0.0,0.0,0.0,0.0,0.0,0.0,0.0,-1.377,-1.3584,-1.3353,-1.3896,-1.3997,0.0,0.0,-1.3634,-1.3815,-1.3303,-1.4048,-1.4708,-1.4708,-1.4758,-1.479,-1.472,-1.4708,-1.4708,-1.4708,-1.4708,-1.4708,-1.4708,-1.4708,-1.4494,-1.4022,-1.3496,-1.3448,-1.3987,-1.4425,-1.4662,-1.4697,-1.5645,-1.5663,-1.4702,-1.524,-1.5186,-1.4606,-1.4606,-1.4464,-1.4229,-1.4281,-1.4195,-1.4075,-1.4531,-1.4961,-1.5352,-1.5391,-1.541,-1.541,-1.541,-1.541,-1.541,-0.9742,0.0,0.0,0.0,0.0,0.0,0.0,0.0,0.0,-1.3082,-1.3158,-1.323,-1.3429,-1.3374,-1.334,-1.334,-1.334,-1.3301,-1.3215,-1.3198,-1.3198,-1.3198,-1.3198,-1.3198,-1.3198,-1.3198,-1.3198,0.0,0.0,0.0,0.0,0.0,0.0,0.0,0.0,0.0,0.0,0.0,0.0,-1.4243,-1.4945,0.0,-1.5528,-1.6094,-1.6338,-1.6426,-1.6456,-1.6376,-1.6262,-1.5952,-1.5718,-1.5475,0.0,0.0,0.0,-1.406,0.0,0.0,0.0,0.0,0.0,0.0,0.0,0.0,-1.3328,-1.3273,-1.3223,0.0,-1.3378,0.0,0.0,-1.3303,-1.3341,-1.3223,-1.3403,-1.3529,-1.3529,-1.3954,-1.4085,-1.3591,-1.3529,-1.3529,-1.3529,-1.3529,-1.3529,-1.3529,-1.3529,-1.3491,-1.3378,-1.3248,-1.3277,-1.3457,-1.3149,-1.3153,-1.3526,-1.3753,-1.3922,-1.409,-1.462,-1.456,-1.398,-1.398,-1.3689,-1.3204,-1.3551,-1.3647,-1.3662,-1.4065,-1.4521,-1.4941,-1.5283,-1.541,-1.541,-1.541,-1.541,-1.541,-1.037,0.0,0.0,0.0,0.0,0.0,0.0,0.0,0.0,-1.316,-1.3198,-1.3198,-1.3198,-1.3198,-1.3198,-1.3198,-1.3198,-1.3198,-1.3198,-1.3198,-1.3198,-1.3198,-1.3198,-1.3198,-1.3198,-1.3198,-1.3198,0.0,0.0,0.0,0.0,0.0,0.0,0.0,0.0,0.0,0.0,0.0,-1.3979,-1.455,-1.5237,0.0,-1.5652,-1.6196,-1.6426,-1.65,-1.65,-1.65,-1.6412,-1.5881,-1.5693,0.0,0.0,-1.5505,-1.5198,0.0,-1.4689,-1.4708,0.0,0.0,0.0,-1.3647,0.0,0.0,0.0,-1.3647,-1.3647,-1.3647,-1.3647,-1.3559,-1.3248,0.0,-1.3198,-1.3198,-1.3198,-1.3198,-1.3198,-1.3453,-1.3546,-1.3235,-1.3198,-1.3198,-1.3198,-1.3198,-1.3198,-1.3198,-1.3198,-1.3198,-1.3198,-1.3198,-1.3224,-1.3307,-1.305,-1.2894,-1.2901,-1.3395,-1.3451,-1.3108,-1.3867,-1.3944,-1.3348,-1.3348,-1.32,-1.2915,-1.3105,-1.3193,-1.3232,-1.3627,-1.3955,-1.4209,-1.4853,-1.5098,-1.5098,-1.5098,-1.5098,-1.5098,-1.1008,0.0,0.0,0.0,0.0,0.0,0.0,0.0,0.0,-1.3198,-1.3198,-1.3235,-1.3366,-1.3261,0.0,-1.3366,-1.3261,-1.3198,-1.3198,-1.3198,-1.3248,-1.3366,-1.3366,-1.3366,-1.3366,-1.3366,-1.3328,-1.3198,0.0,0.0,0.0,0.0,0.0,0.0,0.0,0.0,0.0,0.0,0.0,-1.4947,0.0,-1.5793,-1.5756,-1.6308,-1.65,-1.65,-1.65,-1.65,-1.6425,-1.6007,-1.5856,-1.5932,-1.635,-1.6283,0.0,0.0,0.0,0.0,0.0,0.0,0.0,0.0,0.0,-1.3483,0.0,0.0,0.0,0.0,0.0,0.0,0.0,0.0,0.0,0.0,0.0,0.0,0.0,-1.302,0.0,-1.3198,-1.3198,-1.3198,-1.3198,-1.3198,-1.3198,-1.3198,-1.3198,-1.3198,-1.3198,-1.3112,-1.3051,-1.3002,-1.2901,-1.2708,-1.241,-1.3212,-1.3205,-1.2437,-1.3238,-1.3372,-1.2905,-1.2905,-1.2905,-1.2905,-1.2905,-1.2905,-1.2935,-1.3242,-1.3389,-1.3467,-1.4326,-1.4658,-1.4658,-1.4658,-1.4658,-1.4678,-1.1688,-1.1939,0.0,0.0,0.0,0.0,0.0,0.0,0.0,-1.3198,-1.3198,0.0,0.0,0.0,0.0,0.0,0.0,0.0,-1.3198,0.0,-1.3428,-1.3972,-1.3997,-1.3997,-1.3997,-1.3997,-1.374,-1.3198,0.0,0.0,0.0,0.0,0.0,0.0,-1.3198,0.0,0.0,0.0,-1.4783,0.0,-1.6007,-1.6132,0.0,-1.6308,-1.65,-1.65,-1.65,-1.65,-1.6488,0.0,-1.64,-1.6412,0.0,-1.6835,-1.7008,-1.5919,0.0,0.0,0.0,0.0,0.0,0.0,-1.4053,0.0,0.0,0.0,-1.3181,-1.277,0.0,0.0,0.0,0.0,0.0,0.0,0.0,0.0,-1.1457,-1.2401,-1.3198,-1.3198,-1.3198,-1.3198,-1.3198,-1.3198,-1.3198,-1.3198,-1.3198,-1.3198,-1.3198,-1.282,-1.2389,-1.1981,-1.1518,-1.1412,-1.1712,-1.1822,-1.2195,-1.2821,-1.2943,-1.2978,-1.2905,-1.2905,-1.2905,-1.2905,-1.2905,-1.2905,-1.2905,-1.2954,-1.2974,-1.3062,-1.3851,-1.4182,-1.4182,-1.4182,-1.4182,-1.4241,-1.212,-1.25,0.0,0.0,0.0,0.0,0.0,0.0,0.0,-1.316,-1.2663,0.0,0.0,0.0,0.0,0.0,0.0,-1.3848,0.0,0.0,0.0,-1.4036,-1.4036,-1.4036,-1.4036,-1.4393,-1.4299,-1.3727,-1.3727,0.0,0.0,0.0,0.0,0.0,-1.3571,0.0,-1.4212,0.0,-1.5261,0.0,0.0,0.0,0.0,-1.64,-1.65,-1.65,-1.65,-1.65,-1.6457,0.0,-1.6216,0.0,0.0,0.0,0.0,0.0,0.0,0.0,0.0,0.0,0.0,0.0,0.0,0.0,-1.3429,0.0,-1.3041,0.0,0.0,0.0,0.0,0.0,0.0,0.0,-1.1838,0.0,0.0,0.0,-1.249,0.0,0.0,0.0,-1.282,-1.2544,-1.2401,-1.2401,-1.2401,-1.2401,-1.2401,-1.2192,-1.1854,-1.1356,-1.1113,-1.1061,-1.1193,-1.1457,-1.1897,-1.251,-1.2764,-1.2905,-1.2905,-1.2905,-1.2905,-1.2905,-1.2905,-1.2905,-1.2905,-1.2905,-1.2905,-1.2935,-1.3271,-1.3555,-1.3743,-1.3743,-1.3743,-1.3773,0.0,0.0,0.0,0.0,0.0,0.0,0.0,0.0,0.0,0.0,0.0,0.0,-1.3333,-1.3094,0.0,0.0,-1.4181,-1.4249,0.0,0.0,-1.3996,0.0,0.0,0.0,0.0,-1.4389,-1.4445,-1.4069,0.0,0.0,0.0,0.0,0.0,0.0,0.0,-1.433,-1.4702,0.0,0.0,-1.6249,-1.6019,-1.604,-1.6259,-1.6445,-1.65,-1.65,-1.65,-1.6402,-1.6216,-1.593,-1.603,-1.6352,-1.6911,-1.723,-1.7373,0.0,0.0,0.0,-1.6233,0.0,0.0,0.0,0.0,0.0,0.0,0.0,0.0,0.0,0.0,0.0,0.0,0.0,0.0,0.0,0.0,-1.1479,0.0,-1.1538,0.0,0.0,0.0,0.0,0.0,-1.1993,-1.1792,-1.1792,-1.1792,-1.1792,-1.1792,-1.1664,-1.1459,-1.1208,-1.1054,-1.1065,-1.1248,-1.1582,-1.1985,-1.2389,-1.2725,-1.2905,-1.2905,-1.2905,-1.2905,-1.2905,-1.2905,-1.2905,-1.2905,-1.2905,-1.2905,-1.2881,-1.2691,-1.2775,-1.3068,-1.3254,-1.334,-1.3369,-1.1825,-1.2198,0.0,0.0,0.0,0.0,0.0,0.0,0.0,0.0,0.0,0.0,0.0,0.0,0.0,0.0,0.0,-1.4014,-1.4038,0.0,-1.3964,0.0,0.0,-1.4497,0.0,0.0,-1.3967,-1.3994,0.0,0.0,0.0,0.0,0.0,0.0,0.0,-1.4116,-1.4186,-1.5236,-1.568,-1.5768,-1.6262,-1.6126,-1.5698,0.0,-1.65,-1.65,-1.65,0.0,-1.572,-1.6281,-1.6095,-1.5732,-1.6331,-1.6926,0.0,0.0,0.0,0.0,0.0,0.0,0.0,-1.509,0.0,0.0,0.0,0.0,-1.2152,0.0,0.0,0.0,0.0,0.0,0.0,0.0,0.0,0.0,0.0,0.0,0.0,0.0,0.0,0.0,0.0,-1.1811,-1.1792,-1.1792,-1.1792,-1.1792,-1.1792,-1.13,-1.1229,-1.166,-1.1165,-1.1309,-1.2155,-1.2174,-1.2432,-1.2886,-1.2895,-1.2905,-1.2905,-1.2905,-1.2905,-1.2905,-1.2905,-1.2905,-1.2905,-1.2905,-1.2905,-1.2832,-1.2104,-1.1841,-1.1952,-1.2671,-1.2925,-1.3042,0.0,0.0,0.0,0.0,0.0,0.0,0.0,-1.2408,0.0,0.0,0.0,0.0,0.0,-1.4165,-1.4097,0.0,0.0,-1.4473,-1.4846,-1.4249,0.0,0.0,0.0,-1.4225,0.0,0.0,0.0,0.0,0.0,0.0,0.0,0.0,0.0,0.0,0.0,-1.4417,0.0,0.0,0.0,0.0,0.0,-1.5776,-1.561,0.0,-1.5666,-1.531,-1.531,-1.5175,-1.496,-1.4778,-1.5118,-1.5558,-1.5325,-1.5695,-1.6246,-1.6393,-1.6696,-1.6914,-1.6471,-1.6327,-1.608,-1.5312,-1.4676,-1.392,0.0,0.0,0.0,0.0,0.0,0.0,0.0,0.0,0.0,0.0,0.0,0.0,0.0,0.0,0.0,0.0,0.0,0.0,0.0,0.0,-1.0802,-1.0802,-1.0802,-1.0802,-1.0802,-1.064,-1.0725,-1.1155,-1.0991,-1.1316,-1.2194,-1.2203,-1.2451,-1.2905,-1.2905,-1.2905,-1.2905,-1.2905,-1.2905,-1.2905,-1.2905,-1.2905,-1.2847,-1.2369,-1.2178,-1.2113,-1.1416,-1.1141,-1.1174,-1.1409,-1.1509,-1.1614,-1.0273,0.0,0.0,0.0,0.0,0.0,0.0,0.0,0.0,0.0,-1.3744,0.0,-1.4527,0.0,-1.4427,0.0,-1.4744,-1.4801,-1.4969,-1.4361,0.0,-1.3491,-1.3684,0.0,0.0,0.0,0.0,0.0,0.0,-1.3723,0.0,0.0,0.0,0.0,0.0,0.0,-1.4349,0.0,-1.5644,0.0,0.0,-1.5152,0.0,0.0,-1.4846,-1.4698,-1.4698,-1.456,-1.4352,-1.4167,-1.4641,-1.5198,-1.4761,-1.5072,-1.5637,-1.5764,-1.5916,-1.6068,-1.5973,-1.5905,-1.5716,-1.5124,-1.4616,-1.3909,-1.2487,-1.2293,-1.2041,0.0,0.0,0.0,0.0,0.0,0.0,0.0,0.0,0.0,0.0,-1.0303,0.0,0.0,0.0,0.0,0.0,-1.0328,-1.0117,-1.0293,-1.0137,-1.0117,-1.0293,-1.0303,-1.0567,-1.1123,-1.1143,-1.1562,-1.2428,-1.2461,-1.2607,-1.2905,-1.2905,-1.2905,-1.2905,-1.2905,-1.2905,-1.2881,-1.2608,-1.2501,-1.2452,-1.1749,-1.1441,-1.1391,-1.072,-1.044,-1.0466,-1.0712,-1.0904,-1.1077,0.0,0.0,0.0,0.0,-1.1463,0.0,0.0,0.0,-1.3462,0.0,-1.4352,-1.4535,-1.4398,-1.488,-1.5213,-1.5189,-1.5112,-1.4857,-1.4414,-1.4341,0.0,0.0,-1.3443,-1.3505,-1.2954,0.0,0.0,0.0,0.0,0.0,0.0,0.0,0.0,0.0,-1.3942,0.0,-1.4716,-1.4699,-1.4698,-1.4698,-1.4675,-1.4306,-1.3792,-1.3779,-1.4097,-1.4606,-1.4606,-1.4236,-1.3849,-1.4422,-1.4629,-1.4652,-1.4617,-1.5028,-1.541,-1.4812,-1.5045,-1.5437,-1.5328,-1.5228,-1.5058,-1.4543,-1.424,-1.3646,-1.2054,-1.1973,-1.1999,-1.1131,0.0,0.0,0.0,-1.088,-1.0459,0.0,0.0,0.0,0.0,0.0,0.0,0.0,0.0,0.0,0.0,-0.9893,-0.9815,-1.0273,-0.9884,0.0,0.0,-1.0322,-1.0714,-1.1577,-1.1626,-1.2034,-1.2895,-1.2905,-1.2905,-1.2905,-1.2905,-1.2905,-1.2905,-1.2847,-1.2856,-1.2798,-1.208,-1.1765,-1.169,-1.104,-1.0737,-1.0686,-1.0012,-0.9762,-0.984,-1.0466,-1.0992,-1.1286,-1.0283,-1.0442,-1.0871,0.0,-1.1867,-1.2047,0.0,0.0,0.0,0.0,-1.5017,-1.478,-1.5423,-1.5548,-1.5393,-1.4949,-1.457,0.0,0.0,0.0,0.0,-1.2905,-1.3065,-1.3262,-1.3552,-1.3128,0.0,-1.3792,0.0,0.0,-1.3259,0.0,0.0,0.0,0.0,0.0,-1.3519,-1.436,-1.4698,-1.4663,-1.4213,-1.3933,-1.3755,-1.331,-1.3224,-1.3368,-1.3368,-1.3262,-1.3152,-1.332,-1.3647,-1.3944,-1.3491,-1.3789,-1.4226,-1.4073,-1.4406,-1.4881,-1.5105,-1.497,-1.474,-1.47,-1.4175,-1.3555,-1.3105,-1.2852,-1.2559,-1.1979,-1.1565,-1.1222,-1.1094,-1.0898,-1.0684,0.0,0.0,0.0,0.0,0.0,0.0,-1.0303,0.0,0.0,0.0,-1.0186,-1.0166,-1.0293,-1.0195,0.0,-1.0293,-1.0576,-1.1017,-1.1587,-1.1885,-1.2324,-1.2895,-1.2905,-1.2905,-1.2905,-1.2905,-1.2905,-1.2881,-1.232,-1.208,-1.203,-1.1366,-1.1065,-1.099,-1.0338,-1.0064,-0.9987,-0.9309,-0.9061,-0.9087,-0.9237,-0.9507,-0.9769,-1.0518,0.0,0.0,-1.1901,0.0,0.0,-1.3385,-1.3682,0.0,-1.5592,-1.5386,0.0,-1.5106,-1.5398,-1.5285,-1.4559,-1.4453,0.0,-1.386,0.0,0.0,-1.2915,-1.2905,-1.3065,-1.3396,-1.3079,0.0,-1.3396,0.0,0.0,-1.3007,0.0,0.0,0.0,0.0,-1.3424,0.0,-1.3744,-1.3907,-1.3884,-1.3529,-1.3396,0.0,-1.3041,-1.2905,-1.2905,-1.2905,-1.2905,-1.2905,-1.2905,-1.331,-1.3684,-1.3079,-1.331,-1.3755,-1.3481,-1.3617,-1.3949,-1.4307,-1.4262,-1.4129,-1.4208,-1.4004,-1.3607,-1.3051,-1.292,-1.2778,-1.2301,-1.1875,-1.1645,-1.1748,-1.1299,-1.0771,0.0,0.0,0.0,0.0,0.0,0.0,0.0,-1.0303,0.0,-1.0303,-1.0107,-1.0078,-1.0293,-1.0107,0.0,0.0,-1.0684,-1.1113,-1.1596,-1.1992,-1.2441,-1.2905,-1.2905,-1.2905,-1.2905,-1.2905,-1.2905,-1.2881,-1.2138,-1.1789,-1.174,-1.0788,-1.0364,-1.0312,-0.964,-0.9361,-0.9335,-0.8962,-0.8804,-0.8804,-0.8804,-0.8884,-0.9024,-1.084,0.0,0.0,0.0,0.0,0.0,0.0,-1.4278,0.0,-1.5138,0.0,-1.5365,-1.4312,-1.4855,-1.4981,-1.4172,0.0,-1.4307,-1.3555,-1.3457,-1.3262,-1.2925,-1.2905,-1.2905,-1.2905,-1.2905,-1.2905,0.0,0.0,0.0,0.0,0.0,0.0,0.0,0.0,0.0,0.0,-1.3128,-1.2905,-1.2905,-1.2905,-1.2905,-1.2915,-1.2964,-1.2954,-1.2915,-1.2964,-1.2954,-1.2905,-1.2905,-1.3238,-1.36,-1.3065,-1.3262,-1.3576,-1.3065,-1.2905,-1.2993,-1.3389,-1.3467,-1.3447,-1.3539,-1.3792,-1.3753,-1.2701,-1.2725,-1.2852,-1.2447,-1.2041,-1.1976,-1.269,-1.1807,-1.0859,0.0,0.0,0.0,0.0,0.0,0.0,0.0,0.0,0.0,-1.0312,-0.9941,0.0,0.0,-0.9913,0.0,0.0,0.0,-1.1172,-1.1596,-1.2051,-1.25,-1.2905,-1.2905,-1.2905,-1.2905,-1.2905,-1.2856,-1.2715,-1.2005,-1.1616,-1.1466,-1.021,-0.9666,-0.9614,-0.9035,-0.8804,-0.8804,-0.8804,-0.8804,-0.8804,-0.8804,-0.8804,-0.8804,0.0,0.0,0.0,0.0,0.0,-1.2132,-1.3377,-1.3931,-1.4532,-1.5463,-1.5242,-1.4913,-1.4705,-1.4805,-1.4687,-1.4153,-1.386,0.0,0.0,0.0,0.0,-1.2905,-1.2905,-1.2905,-1.2905,-1.2905,-1.2905,0.0,0.0,0.0,0.0,0.0,0.0,0.0,0.0,0.0,-1.3065,-1.2954,0.0,-1.2905,-1.2905,-1.2905,-1.2944,-1.3271,-1.3184,-1.2954,-1.3271,-1.3174,-1.2905,-1.2905,-1.2978,-1.3041,-1.292,-1.2968,-1.3041,-1.2929,-1.2905,-1.2993,-1.3389,-1.3262,-1.3154,-1.3821,-1.3792,-1.3627,-1.3743,-1.3568,-1.3379,-1.3301,-1.2949,-1.2612,-1.2359,-1.1846,-1.133,-1.0869,0.0,0.0,0.0,0.0,0.0,0.0,0.0,-1.0664,0.0,0.0,0.0,0.0,0.0,0.0,0.0,0.0,-1.1528,-1.1606,-1.2367,-1.2827,-1.2905,-1.2905,-1.2905,-1.2905,-1.2905,-1.2584,-1.1972,-1.1291,-1.0661,-1.0115,-0.9309,-0.8982,-0.8962,-0.8857,-0.8804,-0.8804,-0.8804,-0.8804,-0.8804,-0.8804,-0.8804,-0.8804,0.0,0.0,0.0,0.0,0.0,0.0,0.0,-1.464,-1.4869,-1.5192,-1.497,-1.4619,-1.417,-1.4521,-1.4434,-1.3555,-1.3496,-1.3418,-1.3193,-1.3023,-1.2905,-1.2905,-1.2905,-1.2905,-1.2905,-1.2905,-1.2905,-1.2905,0.0,0.0,-1.2905,0.0,0.0,0.0,0.0,-1.2905,0.0,0.0,-1.2905,-1.2925,-1.3125,-1.3101,-1.2974,-1.3584,-1.3574,-1.3262,-1.3656,-1.3701,-1.3467,-1.3027,-1.2905,-1.2905,-1.2905,-1.2905,-1.2905,-1.2905,-1.2905,-1.2954,-1.315,-1.3062,-1.3003,-1.3379,-1.333,-1.3232,-1.3437,-1.333,-1.3184,-1.3184,-1.3018,-1.2768,-1.2291,-1.1865,-1.1397,-1.0841,-1.054,0.0,0.0,0.0,0.0,0.0,0.0,0.0,0.0,0.0,0.0,0.0,0.0,0.0,0.0,-1.1232,-1.1692,-1.1895,-1.2539,-1.2905,-1.2905,-1.2905,-1.2905,-1.2905,-1.2501,-1.2138,-1.1765,-1.0745,-1.0115,-0.9762,-0.908,-0.8804,-0.8804,-0.8804,-0.8804,-0.8804,-0.8804,-0.8804,-0.8804,-0.8804,-0.8804,-0.8804,0.0,-1.1959,0.0,0.0,-1.3779,-1.415,-1.5244,-1.541,-1.5293,-1.4961,-1.4844,-1.4492,-1.3695,-1.416,-1.4099,-1.3003,-1.3184,-1.3232,-1.2925,-1.2905,-1.2905,-1.2905,-1.2905,-1.2905,-1.2905,-1.2905,-1.2905,0.0,0.0,-1.2905,-1.2905,0.0,0.0,0.0,0.0,0.0,-1.3042,-1.3105,-1.3071,-1.2954,-1.3437,-1.3389,-1.313,-1.3955,-1.3987,-1.3665,-1.4094,-1.4182,-1.3997,-1.3271,-1.3042,-1.2998,-1.2935,-1.2905,-1.2905,-1.2905,-1.2905,-1.2905,-1.2905,-1.2905,-1.2905,-1.2905,-1.2905,-1.2905,-1.2905,-1.2905,-1.2905,-1.2905,-1.2774,-1.2483,-1.1888,-1.1582,-1.1211,-1.0521,-1.0153,-0.9911,0.0,0.0,0.0,0.0,0.0,0.0,-0.9267,0.0,0.0,0.0,0.0,0.0,-1.0889,-1.1252,-1.1653,-1.2047,-1.2382,-1.2532,-1.2532,-1.2472,-1.2437,-1.2437,-1.1857,-1.1516,-1.1341,-1.0287,-0.971,-0.9562,-0.9035,-0.8804,-0.8804,-0.8804,-0.8804,-0.8804,-0.8804,-0.8804,-0.8804,-0.8804,-0.8804,-0.8804,0.0,0.0,0.0,0.0,0.0,-1.4834,-1.5342,-1.541,-1.54,-1.5361,-1.5019,-1.46,-1.4094,-1.3782,-1.3428,-1.2954,-1.2935,-1.2944,-1.2905,-1.2905,-1.2905,-1.2905,-1.2905,-1.2905,-1.2905,-1.2905,-1.2905,0.0,0.0,-1.2905,-1.2915,-1.3271,0.0,0.0,-1.3623,-1.3447,-1.3477,-1.3831,-1.3574,-1.2974,-1.3724,-1.3802,-1.3545,-1.4394,-1.4453,-1.4104,-1.457,-1.4473,-1.4036,-1.3578,-1.3447,-1.3379,-1.2998,-1.2905,-1.2905,-1.2905,-1.2905,-1.2905,-1.2905,-1.2905,-1.2905,-1.2905,-1.2905,-1.2905,-1.2905,-1.2905,-1.2905,-1.2905,-1.2369,-1.1599,-1.0568,-1.0647,-1.0647,-0.9908,-0.9988,-1.0218,-1.0299,0.0,-0.9672,-0.9672,0.0,0.0,-0.9184,-0.9787,0.0,0.0,-0.9888,0.0,0.0,-1.0947,-1.1172,-1.1633,-1.1463,-1.1371,-1.1371,-1.1128,-1.0998,-1.0998,-1.0939,-1.0593,-0.9987,-0.9865,-0.9465,-0.8883,-0.8831,-0.8804,-0.8804,-0.8804,-0.8804,-0.8804,-0.8804,-0.8804,-0.8804,-0.8804,-0.8804,-0.8804,0.0,0.0,0.0,0.0,0.0,0.0,-1.5732,-1.5576,-1.5322,-1.5068,-1.4893,-1.4619,-1.4153,-1.3734,-1.334,-1.2944,-1.2905,-1.2905,-1.2905,-1.2905,-1.2905,-1.2905,-1.2905,-1.2905,-1.2905,-1.2905,-1.3032,0.0,-1.3262,-1.3389,-1.3607,-1.3773,-1.3948,-1.4085,-1.3665,-1.3627,-1.387,-1.4036,-1.3909,-1.3656,-1.4287,-1.4268,-1.3948,-1.4834,-1.4893,-1.458,-1.501,-1.5049,-1.4767,-1.4085,-1.3695,-1.3437,-1.3042,-1.2905,-1.2905,-1.2905,-1.2905,-1.2905,-1.2905,-1.2905,-1.2905,-1.2905,-1.2905,-1.2774,-1.2344,-1.2236,-1.2138,-1.1717,-1.14,-1.1073,-1.0631,-1.05,-1.0278,-0.9845,-0.966,-0.9568,-0.9445,0.0,0.0,-0.9159,0.0,-0.9004,0.0,-0.8944,0.0,0.0,0.0,0.0,-1.0424,-1.0612,-1.1101,-1.1921,-1.1319,-1.1149,-1.1558,-1.1048,-1.0788,-1.0788,-1.0389,-1.0064,-0.9788,-0.9387,-0.9061,-0.8804,-0.8804,-0.8804,-0.8804,-0.8804,-0.8804,-0.8804,-0.8804,-0.8804,-0.8804,-0.8804,-0.8804,-0.8804,-1.5576,-1.5605,-1.5742,-1.6212,-1.5898,-1.5703,-1.6046,-1.5693,-1.5264,-1.4844,-1.4678,-1.4473,-1.4143,-1.3652,-1.3252,-1.3076,-1.2983,-1.2905,-1.2905,-1.2905,-1.2905,-1.2905,-1.2905,0.0,-1.2905,-1.2754,-1.2959,-1.3506,-1.3379,-1.3603,-1.4104,-1.4104,-1.4241,-1.4465,-1.4072,-1.4053,-1.4299,-1.4299,-1.4221,-1.4143,-1.4609,-1.46,-1.4377,-1.5137,-1.5225,-1.501,-1.5303,-1.541,-1.5283,-1.4397,-1.3909,-1.3603,-1.3047,-1.2905,-1.2905,-1.2905,-1.2905,-1.2905,-1.2905,-1.2749,-1.2584,-1.2584,-1.2437,-1.2147,-1.1616,-1.1516,-1.1316,-1.0644,-1.0517,-1.044,-1.0244,-0.9973,-0.969,-0.9427,-0.922,-0.8982,-0.8709,-0.8684,0.0,-0.8557,-0.8432,-0.8369,-0.8332,-0.8372,0.0,0.0,0.0,0.0,-1.011,-1.0145,-1.061,-1.1584,-1.0778,-1.0573,-1.103,-1.0494,-1.021,-1.0218,-0.9736,-0.9517,-0.9491,-0.9008,-0.8804,-0.8804,-0.8804,-0.8804,-0.8804,-0.8804,-0.8804,-0.8785,-0.8566,-0.8619,-0.8778,-0.8566,-0.8619,-0.8804,-1.5997,-1.6085,-1.6232,-1.6619,-1.6357,-1.6085,-1.6095,-1.5693,-1.5264,-1.4844,-1.4414,-1.4114,-1.4104,-1.3389,-1.3081,-1.3467,-1.3125,-1.2905,-1.2905,-1.2905,-1.2905,-1.2905,-1.2905,-1.2905,-1.2905,-1.2461,-1.2632,-1.3506,-1.3096,-1.3311,-1.4104,-1.4104,-1.4562,-1.5381,-1.4951,-1.4803,-1.4775,-1.4775,-1.4531,-1.4143,-1.4609,-1.4813,-1.4852,-1.5254,-1.541,-1.5371,-1.541,-1.541,-1.5283,-1.4397,-1.4104,-1.3948,-1.3145,-1.2905,-1.2905,-1.2905,-1.2905,-1.2905,-1.2905,-1.2369,-1.1814,-1.1814,-1.1316,-1.0813,-1.0813,-1.0813,-1.0618,-0.9935,-0.9814,-0.9614,-0.8936,-0.8831,-0.8737,-0.8449,-0.8643,-0.8704,-0.8442,-0.8402,0.0,-0.7952,-0.8142,-0.8191,-0.7919,-0.8382,0.0,0.0,0.0,-0.9428,-1.0163,-0.951,-0.9453,-1.0188,-0.9581,-0.922,-0.922,-0.8961,-0.8831,-0.8831,-0.8804,-0.8804,-0.8804,-0.8804,-0.8804,-0.8804,-0.8804,-0.8804,-0.8804,-0.8804,-0.8804,-0.8725,-0.7996,-0.8156,-0.8725,-0.799,-0.8182,-0.8804,-1.7363,-1.7393,-1.7344,-1.7197,-1.6816,-1.6416,-1.6134,-1.5693,-1.5264,-1.4844,-1.4377,-1.4104,-1.4104,-1.3379,-1.3047,-1.3467,-1.3125,-1.2905,-1.2905,-1.2905,-1.2905,-1.2905,-1.2905,-1.2905,-1.2905,-1.3027,-1.3354,-1.3909,-1.4102,-1.4463,-1.4972,-1.4717,-1.4873,-1.5391,-1.4971,-1.4813,-1.4813,-1.4813,-1.4697,-1.459,-1.4727,-1.4951,-1.5225,-1.5361,-1.541,-1.541,-1.541,-1.4926,-1.4231,-1.3626,-1.2923,-1.2228,-1.1641,-1.1783,-1.2055,-1.1609,-1.1484,-1.1484,-1.1484,-1.13,-1.1116,-1.1116,-1.0965,-1.0686,-1.0218,-0.9762,-0.9387,-0.9159,-0.9106,-0.9061,-0.8831,-0.8644,-0.855,-0.8651,-0.841,-0.8225,-0.8382,-0.8203,-0.8012,-0.7919,-0.7983,-0.7986,-0.7899,-0.7894,-0.7933,0.0,0.0,-0.8348,-0.9127,-0.9172,-0.9494,-1.018,-0.9376,-0.9141,-0.9613,-0.9065,-0.8804,-0.8804,-0.8804,-0.8804,-0.8804,-0.8804,-0.8804,-0.8804,-0.8804,-0.8804,-0.8765,-0.8165,-0.8248,-0.8685,-0.769,-0.7904,-0.8758,-0.832,-0.8449,-0.8804,-1.7803,-1.7773,-1.7588,-1.7024,-1.666,-1.6328,-1.5889,-1.5586,-1.5264,-1.4844,-1.4551,-1.4289,-1.4124,-1.3525,-1.3223,-1.3486,-1.3125,-1.2905,-1.2905,-1.2905,-1.2905,-1.2905,-1.3037,-1.314,-1.314,-1.3369,-1.3773,-1.4348,-1.4805,-1.4926,-1.4725,-1.4535,-1.4592,-1.4933,-1.4402,-1.4407,-1.4793,-1.4443,-1.4492,-1.4775,-1.4609,-1.4883,-1.541,-1.541,-1.5139,-1.4811,-1.4905,-1.418,-1.3113,-1.2773,-1.2125,-1.1379,-1.0655,-1.0712,-1.1015,-1.0838,-1.0788,-1.0788,-1.0788,-1.0618,-1.0415,-1.0415,-1.0311,-1.0098,-0.9664,-0.9163,-0.8778,-0.8664,-0.8644,-0.8644,-0.8644,-0.8523,-0.8456,-0.8617,-0.8337,-0.8123,-0.8196,-0.8025,-0.7866,-0.7769,-0.7756,-0.7756,-0.7756,-0.7482,-0.7475,-0.7872,0.0,-0.7754,-0.8367,-0.8703,-0.9096,-0.9524,-0.905,-0.9008,-0.9413,-0.9008,-0.8804,-0.8804,-0.8804,-0.8804,-0.8778,-0.8507,-0.8401,-0.8374,-0.8103,-0.7935,-0.7852,-0.7323,-0.7498,-0.805,-0.6826,-0.7126,-0.8144,-0.7477,-0.7552,-0.7969,-1.7434,-1.7399,-1.72,-1.6369,-1.6202,-1.6036,-1.5566,-1.5478,-1.5303,-1.4883,-1.4833,-1.4629,-1.4202,-1.3782,-1.3545,-1.3506,-1.3125,-1.2905,-1.2905,-1.2905,-1.2915,-1.2944,-1.3301,-1.3516,-1.3555,-1.3523,-1.3879,-1.4645,-1.5022,-1.4619,-1.3505,-1.3646,-1.3836,-1.4037,-1.3355,-1.3645,-1.4528,-1.3707,-1.3842,-1.4558,-1.4096,-1.4453,-1.5225,-1.5197,-1.4581,-1.3766,-1.3985,-1.3194,-1.2003,-1.1842,-1.1568,-1.1143,-1.009,-0.9747,-0.987,-1.0474,-1.0661,-1.0661,-1.0661,-1.0218,-0.9736,-0.9736,-0.9448,-0.9184,-0.9211,-0.8991,-0.8731,-0.8489,-0.8429,-0.8429,-0.8429,-0.8395,-0.8375,-0.8395,-0.8348,-0.8183,-0.7879,-0.7846,-0.7726,-0.7464,-0.7444,-0.7457,-0.7457,-0.7168,-0.7213,-0.7799,0.0,-0.7598,-0.7859,-0.8183,-0.8375,-0.8402,-0.8637,-0.8784,-0.8804,-0.8804,-0.8804,-0.8804,-0.8752,-0.8725,-0.8699,-0.7969,-0.7616,-0.7589,-0.6885,-0.6521,-0.6406,-0.636,-0.662,-0.6928,-0.5594,-0.5967,-0.7104,-0.5824,-0.5897,-0.6588,-1.6803,-1.7358,-1.7793,-1.7588,-1.7285,-1.6924,-1.6453,-1.6123,-1.5782,-1.5322,-1.498,-1.4774,-1.4648,-1.4221,-1.3831,-1.3535,-1.3125,-1.2905,-1.2905,-1.2905,-1.3052,-1.335,-1.3457,-1.3627,-1.3948,-1.3699,-1.3447,-1.311,-1.3226,-1.2992,-1.2453,-1.2751,-1.2777,-1.2618,-1.2672,-1.2554,-1.2262,-1.2052,-1.2217,-1.2552,-1.2234,-1.2692,-1.3515,-1.3052,-1.3024,-1.3148,-1.2751,-1.1983,-1.1151,-1.0915,-1.021,-0.9424,-0.9377,-0.9343,-0.9329,-0.9281,-0.9283,-0.9283,-0.9283,-0.9159,-0.9035,-0.9035,-0.8957,-0.8938,-0.9164,-0.8991,-0.8791,-0.8717,-0.8704,-0.8704,-0.8704,-0.8337,-0.811,-0.8362,-0.7796,-0.7293,-0.7226,-0.7213,-0.7106,-0.6854,-0.6994,-0.7128,-0.7128,-0.6867,-0.684,-0.7186,-0.7146,-0.7255,-0.7584,-0.7869,-0.8143,-0.8395,-0.8462,-0.8584,-0.8804,-0.8804,-0.8804,-0.8778,-0.8235,-0.7969,-0.7943,-0.7208,-0.6858,-0.6858,-0.6669,-0.6585,-0.6493,-0.5832,-0.601,-0.6608,-0.5412,-0.5685,-0.6701,-0.6178,-0.6256,-0.6588,-1.5965,-1.6367,-1.6773,-1.6998,-1.6514,-1.6041,-1.5908,-1.5296,-1.4716,-1.4348,-1.4112,-1.3912,-1.3711,-1.3494,-1.3287,-1.324,-1.3195,-1.3111,-1.2915,-1.2905,-1.3066,-1.3486,-1.3318,-1.3416,-1.3857,-1.3518,-1.305,-1.251,-1.2696,-1.2383,-1.1652,-1.19,-1.1921,-1.173,-1.1611,-1.1526,-1.1482,-1.1263,-1.1396,-1.1728,-1.1695,-1.2152,-1.2779,-1.2447,-1.2269,-1.2196,-1.1837,-1.115,-1.0344,-1.0315,-0.9834,-0.9232,-0.9392,-0.9446,-0.9412,-0.9259,-0.9112,-0.8978,-0.8978,-0.8884,-0.8838,-0.8944,-0.8978,-0.9018,-0.9178,-0.8991,-0.8731,-0.8432,-0.8517,-0.8524,-0.8243,-0.8049,-0.7866,-0.7776,-0.7455,-0.7081,-0.668,-0.6833,-0.6893,-0.6627,-0.6847,-0.7,-0.7,-0.688,-0.6854,-0.6993,-0.7,-0.7073,-0.7255,-0.7555,-0.7923,-0.8389,-0.8402,-0.8543,-0.8804,-0.8454,-0.8129,-0.7777,-0.7396,-0.7208,-0.7182,-0.6443,-0.6091,-0.6091,-0.5769,-0.5589,-0.5477,-0.4985,-0.521,-0.5721,-0.4831,-0.5072,-0.5863,-0.5436,-0.5443,-0.5637,-1.4985,-1.5092,-1.5345,-1.5701,-1.5138,-1.4672,-1.4803,-1.4117,-1.3427,-1.311,-1.3061,-1.2921,-1.2537,-1.2504,-1.258,-1.2798,-1.3081,-1.3129,-1.285,-1.2754,-1.2888,-1.323,-1.2932,-1.2989,-1.3507,-1.3054,-1.2565,-1.2033,-1.2388,-1.1987,-1.0886,-1.1004,-1.1027,-1.096,-1.0394,-1.0493,-1.1074,-1.0671,-1.0743,-1.1177,-1.1394,-1.1801,-1.2201,-1.2125,-1.1666,-1.1115,-1.1019,-1.042,-0.9749,-0.9967,-0.9886,-0.9722,-0.9733,-0.9746,-0.9753,-0.9836,-0.9573,-0.9264,-0.9224,-0.9031,-0.8924,-0.9257,-0.9277,-0.9224,-0.9264,-0.8984,-0.8597,-0.8072,-0.8163,-0.8174,-0.7651,-0.7675,-0.7619,-0.7146,-0.7209,-0.7063,-0.6357,-0.6647,-0.6847,-0.662,-0.6847,-0.7,-0.7,-0.696,-0.6953,-0.7,-0.7,-0.702,-0.7066,-0.728,-0.7649,-0.8225,-0.8352,-0.8543,-0.8804,-0.8076,-0.7375,-0.6777,-0.6642,-0.6534,-0.6394,-0.5683,-0.5351,-0.5324,-0.4732,-0.4392,-0.4254,-0.4254,-0.4488,-0.4789,-0.4285,-0.4466,-0.4947,-0.4435,-0.4345,-0.4457,-1.3918,-1.4629,-1.5217,-1.53,-1.5186,-1.4967,-1.4621,-1.4419,-1.4081,-1.3418,-1.3328,-1.3229,-1.2937,-1.2896,-1.2786,-1.251,-1.2287,-1.2269,-1.2547,-1.2182,-1.202,-1.2144,-1.2091,-1.2387,-1.3091,-1.2358,-1.1493,-1.047,-1.0518,-1.0327,-0.9921,-0.995,-0.9807,-0.9534,-0.9411,-0.9316,-0.9202,-0.9127,-0.9279,-0.9563,-0.9612,-0.9964,-1.0444,-0.9931,-0.9969,-1.0227,-0.9717,-0.9591,-0.9722,-0.9733,-0.9719,-0.9726,-0.9973,-1.0047,-1.01,-1.0385,-1.007,-0.9559,-0.9277,-0.9178,-0.9277,-0.9817,-0.9577,-0.9277,-0.9559,-0.9032,-0.8442,-0.8348,-0.8143,-0.7945,-0.7852,-0.7453,-0.7193,-0.7397,-0.6854,-0.6438,-0.6526,-0.662,-0.664,-0.6613,-0.6847,-0.7,-0.7,-0.68,-0.676,-0.698,-0.7,-0.7134,-0.7404,-0.7108,-0.7085,-0.7462,-0.8062,-0.8543,-0.8804,-0.8076,-0.7643,-0.7536,-0.6885,-0.6285,-0.5651,-0.4979,-0.4653,-0.4653,-0.4546,-0.4477,-0.4457,-0.4457,-0.4498,-0.4555,-0.4446,-0.4487,-0.459,-0.4484,-0.4365,-0.4257,-1.2777,-1.323,-1.3697,-1.3936,-1.3782,-1.3577,-1.3398,-1.3066,-1.2609,-1.1966,-1.1885,-1.179,-1.1464,-1.1434,-1.1549,-1.1797,-1.1462,-1.1415,-1.184,-1.147,-1.1447,-1.1889,-1.1483,-1.1391,-1.171,-1.1351,-1.0881,-1.0354,-1.0354,-1.0318,-1.0184,-1.0184,-0.9943,-0.9479,-0.9479,-0.9232,-0.8818,-0.8944,-0.8998,-0.9024,-0.9491,-0.975,-0.9873,-0.9724,-0.985,-1.005,-0.9777,-0.977,-0.994,-1.0131,-1.0184,-1.0211,-1.0345,-1.0354,-1.0412,-1.0553,-1.0254,-0.982,-0.9337,-0.9331,-0.9506,-0.959,-0.9411,-0.9204,-0.9218,-0.8804,-0.8355,-0.817,-0.8005,-0.7712,-0.7096,-0.6877,-0.6724,-0.6556,-0.6338,-0.6244,-0.636,-0.6627,-0.6645,-0.6169,-0.6394,-0.645,-0.6118,-0.5971,-0.5954,-0.607,-0.6076,-0.6191,-0.6401,-0.6394,-0.6466,-0.6702,-0.718,-0.7304,-0.7031,-0.6681,-0.6335,-0.5987,-0.5632,-0.5277,-0.4948,-0.4653,-0.4491,-0.4491,-0.4491,-0.4491,-0.4484,-0.4379,-0.4345,-0.4338,-0.4256,-0.4222,-0.4222,-0.4222,-0.4182,-0.4112,-1.1946,-1.1991,-1.2208,-1.249,-1.2291,-1.214,-1.225,-1.1789,-1.1243,-1.076,-1.0633,-1.0452,-1.0053,-1.0013,-1.0274,-1.0951,-1.0668,-1.0588,-1.0916,-1.0696,-1.0824,-1.1458,-1.0951,-1.0645,-1.0611,-1.0593,-1.0593,-1.0593,-1.0593,-1.0593,-1.0593,-1.0519,-1.0244,-0.978,-0.9639,-0.9332,-0.8891,-0.9044,-0.8984,-0.8878,-0.9686,-0.988,-0.9713,-1.0007,-1.0074,-1.0013,-1.0013,-1.0013,-1.006,-1.0392,-1.0486,-1.0486,-1.0486,-1.0439,-1.0385,-1.0385,-1.0224,-0.9947,-0.9604,-0.9613,-0.9646,-0.9457,-0.9311,-0.9138,-0.8871,-0.8477,-0.812,-0.7869,-0.7652,-0.7234,-0.6363,-0.6203,-0.6077,-0.5664,-0.5696,-0.5838,-0.6018,-0.6331,-0.6355,-0.5793,-0.5951,-0.593,-0.5459,-0.5438,-0.5448,-0.542,-0.551,-0.553,-0.5504,-0.5756,-0.5848,-0.5793,-0.6141,-0.6145,-0.576,-0.5597,-0.5246,-0.4732,-0.4732,-0.4653,-0.4491,-0.4491,-0.4491,-0.4491,-0.4491,-0.4491,-0.4481,-0.4341,-0.425,-0.4184,-0.4092,-0.4048,-0.4048,-0.4048,-0.4024,-0.4011,-1.1906,-1.1663,-1.1476,-1.1498,-1.1497,-1.1563,-1.1876,-1.1625,-1.1316,-1.1002,-1.076,-1.0378,-0.9809,-0.9713,-0.9856,-1.0147,-0.9935,-0.978,-0.9829,-0.9797,-0.9928,-1.0211,-1.0465,-1.0609,-1.0593,-1.0593,-1.0593,-1.0593,-1.0593,-1.0593,-1.0586,-1.0281,-1.0097,-1.006,-0.9484,-0.9217,-0.9164,-0.8918,-0.8824,-0.8864,-0.9472,-0.9729,-0.9713,-1.0007,-0.9953,-0.9713,-0.9713,-0.9713,-0.976,-1.0053,-1.0147,-1.0147,-1.0147,-0.9967,-0.9775,-0.9775,-0.9762,-0.9856,-1.0358,-1.011,-0.974,-0.9987,-0.961,-0.9138,-0.8871,-0.8174,-0.7551,-0.7531,-0.6887,-0.629,-0.6212,-0.5554,-0.5085,-0.5295,-0.4873,-0.4779,-0.5467,-0.538,-0.537,-0.5748,-0.5808,-0.5818,-0.577,-0.5882,-0.5891,-0.576,-0.6119,-0.6069,-0.5538,-0.552,-0.5264,-0.4635,-0.5238,-0.5869,-0.6507,-0.5842,-0.5487,-0.5433,-0.5433,-0.5109,-0.4491,-0.4491,-0.4491,-0.4491,-0.4491,-0.4491,-0.4491,-0.4481,-0.4368,-0.4194,-0.4184,-0.4177,-0.4177,-0.4177,-0.4115,-0.3998,-1.194,-1.153,-1.1189,-1.1169,-1.1202,-1.1202,-1.1109,-1.1116,-1.1056,-1.0794,-1.0468,-1.0134,-0.9755,-0.9715,-0.9653,-0.955,-0.9639,-0.9715,-0.9715,-0.9512,-0.959,-1.0094,-1.0221,-1.0405,-1.0586,-1.0593,-1.0593,-1.0593,-1.0593,-1.0593,-1.0586,-1.0254,-1.002,-0.984,-0.9613,-0.9312,-0.8958,-0.9239,-0.9138,-0.8858,-0.9446,-0.9573,-0.9411,-0.9733,-0.978,-0.9688,-0.9472,-0.9384,-0.9397,-0.9511,-0.9544,-0.9577,-0.9793,-0.9773,-0.9621,-0.9149,-0.8961,-0.8888,-0.8817,-0.9246,-0.9619,-0.9365,-0.8851,-0.838,-0.827,-0.7269,-0.6481,-0.6877,-0.6321,-0.5696,-0.5446,-0.5198,-0.5077,-0.5274,-0.4961,-0.4969,-0.5702,-0.5532,-0.5357,-0.5366,-0.5365,-0.5259,-0.5011,-0.5034,-0.5045,-0.5005,-0.5147,-0.5155,-0.5019,-0.5005,-0.4836,-0.4519,-0.4732,-0.5007,-0.5308,-0.5034,-0.4869,-0.4869,-0.4869,-0.4732,-0.4491,-0.4491,-0.4491,-0.4491,-0.4491,-0.4491,-0.4484,-0.4365,-0.4271,-0.4187,-0.4115,-0.4082,-0.4082,-0.4082,-0.4045,-0.4008,-1.1946,-1.145,-1.1036,-1.1002,-1.0969,-1.0895,-1.0754,-1.0821,-1.0821,-1.062,-1.0221,-0.9873,-0.9579,-0.9546,-0.9499,-0.9357,-0.9566,-0.9715,-0.9715,-0.9319,-0.9297,-0.979,-0.9933,-1.012,-1.0445,-1.0452,-1.0499,-1.0593,-1.0593,-1.0593,-1.0586,-1.0254,-1.0013,-0.9806,-0.9532,-0.9232,-0.8931,-0.9178,-0.9092,-0.8844,-0.9245,-0.9339,-0.9224,-0.9365,-0.9466,-0.9492,-0.9078,-0.8998,-0.905,-0.8798,-0.8743,-0.8788,-0.9134,-0.9159,-0.8918,-0.8189,-0.7897,-0.7753,-0.7447,-0.8134,-0.8839,-0.8441,-0.7884,-0.7399,-0.7322,-0.64,-0.5729,-0.6251,-0.5794,-0.5242,-0.5056,-0.4964,-0.495,-0.5042,-0.4895,-0.4958,-0.5504,-0.5383,-0.5187,-0.5066,-0.5046,-0.493,-0.4652,-0.4675,-0.4682,-0.4638,-0.4675,-0.4706,-0.4691,-0.4602,-0.4504,-0.4399,-0.4395,-0.4399,-0.4351,-0.4443,-0.4467,-0.4395,-0.4467,-0.4491,-0.4491,-0.4491,-0.4491,-0.4491,-0.4491,-0.4491,-0.4484,-0.4355,-0.4264,-0.4184,-0.4105,-0.4065,-0.4065,-0.4065,-0.3913,-0.3722,-1.1906,-1.143,-1.0995,-1.0995,-1.0787,-1.0687,-1.0949,-1.078,-1.0593,-1.0593,-1.0084,-0.9579,-0.9251,-0.9217,-0.9331,-0.9653,-0.9708,-0.9715,-0.9708,-0.9138,-0.8911,-0.9198,-0.9519,-0.982,-1.0077,-1.0114,-1.0254,-1.0586,-1.0586,-1.0586,-1.0579,-1.0247,-1.0077,-1.0074,-0.9198,-0.8944,-0.9171,-0.8624,-0.8569,-0.8804,-0.8804,-0.8944,-0.9171,-0.8884,-0.8951,-0.9131,-0.8577,-0.8557,-0.8666,-0.7937,-0.7691,-0.7737,-0.8084,-0.7962,-0.7536,-0.6804,-0.6588,-0.6588,-0.6588,-0.6932,-0.7289,-0.7284,-0.6849,-0.6329,-0.6055,-0.5636,-0.5395,-0.573,-0.532,-0.4972,-0.5244,-0.4849,-0.4494,-0.4498,-0.4494,-0.4545,-0.4674,-0.4694,-0.4748,-0.4874,-0.4891,-0.4891,-0.4891,-0.5019,-0.5042,-0.4904,-0.5022,-0.4972,-0.4707,-0.4385,-0.42,-0.4197,-0.4197,-0.4149,-0.3998,-0.4341,-0.4392,-0.4197,-0.4395,-0.4491,-0.4491,-0.4491,-0.4491,-0.4491,-0.4491,-0.4491,-0.4491,-0.4491,-0.4379,-0.4197,-0.4197,-0.4197,-0.4197,-0.4197,-0.3717,-0.3081,-1.2171,-1.1703,-1.1296,-1.1296,-1.0889,-1.062,-1.0707,-1.0821,-1.0821,-1.062,-1.0439,-1.0137,-0.9606,-0.9552,-0.9419,-0.9098,-0.9446,-0.9593,-0.9357,-0.9178,-0.9031,-0.8911,-0.9191,-0.9506,-0.9806,-0.9813,-0.986,-0.9976,-0.9976,-0.9976,-0.997,-0.961,-0.9471,-0.9457,-0.9198,-0.9018,-0.8911,-0.8944,-0.8798,-0.8529,-0.8529,-0.843,-0.8285,-0.8199,-0.8352,-0.8506,-0.7495,-0.7401,-0.7609,-0.6784,-0.6579,-0.6697,-0.6993,-0.7019,-0.6772,-0.6036,-0.5916,-0.5914,-0.5413,-0.5434,-0.5781,-0.6483,-0.6459,-0.6174,-0.5927,-0.5287,-0.4821,-0.5105,-0.4951,-0.4801,-0.4979,-0.4954,-0.4969,-0.5109,-0.4948,-0.4833,-0.4948,-0.4819,-0.4782,-0.5005,-0.5036,-0.5111,-0.5252,-0.53,-0.5306,-0.5266,-0.5303,-0.5162,-0.4867,-0.4739,-0.4547,-0.4207,-0.4197,-0.4149,-0.3998,-0.4419,-0.4497,-0.42,-0.4504,-0.4307,-0.3649,-0.3649,-0.3649,-0.3649,-0.3649,-0.3649,-0.3649,-0.3649,-0.3324,-0.2802,-0.2802,-0.2802,-0.2802,-0.2802,-0.2665,-0.2473,-1.2305,-1.1824,-1.1389,-1.1389,-1.0949,-1.0593,-1.0593,-1.074,-1.0787,-1.0613,-1.0392,-1.011,-0.9755,-0.9579,-0.9365,-0.8984,-0.9299,-0.9379,-0.9064,-0.9044,-0.8964,-0.8818,-0.8951,-0.9178,-0.9499,-0.9512,-0.9566,-0.9715,-0.9715,-0.9715,-0.9708,-0.9351,-0.9211,-0.9204,-0.8971,-0.8864,-0.8785,-0.8545,-0.833,-0.8088,-0.7682,-0.7442,-0.7279,-0.7044,-0.7218,-0.7472,-0.6514,-0.6422,-0.6662,-0.5854,-0.5697,-0.5847,-0.5788,-0.5959,-0.6036,-0.53,-0.5187,-0.5203,-0.4815,-0.4802,-0.5065,-0.5714,-0.5735,-0.5562,-0.5401,-0.4908,-0.4584,-0.4846,-0.4848,-0.4847,-0.5057,-0.5165,-0.5254,-0.5378,-0.5242,-0.5125,-0.5209,-0.5067,-0.5023,-0.5199,-0.522,-0.5257,-0.5385,-0.5395,-0.5395,-0.5395,-0.5057,-0.4738,-0.447,-0.4068,-0.3668,-0.3338,-0.3321,-0.3265,-0.3121,-0.3602,-0.3795,-0.3764,-0.3722,-0.34,-0.2869,-0.286,-0.2871,-0.2871,-0.2871,-0.2878,-0.2871,-0.2871,-0.2591,-0.2202,-0.2202,-0.2202,-0.2202,-0.2202,-0.2009,-0.1758,-1.2265,-1.179,-1.1349,-1.1349,-1.0929,-1.0593,-1.0593,-1.0593,-1.0593,-1.0593,-1.0104,-0.9713,-0.9715,-0.9391,-0.9204,-0.9178,-0.9198,-0.9098,-0.8864,-0.8844,-0.8838,-0.8804,-0.8804,-0.8904,-0.9171,-0.9171,-0.9304,-0.9606,-0.9606,-0.9606,-0.9599,-0.9304,-0.9171,-0.9151,-0.8592,-0.848,-0.8626,-0.7657,-0.7364,-0.7479,-0.6561,-0.6258,-0.6279,-0.5709,-0.5856,-0.6268,-0.5656,-0.5633,-0.5814,-0.5097,-0.5039,-0.5147,-0.4661,-0.4921,-0.5296,-0.468,-0.4491,-0.4522,-0.4662,-0.4792,-0.4921,-0.5049,-0.4931,-0.4745,-0.4718,-0.4651,-0.4641,-0.4867,-0.4911,-0.504,-0.5344,-0.5395,-0.5395,-0.5395,-0.5395,-0.5395,-0.5395,-0.5405,-0.5409,-0.5395,-0.5419,-0.5429,-0.5416,-0.5426,-0.5399,-0.5299,-0.4509,-0.3934,-0.3684,-0.2755,-0.2168,-0.2004,-0.2011,-0.193,-0.1824,-0.2162,-0.2579,-0.3007,-0.2467,-0.2179,-0.2087,-0.2087,-0.209,-0.2088,-0.2112,-0.2104,-0.21,-0.2094,-0.2063,-0.2009,-0.2009,-0.2009,-0.2009,-0.2009,-0.1591,-0.1006,-1.2,-1.149,-1.1089,-1.1089,-1.0827,-1.0593,-1.0593,-1.0593,-1.0593,-1.0593,-1.0247,-0.9933,-0.9706,-0.9391,-0.9124,-0.8898,-0.9084,-0.9184,-0.9124,-0.9118,-0.9018,-0.8818,-0.8804,-0.8838,-0.8871,-0.8871,-0.8931,-0.8998,-0.8998,-0.8998,-0.8998,-0.8931,-0.8871,-0.8865,-0.8151,-0.7888,-0.7883,-0.71,-0.6675,-0.6514,-0.6283,-0.6087,-0.5908,-0.5602,-0.569,-0.5834,-0.5128,-0.505,-0.5233,-0.4748,-0.4629,-0.4661,-0.4532,-0.4598,-0.4677,-0.4546,-0.4491,-0.4498,-0.4532,-0.4711,-0.4894,-0.4928,-0.5091,-0.5187,-0.4925,-0.5023,-0.5153,-0.4952,-0.5104,-0.5317,-0.5382,-0.5395,-0.5395,-0.5395,-0.5395,-0.5395,-0.5395,-0.5498,-0.5528,-0.5409,-0.56,-0.5661,-0.5552,-0.564,-0.5348,-0.4534,-0.4271,-0.3749,-0.2842,-0.2568,-0.2303,-0.2002,-0.201,-0.1978,-0.1947,-0.1473,-0.1591,-0.223,-0.2382,-0.2063,-0.1353,-0.1344,-0.134,-0.1338,-0.1335,-0.1344,-0.1333,-0.1327,-0.1006,-0.0476,-0.0476,-0.0476,-0.0476,-0.0476,-0.0364,-0.0252,-1.1683,-1.1296,-1.0995,-1.0995,-1.0787,-1.0593,-1.0593,-1.0472,-1.0432,-1.0573,-1.006,-0.9664,-0.9686,-0.9292,-0.8944,-0.8824,-0.8918,-0.9004,-0.9004,-0.9004,-0.8938,-0.8811,-0.8804,-0.8804,-0.8804,-0.8454,-0.8454,-0.8804,-0.8804,-0.8804,-0.8778,-0.8427,-0.8262,-0.8235,-0.7503,-0.7182,-0.7128,-0.6389,-0.5999,-0.5844,-0.5531,-0.5241,-0.5018,-0.4927,-0.4919,-0.4894,-0.4574,-0.456,-0.4643,-0.4438,-0.4362,-0.4372,-0.4467,-0.4491,-0.4491,-0.4491,-0.4491,-0.4505,-0.458,-0.4687,-0.4826,-0.487,-0.5087,-0.523,-0.5148,-0.5341,-0.546,-0.527,-0.5416,-0.5607,-0.5607,-0.5607,-0.5607,-0.5607,-0.5607,-0.5607,-0.5607,-0.5218,-0.4921,-0.485,-0.4531,-0.4293,-0.4237,-0.4283,-0.4075,-0.3528,-0.3059,-0.2543,-0.196,-0.1521,-0.1238,-0.104,-0.1053,-0.1054,-0.1037,-0.066,-0.0654,-0.1054,-0.1223,-0.104,-0.0567,-0.0567,-0.0567,-0.0566,-0.0589,-0.0575,-0.0587,-0.0577,-0.0341,0.0,0.0,0.0,0.0,0.0,0.0,0.0,-1.141,-1.1122,-1.0915,-1.0915,-1.0754,-1.0593,-1.0593,-1.0307,-1.0221,-1.0553,-0.9833,-0.9384,-0.9659,-0.9158,-0.8804,-0.8804,-0.8804,-0.8804,-0.8804,-0.8804,-0.8804,-0.8804,-0.8804,-0.8752,-0.8619,-0.8017,-0.7996,-0.8619,-0.848,-0.8427,-0.8401,-0.7803,-0.7503,-0.7477,-0.6745,-0.6421,-0.6367,-0.5628,-0.5324,-0.5273,-0.4732,-0.4392,-0.4257,-0.4204,-0.4159,-0.4107,-0.416,-0.421,-0.426,-0.426,-0.426,-0.4277,-0.4453,-0.4491,-0.4491,-0.4491,-0.4491,-0.4525,-0.4679,-0.4711,-0.4765,-0.4887,-0.5032,-0.5209,-0.5399,-0.5532,-0.5583,-0.5555,-0.5664,-0.5755,-0.5732,-0.5745,-0.5766,-0.5766,-0.5639,-0.5512,-0.5512,-0.4626,-0.3976,-0.3957,-0.3243,-0.2745,-0.2756,-0.2758,-0.2693,-0.2516,-0.1797,-0.1259,-0.11,-0.0405,0.0,0.0,0.0,0.0,0.0,0.0,0.0,0.0,0.0,0.0,0.0,0.0,0.0,0.0,0.0,0.0,0.0,0.0,0.0,0.0,0.0,0.0,0.0,0.0,0.0,0.0,-1.1109,-1.0847,-1.0646,-1.0646,-1.062,-1.0593,-1.0593,-1.0307,-1.0221,-1.0553,-1.0043,-0.9639,-0.9708,-0.9158,-0.8804,-0.8804,-0.8804,-0.8804,-0.8804,-0.8804,-0.8804,-0.8804,-0.8804,-0.8507,-0.7857,-0.775,-0.775,-0.7857,-0.7208,-0.6885,-0.6885,-0.6804,-0.675,-0.6723,-0.5982,-0.5651,-0.5597,-0.4924,-0.4625,-0.4625,-0.4546,-0.4477,-0.4447,-0.4267,-0.4287,-0.4416,-0.426,-0.4301,-0.446,-0.446,-0.446,-0.4464,-0.4484,-0.4491,-0.4491,-0.4491,-0.4491,-0.4525,-0.4679,-0.4789,-0.4891,-0.5032,-0.5216,-0.5402,-0.5525,-0.5576,-0.5552,-0.5453,-0.5545,-0.5579,-0.5481,-0.5562,-0.5616,-0.5616,-0.4935,-0.4426,-0.4426,-0.3626,-0.3014,-0.2911,-0.2888,-0.2913,-0.3049,-0.3054,-0.2682,-0.1797,-0.1647,-0.1165,-0.0234,-0.0065,0.0,0.0,0.0,0.0,0.0,0.0,0.0,0.0,0.0,0.0,0.0,0.0,0.0,0.0,0.0,0.0,0.0,0.0,0.0,0.0,0.0,0.0,0.0,0.0,0.0,0.0,-1.0841,-1.068,-1.0593,-1.0593,-1.0593,-1.0593,-1.0593,-1.0307,-1.0221,-1.0553,-1.0077,-0.9564,-0.9226,-0.8667,-0.8256,-0.8195,-0.856,-0.8804,-0.8804,-0.8804,-0.8804,-0.8804,-0.8401,-0.8023,-0.7696,-0.6902,-0.6465,-0.6465,-0.6556,-0.6588,-0.6588,-0.6177,-0.5982,-0.5955,-0.5246,-0.4948,-0.4921,-0.4625,-0.4491,-0.4491,-0.4491,-0.4491,-0.4484,-0.4392,-0.4358,-0.4334,-0.4244,-0.4341,-0.4491,-0.4491,-0.4491,-0.4491,-0.4491,-0.4491,-0.4491,-0.4491,-0.4549,-0.4634,-0.4674,-0.4802,-0.4904,-0.4965,-0.4737,-0.4655,-0.5183,-0.4676,-0.4399,-0.5429,-0.5269,-0.4974,-0.4914,-0.4514,-0.4193,-0.4193,-0.3871,-0.3578,-0.3569,-0.2772,-0.1918,-0.1264,-0.1238,-0.1296,-0.1367,-0.137,-0.1195,-0.0743,-0.0696,-0.0495,-0.0033,0.0,0.0,0.0,0.0,0.0,0.0,0.0,0.0,0.0,0.0,0.0,0.0,0.0,0.0,0.0,0.0,0.0,0.0,0.0,0.0,0.0,0.0,0.0,0.0,0.0,0.0,0.0]}]]